<?xml version="1.0" encoding="UTF-8" standalone="no" ?>
<gpx xmlns="http://www.topografix.com/GPX/1/1" xmlns:xsi="http://www.w3.org/2001/XMLSchema-instance" xsi:schemaLocation="http://www.topografix.com/GPX/1/1 http://www.topografix.com/GPX/1/1/gpx.xsd" version="1.1" creator="VisuGPX - https://www.visugpx.com">
  <metadata>
    <name>Revel-laval-revel</name>
    <desc><![CDATA[File with points/tracks from Locus Map/3.49.1]]></desc>
  </metadata>
  <trk>
    <name><![CDATA[2020-12-19 13:52:19]]></name>
    <desc><![CDATA[Lav]]></desc>
    <extensions>
      <line xmlns="http://www.topografix.com/GPX/gpx_style/0/2">
        <color>0000FF</color>
        <opacity>0.59</opacity>
        <width>6.0</width>
      </line>
    </extensions>
    <trkseg>
      <trkpt lat="45.18382" lon="5.8738">
        <ele>697.1</ele>
        <time>2020-12-19T12:52:21.000Z</time>
      </trkpt>
      <trkpt lat="45.1838" lon="5.87363">
        <ele>691.73</ele>
        <time>2020-12-19T12:55:26.000Z</time>
      </trkpt>
      <trkpt lat="45.18375" lon="5.87319">
        <ele>686.23</ele>
        <time>2020-12-19T12:55:31.000Z</time>
      </trkpt>
      <trkpt lat="45.1838" lon="5.8727">
        <ele>686.96</ele>
        <time>2020-12-19T12:55:36.000Z</time>
      </trkpt>
      <trkpt lat="45.18399" lon="5.87226">
        <ele>680.62</ele>
        <time>2020-12-19T12:55:41.000Z</time>
      </trkpt>
      <trkpt lat="45.18422" lon="5.87196">
        <ele>679.22</ele>
        <time>2020-12-19T12:55:46.000Z</time>
      </trkpt>
      <trkpt lat="45.18431" lon="5.87179">
        <ele>678.22</ele>
        <time>2020-12-19T12:55:51.000Z</time>
      </trkpt>
      <trkpt lat="45.18422" lon="5.87169">
        <ele>676.68</ele>
        <time>2020-12-19T12:55:56.000Z</time>
      </trkpt>
      <trkpt lat="45.18408" lon="5.87155">
        <ele>674.12</ele>
        <time>2020-12-19T12:56:01.000Z</time>
      </trkpt>
      <trkpt lat="45.184" lon="5.87137">
        <ele>671.74</ele>
        <time>2020-12-19T12:56:06.000Z</time>
      </trkpt>
      <trkpt lat="45.1843" lon="5.87116">
        <ele>671.92</ele>
        <time>2020-12-19T12:56:11.000Z</time>
      </trkpt>
      <trkpt lat="45.18466" lon="5.87098">
        <ele>667.03</ele>
        <time>2020-12-19T12:56:16.000Z</time>
      </trkpt>
      <trkpt lat="45.18501" lon="5.87085">
        <ele>667.67</ele>
        <time>2020-12-19T12:56:21.000Z</time>
      </trkpt>
      <trkpt lat="45.18534" lon="5.87049">
        <ele>664.31</ele>
        <time>2020-12-19T12:56:26.000Z</time>
      </trkpt>
      <trkpt lat="45.18573" lon="5.8705">
        <ele>664.47</ele>
        <time>2020-12-19T12:56:31.000Z</time>
      </trkpt>
      <trkpt lat="45.18587" lon="5.86984">
        <ele>664.77</ele>
        <time>2020-12-19T12:56:36.000Z</time>
      </trkpt>
      <trkpt lat="45.18592" lon="5.8692">
        <ele>663.36</ele>
        <time>2020-12-19T12:56:41.000Z</time>
      </trkpt>
      <trkpt lat="45.18582" lon="5.86875">
        <ele>663.86</ele>
        <time>2020-12-19T12:56:46.000Z</time>
      </trkpt>
      <trkpt lat="45.18581" lon="5.86848">
        <ele>662.91</ele>
        <time>2020-12-19T12:56:51.000Z</time>
      </trkpt>
      <trkpt lat="45.18597" lon="5.86848">
        <ele>662.62</ele>
        <time>2020-12-19T12:56:56.000Z</time>
      </trkpt>
      <trkpt lat="45.18617" lon="5.86888">
        <ele>662.62</ele>
        <time>2020-12-19T12:57:01.000Z</time>
      </trkpt>
      <trkpt lat="45.18665" lon="5.86913">
        <ele>654.02</ele>
        <time>2020-12-19T12:57:06.000Z</time>
      </trkpt>
      <trkpt lat="45.18678" lon="5.86859">
        <ele>650.09</ele>
        <time>2020-12-19T12:57:11.000Z</time>
      </trkpt>
      <trkpt lat="45.187" lon="5.86787">
        <ele>642.45</ele>
        <time>2020-12-19T12:57:16.000Z</time>
      </trkpt>
      <trkpt lat="45.18735" lon="5.86712">
        <ele>637.68</ele>
        <time>2020-12-19T12:57:21.000Z</time>
      </trkpt>
      <trkpt lat="45.18779" lon="5.86646">
        <ele>637.63</ele>
        <time>2020-12-19T12:57:26.000Z</time>
      </trkpt>
      <trkpt lat="45.18794" lon="5.86562">
        <ele>630.18</ele>
        <time>2020-12-19T12:57:31.000Z</time>
      </trkpt>
      <trkpt lat="45.18779" lon="5.86481">
        <ele>625.28</ele>
        <time>2020-12-19T12:57:36.000Z</time>
      </trkpt>
      <trkpt lat="45.18822" lon="5.86446">
        <ele>625.57</ele>
        <time>2020-12-19T12:57:41.000Z</time>
      </trkpt>
      <trkpt lat="45.1887" lon="5.86394">
        <ele>621.24</ele>
        <time>2020-12-19T12:57:46.000Z</time>
      </trkpt>
      <trkpt lat="45.18906" lon="5.86318">
        <ele>614.05</ele>
        <time>2020-12-19T12:57:51.000Z</time>
      </trkpt>
      <trkpt lat="45.18929" lon="5.86227">
        <ele>610.47</ele>
        <time>2020-12-19T12:57:56.000Z</time>
      </trkpt>
      <trkpt lat="45.18944" lon="5.86138">
        <ele>602.92</ele>
        <time>2020-12-19T12:58:01.000Z</time>
      </trkpt>
      <trkpt lat="45.18952" lon="5.86046">
        <ele>590.58</ele>
        <time>2020-12-19T12:58:06.000Z</time>
      </trkpt>
      <trkpt lat="45.18968" lon="5.85952">
        <ele>583.11</ele>
        <time>2020-12-19T12:58:11.000Z</time>
      </trkpt>
      <trkpt lat="45.18959" lon="5.85858">
        <ele>577.43</ele>
        <time>2020-12-19T12:58:16.000Z</time>
      </trkpt>
      <trkpt lat="45.18951" lon="5.85756">
        <ele>573.76</ele>
        <time>2020-12-19T12:58:21.000Z</time>
      </trkpt>
      <trkpt lat="45.18935" lon="5.8566">
        <ele>571.28</ele>
        <time>2020-12-19T12:58:26.000Z</time>
      </trkpt>
      <trkpt lat="45.18968" lon="5.8558">
        <ele>565.4</ele>
        <time>2020-12-19T12:58:31.000Z</time>
      </trkpt>
      <trkpt lat="45.19008" lon="5.85517">
        <ele>558.45</ele>
        <time>2020-12-19T12:58:36.000Z</time>
      </trkpt>
      <trkpt lat="45.19073" lon="5.8548">
        <ele>557.52</ele>
        <time>2020-12-19T12:58:41.000Z</time>
      </trkpt>
      <trkpt lat="45.19132" lon="5.85425">
        <ele>557.47</ele>
        <time>2020-12-19T12:58:46.000Z</time>
      </trkpt>
      <trkpt lat="45.19187" lon="5.8537">
        <ele>555.2</ele>
        <time>2020-12-19T12:58:51.000Z</time>
      </trkpt>
      <trkpt lat="45.19257" lon="5.85349">
        <ele>548.35</ele>
        <time>2020-12-19T12:58:56.000Z</time>
      </trkpt>
      <trkpt lat="45.19322" lon="5.85319">
        <ele>546.17</ele>
        <time>2020-12-19T12:59:01.000Z</time>
      </trkpt>
      <trkpt lat="45.19363" lon="5.85349">
        <ele>542.84</ele>
        <time>2020-12-19T12:59:06.000Z</time>
      </trkpt>
      <trkpt lat="45.1938" lon="5.85316">
        <ele>540.71</ele>
        <time>2020-12-19T12:59:11.000Z</time>
      </trkpt>
      <trkpt lat="45.19393" lon="5.85175">
        <ele>530.06</ele>
        <time>2020-12-19T12:59:24.000Z</time>
      </trkpt>
      <trkpt lat="45.19443" lon="5.85165">
        <ele>522.76</ele>
        <time>2020-12-19T12:59:29.000Z</time>
      </trkpt>
      <trkpt lat="45.19473" lon="5.85066">
        <ele>521.2</ele>
        <time>2020-12-19T12:59:37.000Z</time>
      </trkpt>
      <trkpt lat="45.19523" lon="5.84982">
        <ele>516.95</ele>
        <time>2020-12-19T12:59:42.000Z</time>
      </trkpt>
      <trkpt lat="45.19593" lon="5.84946">
        <ele>514.82</ele>
        <time>2020-12-19T12:59:47.000Z</time>
      </trkpt>
      <trkpt lat="45.19649" lon="5.84891">
        <ele>514.24</ele>
        <time>2020-12-19T12:59:52.000Z</time>
      </trkpt>
      <trkpt lat="45.19705" lon="5.84825">
        <ele>502.47</ele>
        <time>2020-12-19T12:59:57.000Z</time>
      </trkpt>
      <trkpt lat="45.19817" lon="5.84763">
        <ele>494.83</ele>
        <time>2020-12-19T13:00:05.000Z</time>
      </trkpt>
      <trkpt lat="45.19839" lon="5.84679">
        <ele>481.47</ele>
        <time>2020-12-19T13:00:15.000Z</time>
      </trkpt>
      <trkpt lat="45.19878" lon="5.84626">
        <ele>439.57</ele>
        <time>2020-12-19T13:00:20.000Z</time>
      </trkpt>
      <trkpt lat="45.19928" lon="5.84556">
        <ele>430.89</ele>
        <time>2020-12-19T13:00:25.000Z</time>
      </trkpt>
      <trkpt lat="45.19966" lon="5.84478">
        <ele>421.67</ele>
        <time>2020-12-19T13:00:30.000Z</time>
      </trkpt>
      <trkpt lat="45.20034" lon="5.84454">
        <ele>419.09</ele>
        <time>2020-12-19T13:00:35.000Z</time>
      </trkpt>
      <trkpt lat="45.20102" lon="5.84476">
        <ele>407.79</ele>
        <time>2020-12-19T13:00:40.000Z</time>
      </trkpt>
      <trkpt lat="45.20139" lon="5.84566">
        <ele>395.71</ele>
        <time>2020-12-19T13:00:45.000Z</time>
      </trkpt>
      <trkpt lat="45.20177" lon="5.84653">
        <ele>389.62</ele>
        <time>2020-12-19T13:00:50.000Z</time>
      </trkpt>
      <trkpt lat="45.20229" lon="5.84726">
        <ele>381.02</ele>
        <time>2020-12-19T13:00:55.000Z</time>
      </trkpt>
      <trkpt lat="45.20269" lon="5.84816">
        <ele>372.41</ele>
        <time>2020-12-19T13:01:00.000Z</time>
      </trkpt>
      <trkpt lat="45.20297" lon="5.84911">
        <ele>362.45</ele>
        <time>2020-12-19T13:01:05.000Z</time>
      </trkpt>
      <trkpt lat="45.20346" lon="5.84993">
        <ele>357.12</ele>
        <time>2020-12-19T13:01:10.000Z</time>
      </trkpt>
      <trkpt lat="45.2039" lon="5.85074">
        <ele>353.32</ele>
        <time>2020-12-19T13:01:15.000Z</time>
      </trkpt>
      <trkpt lat="45.20424" lon="5.85125">
        <ele>350.63</ele>
        <time>2020-12-19T13:01:20.000Z</time>
      </trkpt>
      <trkpt lat="45.20413" lon="5.85096">
        <ele>345.62</ele>
        <time>2020-12-19T13:01:25.000Z</time>
      </trkpt>
      <trkpt lat="45.20398" lon="5.85054">
        <ele>341.88</ele>
        <time>2020-12-19T13:01:30.000Z</time>
      </trkpt>
      <trkpt lat="45.20378" lon="5.85">
        <ele>337.52</ele>
        <time>2020-12-19T13:01:35.000Z</time>
      </trkpt>
      <trkpt lat="45.20356" lon="5.84932">
        <ele>332.15</ele>
        <time>2020-12-19T13:01:40.000Z</time>
      </trkpt>
      <trkpt lat="45.20328" lon="5.84851">
        <ele>328.08</ele>
        <time>2020-12-19T13:01:45.000Z</time>
      </trkpt>
      <trkpt lat="45.20317" lon="5.84755">
        <ele>322.13</ele>
        <time>2020-12-19T13:01:50.000Z</time>
      </trkpt>
      <trkpt lat="45.20291" lon="5.84661">
        <ele>320.7</ele>
        <time>2020-12-19T13:01:55.000Z</time>
      </trkpt>
      <trkpt lat="45.20261" lon="5.84561">
        <ele>311.53</ele>
        <time>2020-12-19T13:02:00.000Z</time>
      </trkpt>
      <trkpt lat="45.20234" lon="5.84454">
        <ele>306.65</ele>
        <time>2020-12-19T13:02:05.000Z</time>
      </trkpt>
      <trkpt lat="45.20206" lon="5.84353">
        <ele>299.89</ele>
        <time>2020-12-19T13:02:10.000Z</time>
      </trkpt>
      <trkpt lat="45.20175" lon="5.84253">
        <ele>290.55</ele>
        <time>2020-12-19T13:02:15.000Z</time>
      </trkpt>
      <trkpt lat="45.20138" lon="5.84201">
        <ele>288.17</ele>
        <time>2020-12-19T13:02:20.000Z</time>
      </trkpt>
      <trkpt lat="45.20073" lon="5.84233">
        <ele>286.15</ele>
        <time>2020-12-19T13:02:25.000Z</time>
      </trkpt>
      <trkpt lat="45.20009" lon="5.84251">
        <ele>280.68</ele>
        <time>2020-12-19T13:02:30.000Z</time>
      </trkpt>
      <trkpt lat="45.19994" lon="5.8422">
        <ele>280.63</ele>
        <time>2020-12-19T13:02:35.000Z</time>
      </trkpt>
      <trkpt lat="45.20037" lon="5.84194">
        <ele>275.89</ele>
        <time>2020-12-19T13:02:40.000Z</time>
      </trkpt>
      <trkpt lat="45.20069" lon="5.84161">
        <ele>269.74</ele>
        <time>2020-12-19T13:02:45.000Z</time>
      </trkpt>
      <trkpt lat="45.20087" lon="5.84122">
        <ele>266.2</ele>
        <time>2020-12-19T13:02:50.000Z</time>
      </trkpt>
      <trkpt lat="45.20104" lon="5.84082">
        <ele>258.41</ele>
        <time>2020-12-19T13:02:55.000Z</time>
      </trkpt>
      <trkpt lat="45.20127" lon="5.84049">
        <ele>257.91</ele>
        <time>2020-12-19T13:03:00.000Z</time>
      </trkpt>
      <trkpt lat="45.2014" lon="5.84018">
        <ele>256.21</ele>
        <time>2020-12-19T13:03:05.000Z</time>
      </trkpt>
      <trkpt lat="45.20147" lon="5.84008">
        <ele>255.05</ele>
        <time>2020-12-19T13:03:10.000Z</time>
      </trkpt>
      <trkpt lat="45.20153" lon="5.84018">
        <ele>255.73</ele>
        <time>2020-12-19T13:03:25.000Z</time>
      </trkpt>
      <trkpt lat="45.20159" lon="5.84008">
        <ele>253.45</ele>
        <time>2020-12-19T13:03:33.000Z</time>
      </trkpt>
      <trkpt lat="45.20159" lon="5.83995">
        <ele>259.3</ele>
        <time>2020-12-19T13:03:40.000Z</time>
      </trkpt>
      <trkpt lat="45.20158" lon="5.83978">
        <ele>256.71</ele>
        <time>2020-12-19T13:03:45.000Z</time>
      </trkpt>
      <trkpt lat="45.20159" lon="5.83965">
        <ele>255.8</ele>
        <time>2020-12-19T13:03:53.000Z</time>
      </trkpt>
      <trkpt lat="45.20161" lon="5.83949">
        <ele>254.2</ele>
        <time>2020-12-19T13:04:12.000Z</time>
      </trkpt>
      <trkpt lat="45.20158" lon="5.83916">
        <ele>249.99</ele>
        <time>2020-12-19T13:04:17.000Z</time>
      </trkpt>
      <trkpt lat="45.20149" lon="5.83875">
        <ele>250.13</ele>
        <time>2020-12-19T13:04:22.000Z</time>
      </trkpt>
      <trkpt lat="45.20162" lon="5.83859">
        <ele>253.1</ele>
        <time>2020-12-19T13:04:27.000Z</time>
      </trkpt>
      <trkpt lat="45.20181" lon="5.83844">
        <ele>251.05</ele>
        <time>2020-12-19T13:04:32.000Z</time>
      </trkpt>
      <trkpt lat="45.2021" lon="5.83833">
        <ele>252.71</ele>
        <time>2020-12-19T13:04:37.000Z</time>
      </trkpt>
      <trkpt lat="45.20241" lon="5.83815">
        <ele>248.75</ele>
        <time>2020-12-19T13:04:42.000Z</time>
      </trkpt>
      <trkpt lat="45.20271" lon="5.83791">
        <ele>243.48</ele>
        <time>2020-12-19T13:04:47.000Z</time>
      </trkpt>
      <trkpt lat="45.20304" lon="5.83757">
        <ele>240.84</ele>
        <time>2020-12-19T13:04:52.000Z</time>
      </trkpt>
      <trkpt lat="45.20336" lon="5.83726">
        <ele>239.9</ele>
        <time>2020-12-19T13:04:57.000Z</time>
      </trkpt>
      <trkpt lat="45.20367" lon="5.83692">
        <ele>234.24</ele>
        <time>2020-12-19T13:05:02.000Z</time>
      </trkpt>
      <trkpt lat="45.20404" lon="5.8366">
        <ele>226.99</ele>
        <time>2020-12-19T13:05:07.000Z</time>
      </trkpt>
      <trkpt lat="45.2044" lon="5.83625">
        <ele>228.99</ele>
        <time>2020-12-19T13:05:12.000Z</time>
      </trkpt>
      <trkpt lat="45.20475" lon="5.83596">
        <ele>232.75</ele>
        <time>2020-12-19T13:05:17.000Z</time>
      </trkpt>
      <trkpt lat="45.20509" lon="5.83568">
        <ele>232.58</ele>
        <time>2020-12-19T13:05:22.000Z</time>
      </trkpt>
      <trkpt lat="45.20547" lon="5.83538">
        <ele>230.96</ele>
        <time>2020-12-19T13:05:27.000Z</time>
      </trkpt>
      <trkpt lat="45.2058" lon="5.83506">
        <ele>232.5</ele>
        <time>2020-12-19T13:05:32.000Z</time>
      </trkpt>
      <trkpt lat="45.20616" lon="5.8348">
        <ele>233.46</ele>
        <time>2020-12-19T13:05:37.000Z</time>
      </trkpt>
      <trkpt lat="45.20649" lon="5.83452">
        <ele>232.93</ele>
        <time>2020-12-19T13:05:42.000Z</time>
      </trkpt>
      <trkpt lat="45.20684" lon="5.83426">
        <ele>232.51</ele>
        <time>2020-12-19T13:05:47.000Z</time>
      </trkpt>
      <trkpt lat="45.20715" lon="5.83407">
        <ele>230.49</ele>
        <time>2020-12-19T13:05:52.000Z</time>
      </trkpt>
      <trkpt lat="45.20746" lon="5.83384">
        <ele>225.11</ele>
        <time>2020-12-19T13:05:57.000Z</time>
      </trkpt>
      <trkpt lat="45.20777" lon="5.83359">
        <ele>228.04</ele>
        <time>2020-12-19T13:06:02.000Z</time>
      </trkpt>
      <trkpt lat="45.20806" lon="5.83336">
        <ele>228.47</ele>
        <time>2020-12-19T13:06:07.000Z</time>
      </trkpt>
      <trkpt lat="45.20834" lon="5.83315">
        <ele>224.42</ele>
        <time>2020-12-19T13:06:12.000Z</time>
      </trkpt>
      <trkpt lat="45.20857" lon="5.83298">
        <ele>222.09</ele>
        <time>2020-12-19T13:06:17.000Z</time>
      </trkpt>
      <trkpt lat="45.20882" lon="5.83279">
        <ele>217.77</ele>
        <time>2020-12-19T13:06:22.000Z</time>
      </trkpt>
      <trkpt lat="45.20908" lon="5.8326">
        <ele>214.3</ele>
        <time>2020-12-19T13:06:27.000Z</time>
      </trkpt>
      <trkpt lat="45.20933" lon="5.83243">
        <ele>218</ele>
        <time>2020-12-19T13:06:32.000Z</time>
      </trkpt>
      <trkpt lat="45.20958" lon="5.83228">
        <ele>219.24</ele>
        <time>2020-12-19T13:06:37.000Z</time>
      </trkpt>
      <trkpt lat="45.20979" lon="5.83229">
        <ele>221.84</ele>
        <time>2020-12-19T13:06:42.000Z</time>
      </trkpt>
      <trkpt lat="45.20995" lon="5.83233">
        <ele>221.89</ele>
        <time>2020-12-19T13:06:47.000Z</time>
      </trkpt>
      <trkpt lat="45.21011" lon="5.8325">
        <ele>220.4</ele>
        <time>2020-12-19T13:06:52.000Z</time>
      </trkpt>
      <trkpt lat="45.21028" lon="5.83263">
        <ele>219.62</ele>
        <time>2020-12-19T13:06:57.000Z</time>
      </trkpt>
      <trkpt lat="45.21049" lon="5.83256">
        <ele>223.31</ele>
        <time>2020-12-19T13:07:02.000Z</time>
      </trkpt>
      <trkpt lat="45.21065" lon="5.83229">
        <ele>220.3</ele>
        <time>2020-12-19T13:07:07.000Z</time>
      </trkpt>
      <trkpt lat="45.21073" lon="5.83196">
        <ele>220.51</ele>
        <time>2020-12-19T13:07:12.000Z</time>
      </trkpt>
      <trkpt lat="45.21085" lon="5.83168">
        <ele>223.72</ele>
        <time>2020-12-19T13:07:17.000Z</time>
      </trkpt>
      <trkpt lat="45.21103" lon="5.83142">
        <ele>223.87</ele>
        <time>2020-12-19T13:07:22.000Z</time>
      </trkpt>
      <trkpt lat="45.21121" lon="5.83121">
        <ele>220.67</ele>
        <time>2020-12-19T13:07:27.000Z</time>
      </trkpt>
      <trkpt lat="45.21136" lon="5.83095">
        <ele>218.28</ele>
        <time>2020-12-19T13:07:32.000Z</time>
      </trkpt>
      <trkpt lat="45.21151" lon="5.83068">
        <ele>217.4</ele>
        <time>2020-12-19T13:07:37.000Z</time>
      </trkpt>
      <trkpt lat="45.21161" lon="5.8304">
        <ele>218.13</ele>
        <time>2020-12-19T13:07:42.000Z</time>
      </trkpt>
      <trkpt lat="45.21177" lon="5.83011">
        <ele>218.79</ele>
        <time>2020-12-19T13:07:47.000Z</time>
      </trkpt>
      <trkpt lat="45.21195" lon="5.82976">
        <ele>217.77</ele>
        <time>2020-12-19T13:07:52.000Z</time>
      </trkpt>
      <trkpt lat="45.21208" lon="5.82948">
        <ele>216.99</ele>
        <time>2020-12-19T13:07:57.000Z</time>
      </trkpt>
      <trkpt lat="45.21221" lon="5.82921">
        <ele>219.53</ele>
        <time>2020-12-19T13:08:02.000Z</time>
      </trkpt>
      <trkpt lat="45.21235" lon="5.8289">
        <ele>220.01</ele>
        <time>2020-12-19T13:08:07.000Z</time>
      </trkpt>
      <trkpt lat="45.21248" lon="5.82863">
        <ele>221.86</ele>
        <time>2020-12-19T13:08:12.000Z</time>
      </trkpt>
      <trkpt lat="45.21263" lon="5.82834">
        <ele>223.23</ele>
        <time>2020-12-19T13:08:17.000Z</time>
      </trkpt>
      <trkpt lat="45.21277" lon="5.82804">
        <ele>220.57</ele>
        <time>2020-12-19T13:08:22.000Z</time>
      </trkpt>
      <trkpt lat="45.21282" lon="5.82816">
        <ele>218.68</ele>
        <time>2020-12-19T13:08:27.000Z</time>
      </trkpt>
      <trkpt lat="45.21272" lon="5.82843">
        <ele>219.73</ele>
        <time>2020-12-19T13:08:32.000Z</time>
      </trkpt>
      <trkpt lat="45.2126" lon="5.82867">
        <ele>218.06</ele>
        <time>2020-12-19T13:08:37.000Z</time>
      </trkpt>
      <trkpt lat="45.21248" lon="5.82892">
        <ele>215.43</ele>
        <time>2020-12-19T13:08:42.000Z</time>
      </trkpt>
      <trkpt lat="45.21235" lon="5.8292">
        <ele>215.91</ele>
        <time>2020-12-19T13:08:47.000Z</time>
      </trkpt>
      <trkpt lat="45.21229" lon="5.82949">
        <ele>216.73</ele>
        <time>2020-12-19T13:08:52.000Z</time>
      </trkpt>
      <trkpt lat="45.21242" lon="5.82961">
        <ele>218.18</ele>
        <time>2020-12-19T13:08:57.000Z</time>
      </trkpt>
      <trkpt lat="45.2124" lon="5.82978">
        <ele>216.16</ele>
        <time>2020-12-19T13:09:02.000Z</time>
      </trkpt>
      <trkpt lat="45.21254" lon="5.82989">
        <ele>216.08</ele>
        <time>2020-12-19T13:09:07.000Z</time>
      </trkpt>
      <trkpt lat="45.21269" lon="5.83">
        <ele>216.12</ele>
        <time>2020-12-19T13:09:12.000Z</time>
      </trkpt>
      <trkpt lat="45.21282" lon="5.83015">
        <ele>218.62</ele>
        <time>2020-12-19T13:09:17.000Z</time>
      </trkpt>
      <trkpt lat="45.21296" lon="5.83033">
        <ele>219.46</ele>
        <time>2020-12-19T13:09:22.000Z</time>
      </trkpt>
      <trkpt lat="45.21312" lon="5.83055">
        <ele>217.47</ele>
        <time>2020-12-19T13:09:27.000Z</time>
      </trkpt>
      <trkpt lat="45.21334" lon="5.83075">
        <ele>217.05</ele>
        <time>2020-12-19T13:09:32.000Z</time>
      </trkpt>
      <trkpt lat="45.21354" lon="5.8309">
        <ele>213.64</ele>
        <time>2020-12-19T13:09:37.000Z</time>
      </trkpt>
      <trkpt lat="45.21374" lon="5.83114">
        <ele>213.49</ele>
        <time>2020-12-19T13:09:42.000Z</time>
      </trkpt>
      <trkpt lat="45.21396" lon="5.83138">
        <ele>212.52</ele>
        <time>2020-12-19T13:09:47.000Z</time>
      </trkpt>
      <trkpt lat="45.2142" lon="5.83163">
        <ele>212.17</ele>
        <time>2020-12-19T13:09:52.000Z</time>
      </trkpt>
      <trkpt lat="45.2144" lon="5.83186">
        <ele>215.99</ele>
        <time>2020-12-19T13:09:57.000Z</time>
      </trkpt>
      <trkpt lat="45.2146" lon="5.83211">
        <ele>215.6</ele>
        <time>2020-12-19T13:10:02.000Z</time>
      </trkpt>
      <trkpt lat="45.21478" lon="5.83239">
        <ele>214.14</ele>
        <time>2020-12-19T13:10:07.000Z</time>
      </trkpt>
      <trkpt lat="45.21496" lon="5.83268">
        <ele>214.76</ele>
        <time>2020-12-19T13:10:12.000Z</time>
      </trkpt>
      <trkpt lat="45.21517" lon="5.83294">
        <ele>216.29</ele>
        <time>2020-12-19T13:10:17.000Z</time>
      </trkpt>
      <trkpt lat="45.21539" lon="5.8332">
        <ele>216.47</ele>
        <time>2020-12-19T13:10:22.000Z</time>
      </trkpt>
      <trkpt lat="45.2156" lon="5.83349">
        <ele>217.86</ele>
        <time>2020-12-19T13:10:27.000Z</time>
      </trkpt>
      <trkpt lat="45.21579" lon="5.83376">
        <ele>218.9</ele>
        <time>2020-12-19T13:10:32.000Z</time>
      </trkpt>
      <trkpt lat="45.21596" lon="5.83406">
        <ele>218.86</ele>
        <time>2020-12-19T13:10:37.000Z</time>
      </trkpt>
      <trkpt lat="45.21615" lon="5.83433">
        <ele>218.61</ele>
        <time>2020-12-19T13:10:42.000Z</time>
      </trkpt>
      <trkpt lat="45.21633" lon="5.83462">
        <ele>215.63</ele>
        <time>2020-12-19T13:10:47.000Z</time>
      </trkpt>
      <trkpt lat="45.21649" lon="5.83495">
        <ele>217.57</ele>
        <time>2020-12-19T13:10:52.000Z</time>
      </trkpt>
      <trkpt lat="45.21658" lon="5.83522">
        <ele>216.23</ele>
        <time>2020-12-19T13:10:57.000Z</time>
      </trkpt>
      <trkpt lat="45.21672" lon="5.83553">
        <ele>215.46</ele>
        <time>2020-12-19T13:11:02.000Z</time>
      </trkpt>
      <trkpt lat="45.21691" lon="5.83588">
        <ele>216.02</ele>
        <time>2020-12-19T13:11:07.000Z</time>
      </trkpt>
      <trkpt lat="45.21713" lon="5.83619">
        <ele>218.48</ele>
        <time>2020-12-19T13:11:12.000Z</time>
      </trkpt>
      <trkpt lat="45.21729" lon="5.8365">
        <ele>217.5</ele>
        <time>2020-12-19T13:11:17.000Z</time>
      </trkpt>
      <trkpt lat="45.21743" lon="5.83679">
        <ele>219.97</ele>
        <time>2020-12-19T13:11:22.000Z</time>
      </trkpt>
      <trkpt lat="45.21756" lon="5.83711">
        <ele>222.47</ele>
        <time>2020-12-19T13:11:27.000Z</time>
      </trkpt>
      <trkpt lat="45.21777" lon="5.83746">
        <ele>221.37</ele>
        <time>2020-12-19T13:11:32.000Z</time>
      </trkpt>
      <trkpt lat="45.21796" lon="5.83776">
        <ele>217.76</ele>
        <time>2020-12-19T13:11:37.000Z</time>
      </trkpt>
      <trkpt lat="45.21814" lon="5.83798">
        <ele>217.49</ele>
        <time>2020-12-19T13:11:42.000Z</time>
      </trkpt>
      <trkpt lat="45.21838" lon="5.83825">
        <ele>212.51</ele>
        <time>2020-12-19T13:11:47.000Z</time>
      </trkpt>
      <trkpt lat="45.21853" lon="5.83845">
        <ele>211.42</ele>
        <time>2020-12-19T13:11:52.000Z</time>
      </trkpt>
      <trkpt lat="45.21873" lon="5.83869">
        <ele>213.13</ele>
        <time>2020-12-19T13:11:57.000Z</time>
      </trkpt>
      <trkpt lat="45.21892" lon="5.83901">
        <ele>214.75</ele>
        <time>2020-12-19T13:12:02.000Z</time>
      </trkpt>
      <trkpt lat="45.21911" lon="5.83938">
        <ele>209.74</ele>
        <time>2020-12-19T13:12:07.000Z</time>
      </trkpt>
      <trkpt lat="45.2193" lon="5.83968">
        <ele>206.92</ele>
        <time>2020-12-19T13:12:12.000Z</time>
      </trkpt>
      <trkpt lat="45.21949" lon="5.83998">
        <ele>207.81</ele>
        <time>2020-12-19T13:12:17.000Z</time>
      </trkpt>
      <trkpt lat="45.21968" lon="5.84024">
        <ele>204.63</ele>
        <time>2020-12-19T13:12:22.000Z</time>
      </trkpt>
      <trkpt lat="45.21988" lon="5.8406">
        <ele>205.08</ele>
        <time>2020-12-19T13:12:27.000Z</time>
      </trkpt>
      <trkpt lat="45.22011" lon="5.8409">
        <ele>208.43</ele>
        <time>2020-12-19T13:12:32.000Z</time>
      </trkpt>
      <trkpt lat="45.22031" lon="5.84115">
        <ele>210.65</ele>
        <time>2020-12-19T13:12:37.000Z</time>
      </trkpt>
      <trkpt lat="45.22056" lon="5.84138">
        <ele>212.04</ele>
        <time>2020-12-19T13:12:42.000Z</time>
      </trkpt>
      <trkpt lat="45.22079" lon="5.84154">
        <ele>211.94</ele>
        <time>2020-12-19T13:12:47.000Z</time>
      </trkpt>
      <trkpt lat="45.22101" lon="5.84169">
        <ele>213.24</ele>
        <time>2020-12-19T13:12:52.000Z</time>
      </trkpt>
      <trkpt lat="45.22121" lon="5.84191">
        <ele>214.48</ele>
        <time>2020-12-19T13:12:57.000Z</time>
      </trkpt>
      <trkpt lat="45.22139" lon="5.84216">
        <ele>214.75</ele>
        <time>2020-12-19T13:13:02.000Z</time>
      </trkpt>
      <trkpt lat="45.2216" lon="5.84249">
        <ele>215.04</ele>
        <time>2020-12-19T13:13:07.000Z</time>
      </trkpt>
      <trkpt lat="45.22179" lon="5.84276">
        <ele>212.8</ele>
        <time>2020-12-19T13:13:12.000Z</time>
      </trkpt>
      <trkpt lat="45.22198" lon="5.84305">
        <ele>214.06</ele>
        <time>2020-12-19T13:13:17.000Z</time>
      </trkpt>
      <trkpt lat="45.22216" lon="5.84329">
        <ele>213.55</ele>
        <time>2020-12-19T13:13:22.000Z</time>
      </trkpt>
      <trkpt lat="45.22239" lon="5.84352">
        <ele>214.69</ele>
        <time>2020-12-19T13:13:27.000Z</time>
      </trkpt>
      <trkpt lat="45.22262" lon="5.8437">
        <ele>215.17</ele>
        <time>2020-12-19T13:13:32.000Z</time>
      </trkpt>
      <trkpt lat="45.22282" lon="5.84386">
        <ele>213.03</ele>
        <time>2020-12-19T13:13:37.000Z</time>
      </trkpt>
      <trkpt lat="45.22299" lon="5.84406">
        <ele>211.04</ele>
        <time>2020-12-19T13:13:42.000Z</time>
      </trkpt>
      <trkpt lat="45.22317" lon="5.84427">
        <ele>208.78</ele>
        <time>2020-12-19T13:13:47.000Z</time>
      </trkpt>
      <trkpt lat="45.22338" lon="5.8445">
        <ele>206.94</ele>
        <time>2020-12-19T13:13:52.000Z</time>
      </trkpt>
      <trkpt lat="45.22359" lon="5.84472">
        <ele>205.61</ele>
        <time>2020-12-19T13:13:57.000Z</time>
      </trkpt>
      <trkpt lat="45.22375" lon="5.84495">
        <ele>204.53</ele>
        <time>2020-12-19T13:14:02.000Z</time>
      </trkpt>
      <trkpt lat="45.22398" lon="5.84523">
        <ele>205.83</ele>
        <time>2020-12-19T13:14:07.000Z</time>
      </trkpt>
      <trkpt lat="45.22419" lon="5.84556">
        <ele>210.51</ele>
        <time>2020-12-19T13:14:12.000Z</time>
      </trkpt>
      <trkpt lat="45.22436" lon="5.84585">
        <ele>211.46</ele>
        <time>2020-12-19T13:14:17.000Z</time>
      </trkpt>
      <trkpt lat="45.22456" lon="5.84609">
        <ele>211.17</ele>
        <time>2020-12-19T13:14:22.000Z</time>
      </trkpt>
      <trkpt lat="45.22475" lon="5.84627">
        <ele>210.44</ele>
        <time>2020-12-19T13:14:27.000Z</time>
      </trkpt>
      <trkpt lat="45.22493" lon="5.84654">
        <ele>211.38</ele>
        <time>2020-12-19T13:14:32.000Z</time>
      </trkpt>
      <trkpt lat="45.22512" lon="5.84679">
        <ele>212.67</ele>
        <time>2020-12-19T13:14:37.000Z</time>
      </trkpt>
      <trkpt lat="45.22529" lon="5.847">
        <ele>212.03</ele>
        <time>2020-12-19T13:14:42.000Z</time>
      </trkpt>
      <trkpt lat="45.2255" lon="5.84724">
        <ele>210.77</ele>
        <time>2020-12-19T13:14:47.000Z</time>
      </trkpt>
      <trkpt lat="45.2257" lon="5.8475">
        <ele>212.4</ele>
        <time>2020-12-19T13:14:52.000Z</time>
      </trkpt>
      <trkpt lat="45.22594" lon="5.84777">
        <ele>211.59</ele>
        <time>2020-12-19T13:14:57.000Z</time>
      </trkpt>
      <trkpt lat="45.22614" lon="5.84802">
        <ele>209.57</ele>
        <time>2020-12-19T13:15:02.000Z</time>
      </trkpt>
      <trkpt lat="45.22634" lon="5.8483">
        <ele>208.96</ele>
        <time>2020-12-19T13:15:07.000Z</time>
      </trkpt>
      <trkpt lat="45.22653" lon="5.84852">
        <ele>211.26</ele>
        <time>2020-12-19T13:15:12.000Z</time>
      </trkpt>
      <trkpt lat="45.22672" lon="5.84879">
        <ele>209.7</ele>
        <time>2020-12-19T13:15:17.000Z</time>
      </trkpt>
      <trkpt lat="45.22692" lon="5.84904">
        <ele>210.55</ele>
        <time>2020-12-19T13:15:22.000Z</time>
      </trkpt>
      <trkpt lat="45.22709" lon="5.84928">
        <ele>212.39</ele>
        <time>2020-12-19T13:15:27.000Z</time>
      </trkpt>
      <trkpt lat="45.22729" lon="5.84953">
        <ele>214.9</ele>
        <time>2020-12-19T13:15:32.000Z</time>
      </trkpt>
      <trkpt lat="45.22751" lon="5.8498">
        <ele>215.37</ele>
        <time>2020-12-19T13:15:37.000Z</time>
      </trkpt>
      <trkpt lat="45.22773" lon="5.85002">
        <ele>215.63</ele>
        <time>2020-12-19T13:15:42.000Z</time>
      </trkpt>
      <trkpt lat="45.22792" lon="5.85029">
        <ele>211.92</ele>
        <time>2020-12-19T13:15:47.000Z</time>
      </trkpt>
      <trkpt lat="45.22816" lon="5.85052">
        <ele>210.38</ele>
        <time>2020-12-19T13:15:52.000Z</time>
      </trkpt>
      <trkpt lat="45.22834" lon="5.8508">
        <ele>208.12</ele>
        <time>2020-12-19T13:15:57.000Z</time>
      </trkpt>
      <trkpt lat="45.22855" lon="5.85105">
        <ele>207.19</ele>
        <time>2020-12-19T13:16:02.000Z</time>
      </trkpt>
      <trkpt lat="45.22872" lon="5.85131">
        <ele>206.99</ele>
        <time>2020-12-19T13:16:07.000Z</time>
      </trkpt>
      <trkpt lat="45.22891" lon="5.85146">
        <ele>206.93</ele>
        <time>2020-12-19T13:16:12.000Z</time>
      </trkpt>
      <trkpt lat="45.22908" lon="5.85172">
        <ele>205.25</ele>
        <time>2020-12-19T13:16:17.000Z</time>
      </trkpt>
      <trkpt lat="45.22929" lon="5.852">
        <ele>206.7</ele>
        <time>2020-12-19T13:16:22.000Z</time>
      </trkpt>
      <trkpt lat="45.22952" lon="5.85225">
        <ele>206.14</ele>
        <time>2020-12-19T13:16:27.000Z</time>
      </trkpt>
      <trkpt lat="45.22974" lon="5.85252">
        <ele>206.94</ele>
        <time>2020-12-19T13:16:32.000Z</time>
      </trkpt>
      <trkpt lat="45.22996" lon="5.85275">
        <ele>205.73</ele>
        <time>2020-12-19T13:16:37.000Z</time>
      </trkpt>
      <trkpt lat="45.23009" lon="5.8529">
        <ele>206.66</ele>
        <time>2020-12-19T13:16:42.000Z</time>
      </trkpt>
      <trkpt lat="45.23018" lon="5.85312">
        <ele>208.45</ele>
        <time>2020-12-19T13:16:47.000Z</time>
      </trkpt>
      <trkpt lat="45.2303" lon="5.85342">
        <ele>211.08</ele>
        <time>2020-12-19T13:16:52.000Z</time>
      </trkpt>
      <trkpt lat="45.23036" lon="5.85374">
        <ele>211.53</ele>
        <time>2020-12-19T13:16:57.000Z</time>
      </trkpt>
      <trkpt lat="45.23063" lon="5.85397">
        <ele>210.71</ele>
        <time>2020-12-19T13:17:02.000Z</time>
      </trkpt>
      <trkpt lat="45.23089" lon="5.85417">
        <ele>217.05</ele>
        <time>2020-12-19T13:17:07.000Z</time>
      </trkpt>
      <trkpt lat="45.23105" lon="5.85427">
        <ele>220.62</ele>
        <time>2020-12-19T13:17:12.000Z</time>
      </trkpt>
      <trkpt lat="45.23125" lon="5.85444">
        <ele>223.65</ele>
        <time>2020-12-19T13:17:17.000Z</time>
      </trkpt>
      <trkpt lat="45.23142" lon="5.85458">
        <ele>223.72</ele>
        <time>2020-12-19T13:17:22.000Z</time>
      </trkpt>
      <trkpt lat="45.23165" lon="5.85471">
        <ele>227.89</ele>
        <time>2020-12-19T13:17:27.000Z</time>
      </trkpt>
      <trkpt lat="45.23185" lon="5.85482">
        <ele>229.44</ele>
        <time>2020-12-19T13:17:32.000Z</time>
      </trkpt>
      <trkpt lat="45.2321" lon="5.85486">
        <ele>228.01</ele>
        <time>2020-12-19T13:17:37.000Z</time>
      </trkpt>
      <trkpt lat="45.23237" lon="5.85487">
        <ele>232.16</ele>
        <time>2020-12-19T13:17:42.000Z</time>
      </trkpt>
      <trkpt lat="45.23262" lon="5.85493">
        <ele>233.15</ele>
        <time>2020-12-19T13:17:47.000Z</time>
      </trkpt>
      <trkpt lat="45.23283" lon="5.85492">
        <ele>233.19</ele>
        <time>2020-12-19T13:17:52.000Z</time>
      </trkpt>
      <trkpt lat="45.23305" lon="5.85491">
        <ele>239.36</ele>
        <time>2020-12-19T13:17:57.000Z</time>
      </trkpt>
      <trkpt lat="45.23333" lon="5.85496">
        <ele>237.69</ele>
        <time>2020-12-19T13:18:02.000Z</time>
      </trkpt>
      <trkpt lat="45.23354" lon="5.85502">
        <ele>234.46</ele>
        <time>2020-12-19T13:18:07.000Z</time>
      </trkpt>
      <trkpt lat="45.23381" lon="5.85502">
        <ele>239.3</ele>
        <time>2020-12-19T13:18:12.000Z</time>
      </trkpt>
      <trkpt lat="45.23413" lon="5.85513">
        <ele>229.78</ele>
        <time>2020-12-19T13:18:17.000Z</time>
      </trkpt>
      <trkpt lat="45.23438" lon="5.85506">
        <ele>234.73</ele>
        <time>2020-12-19T13:18:22.000Z</time>
      </trkpt>
      <trkpt lat="45.23466" lon="5.85507">
        <ele>232.64</ele>
        <time>2020-12-19T13:18:27.000Z</time>
      </trkpt>
      <trkpt lat="45.23499" lon="5.85518">
        <ele>218.59</ele>
        <time>2020-12-19T13:18:32.000Z</time>
      </trkpt>
      <trkpt lat="45.23527" lon="5.85521">
        <ele>220.88</ele>
        <time>2020-12-19T13:18:37.000Z</time>
      </trkpt>
      <trkpt lat="45.23553" lon="5.85506">
        <ele>225.22</ele>
        <time>2020-12-19T13:18:42.000Z</time>
      </trkpt>
      <trkpt lat="45.23565" lon="5.8548">
        <ele>228.62</ele>
        <time>2020-12-19T13:18:47.000Z</time>
      </trkpt>
      <trkpt lat="45.23583" lon="5.85456">
        <ele>219.71</ele>
        <time>2020-12-19T13:18:52.000Z</time>
      </trkpt>
      <trkpt lat="45.23605" lon="5.85441">
        <ele>221.36</ele>
        <time>2020-12-19T13:18:57.000Z</time>
      </trkpt>
      <trkpt lat="45.2363" lon="5.85438">
        <ele>222.71</ele>
        <time>2020-12-19T13:19:02.000Z</time>
      </trkpt>
      <trkpt lat="45.23657" lon="5.85437">
        <ele>221.13</ele>
        <time>2020-12-19T13:19:07.000Z</time>
      </trkpt>
      <trkpt lat="45.23684" lon="5.85434">
        <ele>220.85</ele>
        <time>2020-12-19T13:19:12.000Z</time>
      </trkpt>
      <trkpt lat="45.2371" lon="5.85432">
        <ele>223.76</ele>
        <time>2020-12-19T13:19:17.000Z</time>
      </trkpt>
      <trkpt lat="45.23743" lon="5.85421">
        <ele>226.19</ele>
        <time>2020-12-19T13:19:22.000Z</time>
      </trkpt>
      <trkpt lat="45.23772" lon="5.85418">
        <ele>225.62</ele>
        <time>2020-12-19T13:19:27.000Z</time>
      </trkpt>
      <trkpt lat="45.23801" lon="5.85414">
        <ele>227.5</ele>
        <time>2020-12-19T13:19:32.000Z</time>
      </trkpt>
      <trkpt lat="45.2383" lon="5.85412">
        <ele>227.34</ele>
        <time>2020-12-19T13:19:37.000Z</time>
      </trkpt>
      <trkpt lat="45.2386" lon="5.85406">
        <ele>226.53</ele>
        <time>2020-12-19T13:19:42.000Z</time>
      </trkpt>
      <trkpt lat="45.23887" lon="5.85402">
        <ele>227.45</ele>
        <time>2020-12-19T13:19:47.000Z</time>
      </trkpt>
      <trkpt lat="45.23915" lon="5.85397">
        <ele>227.91</ele>
        <time>2020-12-19T13:19:52.000Z</time>
      </trkpt>
      <trkpt lat="45.23942" lon="5.85385">
        <ele>229.03</ele>
        <time>2020-12-19T13:19:57.000Z</time>
      </trkpt>
      <trkpt lat="45.23966" lon="5.8536">
        <ele>227.7</ele>
        <time>2020-12-19T13:20:02.000Z</time>
      </trkpt>
      <trkpt lat="45.23988" lon="5.85328">
        <ele>229.33</ele>
        <time>2020-12-19T13:20:07.000Z</time>
      </trkpt>
      <trkpt lat="45.24004" lon="5.85311">
        <ele>228.92</ele>
        <time>2020-12-19T13:20:12.000Z</time>
      </trkpt>
      <trkpt lat="45.24018" lon="5.85317">
        <ele>227.01</ele>
        <time>2020-12-19T13:20:17.000Z</time>
      </trkpt>
      <trkpt lat="45.24034" lon="5.85348">
        <ele>228.96</ele>
        <time>2020-12-19T13:20:22.000Z</time>
      </trkpt>
      <trkpt lat="45.24047" lon="5.85383">
        <ele>226.49</ele>
        <time>2020-12-19T13:20:27.000Z</time>
      </trkpt>
      <trkpt lat="45.24064" lon="5.854">
        <ele>224.25</ele>
        <time>2020-12-19T13:20:32.000Z</time>
      </trkpt>
      <trkpt lat="45.24081" lon="5.85415">
        <ele>224.68</ele>
        <time>2020-12-19T13:20:37.000Z</time>
      </trkpt>
      <trkpt lat="45.24096" lon="5.85415">
        <ele>228.35</ele>
        <time>2020-12-19T13:20:42.000Z</time>
      </trkpt>
      <trkpt lat="45.24106" lon="5.85388">
        <ele>229.24</ele>
        <time>2020-12-19T13:20:47.000Z</time>
      </trkpt>
      <trkpt lat="45.2411" lon="5.85367">
        <ele>228.59</ele>
        <time>2020-12-19T13:20:52.000Z</time>
      </trkpt>
      <trkpt lat="45.24116" lon="5.85344">
        <ele>226.47</ele>
        <time>2020-12-19T13:20:57.000Z</time>
      </trkpt>
      <trkpt lat="45.24121" lon="5.85316">
        <ele>226.73</ele>
        <time>2020-12-19T13:21:02.000Z</time>
      </trkpt>
      <trkpt lat="45.24128" lon="5.85286">
        <ele>230.04</ele>
        <time>2020-12-19T13:21:07.000Z</time>
      </trkpt>
      <trkpt lat="45.24128" lon="5.85252">
        <ele>231.85</ele>
        <time>2020-12-19T13:21:12.000Z</time>
      </trkpt>
      <trkpt lat="45.2412" lon="5.85225">
        <ele>232.84</ele>
        <time>2020-12-19T13:21:17.000Z</time>
      </trkpt>
      <trkpt lat="45.24116" lon="5.85207">
        <ele>235.45</ele>
        <time>2020-12-19T13:21:22.000Z</time>
      </trkpt>
      <trkpt lat="45.24122" lon="5.85226">
        <ele>234.58</ele>
        <time>2020-12-19T13:21:27.000Z</time>
      </trkpt>
      <trkpt lat="45.24133" lon="5.85258">
        <ele>232.6</ele>
        <time>2020-12-19T13:21:32.000Z</time>
      </trkpt>
      <trkpt lat="45.24146" lon="5.85293">
        <ele>226.27</ele>
        <time>2020-12-19T13:21:37.000Z</time>
      </trkpt>
      <trkpt lat="45.24159" lon="5.8534">
        <ele>222.75</ele>
        <time>2020-12-19T13:21:42.000Z</time>
      </trkpt>
      <trkpt lat="45.2417" lon="5.85383">
        <ele>221.35</ele>
        <time>2020-12-19T13:21:47.000Z</time>
      </trkpt>
      <trkpt lat="45.24183" lon="5.85431">
        <ele>222.85</ele>
        <time>2020-12-19T13:21:52.000Z</time>
      </trkpt>
      <trkpt lat="45.24193" lon="5.8548">
        <ele>223.32</ele>
        <time>2020-12-19T13:21:57.000Z</time>
      </trkpt>
      <trkpt lat="45.24203" lon="5.85522">
        <ele>221.25</ele>
        <time>2020-12-19T13:22:02.000Z</time>
      </trkpt>
      <trkpt lat="45.24212" lon="5.85562">
        <ele>219.94</ele>
        <time>2020-12-19T13:22:07.000Z</time>
      </trkpt>
      <trkpt lat="45.24196" lon="5.85592">
        <ele>220.8</ele>
        <time>2020-12-19T13:22:12.000Z</time>
      </trkpt>
      <trkpt lat="45.24179" lon="5.85608">
        <ele>214.67</ele>
        <time>2020-12-19T13:22:17.000Z</time>
      </trkpt>
      <trkpt lat="45.24161" lon="5.85616">
        <ele>217.8</ele>
        <time>2020-12-19T13:22:22.000Z</time>
      </trkpt>
      <trkpt lat="45.24146" lon="5.85623">
        <ele>219.01</ele>
        <time>2020-12-19T13:22:27.000Z</time>
      </trkpt>
      <trkpt lat="45.24135" lon="5.85643">
        <ele>214.98</ele>
        <time>2020-12-19T13:22:32.000Z</time>
      </trkpt>
      <trkpt lat="45.24123" lon="5.85677">
        <ele>217.43</ele>
        <time>2020-12-19T13:22:37.000Z</time>
      </trkpt>
      <trkpt lat="45.24115" lon="5.85713">
        <ele>220</ele>
        <time>2020-12-19T13:22:42.000Z</time>
      </trkpt>
      <trkpt lat="45.2411" lon="5.85735">
        <ele>220.85</ele>
        <time>2020-12-19T13:22:47.000Z</time>
      </trkpt>
      <trkpt lat="45.2412" lon="5.85742">
        <ele>218.03</ele>
        <time>2020-12-19T13:24:10.000Z</time>
      </trkpt>
      <trkpt lat="45.24131" lon="5.85765">
        <ele>218.07</ele>
        <time>2020-12-19T13:24:15.000Z</time>
      </trkpt>
      <trkpt lat="45.2414" lon="5.85793">
        <ele>215.81</ele>
        <time>2020-12-19T13:24:20.000Z</time>
      </trkpt>
      <trkpt lat="45.24152" lon="5.8582">
        <ele>214.85</ele>
        <time>2020-12-19T13:24:25.000Z</time>
      </trkpt>
      <trkpt lat="45.24167" lon="5.8585">
        <ele>217.65</ele>
        <time>2020-12-19T13:24:30.000Z</time>
      </trkpt>
      <trkpt lat="45.24173" lon="5.85877">
        <ele>218.79</ele>
        <time>2020-12-19T13:24:35.000Z</time>
      </trkpt>
      <trkpt lat="45.24188" lon="5.85905">
        <ele>215.86</ele>
        <time>2020-12-19T13:24:40.000Z</time>
      </trkpt>
      <trkpt lat="45.24195" lon="5.85934">
        <ele>211.47</ele>
        <time>2020-12-19T13:24:45.000Z</time>
      </trkpt>
      <trkpt lat="45.24212" lon="5.85962">
        <ele>214.7</ele>
        <time>2020-12-19T13:24:50.000Z</time>
      </trkpt>
      <trkpt lat="45.24223" lon="5.85987">
        <ele>215.39</ele>
        <time>2020-12-19T13:24:55.000Z</time>
      </trkpt>
      <trkpt lat="45.24237" lon="5.8602">
        <ele>216.35</ele>
        <time>2020-12-19T13:25:00.000Z</time>
      </trkpt>
      <trkpt lat="45.24249" lon="5.86043">
        <ele>216.23</ele>
        <time>2020-12-19T13:25:05.000Z</time>
      </trkpt>
      <trkpt lat="45.24261" lon="5.86065">
        <ele>216.33</ele>
        <time>2020-12-19T13:25:10.000Z</time>
      </trkpt>
      <trkpt lat="45.2428" lon="5.86095">
        <ele>216.6</ele>
        <time>2020-12-19T13:25:15.000Z</time>
      </trkpt>
      <trkpt lat="45.24299" lon="5.86126">
        <ele>212.8</ele>
        <time>2020-12-19T13:25:20.000Z</time>
      </trkpt>
      <trkpt lat="45.24314" lon="5.86158">
        <ele>213.43</ele>
        <time>2020-12-19T13:25:25.000Z</time>
      </trkpt>
      <trkpt lat="45.24331" lon="5.86184">
        <ele>216.6</ele>
        <time>2020-12-19T13:25:30.000Z</time>
      </trkpt>
      <trkpt lat="45.24343" lon="5.86211">
        <ele>214.98</ele>
        <time>2020-12-19T13:25:35.000Z</time>
      </trkpt>
      <trkpt lat="45.24359" lon="5.86241">
        <ele>213.9</ele>
        <time>2020-12-19T13:25:40.000Z</time>
      </trkpt>
      <trkpt lat="45.24378" lon="5.86268">
        <ele>213.02</ele>
        <time>2020-12-19T13:25:45.000Z</time>
      </trkpt>
      <trkpt lat="45.24394" lon="5.86296">
        <ele>212.27</ele>
        <time>2020-12-19T13:25:50.000Z</time>
      </trkpt>
      <trkpt lat="45.24412" lon="5.86323">
        <ele>213.82</ele>
        <time>2020-12-19T13:25:55.000Z</time>
      </trkpt>
      <trkpt lat="45.2443" lon="5.86356">
        <ele>218.51</ele>
        <time>2020-12-19T13:26:00.000Z</time>
      </trkpt>
      <trkpt lat="45.24444" lon="5.86384">
        <ele>220.12</ele>
        <time>2020-12-19T13:26:05.000Z</time>
      </trkpt>
      <trkpt lat="45.2446" lon="5.86408">
        <ele>220.96</ele>
        <time>2020-12-19T13:26:10.000Z</time>
      </trkpt>
      <trkpt lat="45.24477" lon="5.86432">
        <ele>218.75</ele>
        <time>2020-12-19T13:26:15.000Z</time>
      </trkpt>
      <trkpt lat="45.24492" lon="5.86458">
        <ele>221.97</ele>
        <time>2020-12-19T13:26:20.000Z</time>
      </trkpt>
      <trkpt lat="45.24514" lon="5.86472">
        <ele>222.93</ele>
        <time>2020-12-19T13:26:25.000Z</time>
      </trkpt>
      <trkpt lat="45.24533" lon="5.86482">
        <ele>229.22</ele>
        <time>2020-12-19T13:26:30.000Z</time>
      </trkpt>
      <trkpt lat="45.24547" lon="5.86505">
        <ele>229.16</ele>
        <time>2020-12-19T13:26:35.000Z</time>
      </trkpt>
      <trkpt lat="45.2456" lon="5.86534">
        <ele>228.58</ele>
        <time>2020-12-19T13:26:40.000Z</time>
      </trkpt>
      <trkpt lat="45.24568" lon="5.86564">
        <ele>230.48</ele>
        <time>2020-12-19T13:26:45.000Z</time>
      </trkpt>
      <trkpt lat="45.2458" lon="5.8659">
        <ele>233.04</ele>
        <time>2020-12-19T13:26:50.000Z</time>
      </trkpt>
      <trkpt lat="45.24595" lon="5.8662">
        <ele>231.48</ele>
        <time>2020-12-19T13:26:55.000Z</time>
      </trkpt>
      <trkpt lat="45.24605" lon="5.8665">
        <ele>225.42</ele>
        <time>2020-12-19T13:27:00.000Z</time>
      </trkpt>
      <trkpt lat="45.24623" lon="5.86677">
        <ele>224.65</ele>
        <time>2020-12-19T13:27:05.000Z</time>
      </trkpt>
      <trkpt lat="45.24635" lon="5.86707">
        <ele>222.7</ele>
        <time>2020-12-19T13:27:10.000Z</time>
      </trkpt>
      <trkpt lat="45.24649" lon="5.86734">
        <ele>219.92</ele>
        <time>2020-12-19T13:27:15.000Z</time>
      </trkpt>
      <trkpt lat="45.24662" lon="5.86764">
        <ele>220.72</ele>
        <time>2020-12-19T13:27:20.000Z</time>
      </trkpt>
      <trkpt lat="45.24674" lon="5.86795">
        <ele>224.25</ele>
        <time>2020-12-19T13:27:25.000Z</time>
      </trkpt>
      <trkpt lat="45.24684" lon="5.86826">
        <ele>224.52</ele>
        <time>2020-12-19T13:27:30.000Z</time>
      </trkpt>
      <trkpt lat="45.24698" lon="5.86858">
        <ele>223.65</ele>
        <time>2020-12-19T13:27:35.000Z</time>
      </trkpt>
      <trkpt lat="45.2471" lon="5.86888">
        <ele>224.19</ele>
        <time>2020-12-19T13:27:40.000Z</time>
      </trkpt>
      <trkpt lat="45.24726" lon="5.86915">
        <ele>223.47</ele>
        <time>2020-12-19T13:27:45.000Z</time>
      </trkpt>
      <trkpt lat="45.24735" lon="5.86938">
        <ele>219.66</ele>
        <time>2020-12-19T13:27:50.000Z</time>
      </trkpt>
      <trkpt lat="45.2475" lon="5.86979">
        <ele>219.21</ele>
        <time>2020-12-19T13:27:55.000Z</time>
      </trkpt>
      <trkpt lat="45.24764" lon="5.87012">
        <ele>219.86</ele>
        <time>2020-12-19T13:28:00.000Z</time>
      </trkpt>
      <trkpt lat="45.24778" lon="5.87044">
        <ele>219.39</ele>
        <time>2020-12-19T13:28:05.000Z</time>
      </trkpt>
      <trkpt lat="45.24795" lon="5.87071">
        <ele>223.85</ele>
        <time>2020-12-19T13:28:10.000Z</time>
      </trkpt>
      <trkpt lat="45.24809" lon="5.871">
        <ele>221.1</ele>
        <time>2020-12-19T13:28:15.000Z</time>
      </trkpt>
      <trkpt lat="45.24827" lon="5.87127">
        <ele>221.03</ele>
        <time>2020-12-19T13:28:20.000Z</time>
      </trkpt>
      <trkpt lat="45.24844" lon="5.87151">
        <ele>216.79</ele>
        <time>2020-12-19T13:28:25.000Z</time>
      </trkpt>
      <trkpt lat="45.24857" lon="5.8718">
        <ele>217.67</ele>
        <time>2020-12-19T13:28:30.000Z</time>
      </trkpt>
      <trkpt lat="45.24874" lon="5.87208">
        <ele>217.31</ele>
        <time>2020-12-19T13:28:35.000Z</time>
      </trkpt>
      <trkpt lat="45.2489" lon="5.87234">
        <ele>217.63</ele>
        <time>2020-12-19T13:28:40.000Z</time>
      </trkpt>
      <trkpt lat="45.24903" lon="5.87262">
        <ele>222.34</ele>
        <time>2020-12-19T13:28:45.000Z</time>
      </trkpt>
      <trkpt lat="45.24915" lon="5.87288">
        <ele>224.22</ele>
        <time>2020-12-19T13:28:50.000Z</time>
      </trkpt>
      <trkpt lat="45.24924" lon="5.87315">
        <ele>222.35</ele>
        <time>2020-12-19T13:28:55.000Z</time>
      </trkpt>
      <trkpt lat="45.24908" lon="5.87347">
        <ele>222.67</ele>
        <time>2020-12-19T13:29:00.000Z</time>
      </trkpt>
      <trkpt lat="45.24889" lon="5.87377">
        <ele>224.14</ele>
        <time>2020-12-19T13:29:05.000Z</time>
      </trkpt>
      <trkpt lat="45.24872" lon="5.87406">
        <ele>223.86</ele>
        <time>2020-12-19T13:29:10.000Z</time>
      </trkpt>
      <trkpt lat="45.24854" lon="5.87432">
        <ele>224.31</ele>
        <time>2020-12-19T13:29:15.000Z</time>
      </trkpt>
      <trkpt lat="45.24834" lon="5.8746">
        <ele>226.41</ele>
        <time>2020-12-19T13:29:20.000Z</time>
      </trkpt>
      <trkpt lat="45.24814" lon="5.87488">
        <ele>229.48</ele>
        <time>2020-12-19T13:29:25.000Z</time>
      </trkpt>
      <trkpt lat="45.24812" lon="5.87514">
        <ele>231.74</ele>
        <time>2020-12-19T13:29:30.000Z</time>
      </trkpt>
      <trkpt lat="45.24825" lon="5.87519">
        <ele>230</ele>
        <time>2020-12-19T13:29:35.000Z</time>
      </trkpt>
      <trkpt lat="45.24843" lon="5.87516">
        <ele>228.05</ele>
        <time>2020-12-19T13:29:40.000Z</time>
      </trkpt>
      <trkpt lat="45.24862" lon="5.87519">
        <ele>228.01</ele>
        <time>2020-12-19T13:29:45.000Z</time>
      </trkpt>
      <trkpt lat="45.24883" lon="5.87522">
        <ele>232.42</ele>
        <time>2020-12-19T13:29:50.000Z</time>
      </trkpt>
      <trkpt lat="45.24905" lon="5.87525">
        <ele>230.75</ele>
        <time>2020-12-19T13:29:55.000Z</time>
      </trkpt>
      <trkpt lat="45.24928" lon="5.87526">
        <ele>228.02</ele>
        <time>2020-12-19T13:30:00.000Z</time>
      </trkpt>
      <trkpt lat="45.24948" lon="5.87524">
        <ele>224.52</ele>
        <time>2020-12-19T13:30:05.000Z</time>
      </trkpt>
      <trkpt lat="45.24967" lon="5.87518">
        <ele>225.86</ele>
        <time>2020-12-19T13:30:10.000Z</time>
      </trkpt>
      <trkpt lat="45.24988" lon="5.87509">
        <ele>221.2</ele>
        <time>2020-12-19T13:30:15.000Z</time>
      </trkpt>
      <trkpt lat="45.25005" lon="5.87489">
        <ele>216.78</ele>
        <time>2020-12-19T13:30:20.000Z</time>
      </trkpt>
      <trkpt lat="45.25024" lon="5.87481">
        <ele>218.22</ele>
        <time>2020-12-19T13:30:25.000Z</time>
      </trkpt>
      <trkpt lat="45.25043" lon="5.87509">
        <ele>218.56</ele>
        <time>2020-12-19T13:30:30.000Z</time>
      </trkpt>
      <trkpt lat="45.25057" lon="5.87533">
        <ele>215.26</ele>
        <time>2020-12-19T13:30:35.000Z</time>
      </trkpt>
      <trkpt lat="45.25073" lon="5.87569">
        <ele>216.86</ele>
        <time>2020-12-19T13:30:40.000Z</time>
      </trkpt>
      <trkpt lat="45.25089" lon="5.87597">
        <ele>215.41</ele>
        <time>2020-12-19T13:30:45.000Z</time>
      </trkpt>
      <trkpt lat="45.25102" lon="5.87622">
        <ele>216.16</ele>
        <time>2020-12-19T13:30:50.000Z</time>
      </trkpt>
      <trkpt lat="45.25116" lon="5.87647">
        <ele>212.21</ele>
        <time>2020-12-19T13:30:55.000Z</time>
      </trkpt>
      <trkpt lat="45.25134" lon="5.87672">
        <ele>215.2</ele>
        <time>2020-12-19T13:31:00.000Z</time>
      </trkpt>
      <trkpt lat="45.25152" lon="5.87702">
        <ele>214.86</ele>
        <time>2020-12-19T13:31:05.000Z</time>
      </trkpt>
      <trkpt lat="45.25175" lon="5.87729">
        <ele>211.86</ele>
        <time>2020-12-19T13:31:10.000Z</time>
      </trkpt>
      <trkpt lat="45.2519" lon="5.87751">
        <ele>211.93</ele>
        <time>2020-12-19T13:31:15.000Z</time>
      </trkpt>
      <trkpt lat="45.25213" lon="5.87774">
        <ele>215.35</ele>
        <time>2020-12-19T13:31:20.000Z</time>
      </trkpt>
      <trkpt lat="45.25231" lon="5.87797">
        <ele>217.07</ele>
        <time>2020-12-19T13:31:25.000Z</time>
      </trkpt>
      <trkpt lat="45.25246" lon="5.87821">
        <ele>219.33</ele>
        <time>2020-12-19T13:31:30.000Z</time>
      </trkpt>
      <trkpt lat="45.25262" lon="5.87848">
        <ele>212.03</ele>
        <time>2020-12-19T13:31:35.000Z</time>
      </trkpt>
      <trkpt lat="45.2528" lon="5.8787">
        <ele>212.47</ele>
        <time>2020-12-19T13:31:40.000Z</time>
      </trkpt>
      <trkpt lat="45.25298" lon="5.87893">
        <ele>214.01</ele>
        <time>2020-12-19T13:31:45.000Z</time>
      </trkpt>
      <trkpt lat="45.25315" lon="5.87915">
        <ele>212.98</ele>
        <time>2020-12-19T13:31:50.000Z</time>
      </trkpt>
      <trkpt lat="45.25329" lon="5.87935">
        <ele>211.5</ele>
        <time>2020-12-19T13:31:55.000Z</time>
      </trkpt>
      <trkpt lat="45.25347" lon="5.8796">
        <ele>212.91</ele>
        <time>2020-12-19T13:32:00.000Z</time>
      </trkpt>
      <trkpt lat="45.25368" lon="5.87987">
        <ele>216.9</ele>
        <time>2020-12-19T13:32:05.000Z</time>
      </trkpt>
      <trkpt lat="45.25386" lon="5.88011">
        <ele>218.86</ele>
        <time>2020-12-19T13:32:10.000Z</time>
      </trkpt>
      <trkpt lat="45.25404" lon="5.88037">
        <ele>221.1</ele>
        <time>2020-12-19T13:32:15.000Z</time>
      </trkpt>
      <trkpt lat="45.25419" lon="5.88064">
        <ele>222.31</ele>
        <time>2020-12-19T13:32:20.000Z</time>
      </trkpt>
      <trkpt lat="45.2544" lon="5.88091">
        <ele>218.23</ele>
        <time>2020-12-19T13:32:25.000Z</time>
      </trkpt>
      <trkpt lat="45.25455" lon="5.88115">
        <ele>220.1</ele>
        <time>2020-12-19T13:32:30.000Z</time>
      </trkpt>
      <trkpt lat="45.25471" lon="5.88142">
        <ele>217.53</ele>
        <time>2020-12-19T13:32:35.000Z</time>
      </trkpt>
      <trkpt lat="45.25489" lon="5.88168">
        <ele>216.1</ele>
        <time>2020-12-19T13:32:40.000Z</time>
      </trkpt>
      <trkpt lat="45.25506" lon="5.88193">
        <ele>216.43</ele>
        <time>2020-12-19T13:32:45.000Z</time>
      </trkpt>
      <trkpt lat="45.25521" lon="5.88214">
        <ele>214.06</ele>
        <time>2020-12-19T13:32:50.000Z</time>
      </trkpt>
      <trkpt lat="45.25541" lon="5.88242">
        <ele>212.68</ele>
        <time>2020-12-19T13:32:55.000Z</time>
      </trkpt>
      <trkpt lat="45.25559" lon="5.88271">
        <ele>211.96</ele>
        <time>2020-12-19T13:33:00.000Z</time>
      </trkpt>
      <trkpt lat="45.25577" lon="5.88299">
        <ele>211.96</ele>
        <time>2020-12-19T13:33:05.000Z</time>
      </trkpt>
      <trkpt lat="45.2559" lon="5.88328">
        <ele>215.66</ele>
        <time>2020-12-19T13:33:10.000Z</time>
      </trkpt>
      <trkpt lat="45.25596" lon="5.88355">
        <ele>218.43</ele>
        <time>2020-12-19T13:33:15.000Z</time>
      </trkpt>
      <trkpt lat="45.25597" lon="5.88387">
        <ele>222.36</ele>
        <time>2020-12-19T13:33:20.000Z</time>
      </trkpt>
      <trkpt lat="45.25595" lon="5.88412">
        <ele>228</ele>
        <time>2020-12-19T13:33:25.000Z</time>
      </trkpt>
      <trkpt lat="45.25591" lon="5.88432">
        <ele>230.61</ele>
        <time>2020-12-19T13:33:30.000Z</time>
      </trkpt>
      <trkpt lat="45.25599" lon="5.88444">
        <ele>231.33</ele>
        <time>2020-12-19T13:33:38.000Z</time>
      </trkpt>
      <trkpt lat="45.2561" lon="5.88453">
        <ele>230.49</ele>
        <time>2020-12-19T13:33:43.000Z</time>
      </trkpt>
      <trkpt lat="45.25616" lon="5.88463">
        <ele>228.32</ele>
        <time>2020-12-19T13:33:48.000Z</time>
      </trkpt>
      <trkpt lat="45.25607" lon="5.88455">
        <ele>224.02</ele>
        <time>2020-12-19T13:34:04.000Z</time>
      </trkpt>
      <trkpt lat="45.25599" lon="5.88446">
        <ele>223.68</ele>
        <time>2020-12-19T13:34:09.000Z</time>
      </trkpt>
      <trkpt lat="45.25589" lon="5.88439">
        <ele>227.59</ele>
        <time>2020-12-19T13:34:14.000Z</time>
      </trkpt>
      <trkpt lat="45.25575" lon="5.88428">
        <ele>221.92</ele>
        <time>2020-12-19T13:34:19.000Z</time>
      </trkpt>
      <trkpt lat="45.25561" lon="5.88415">
        <ele>223.59</ele>
        <time>2020-12-19T13:34:24.000Z</time>
      </trkpt>
      <trkpt lat="45.25546" lon="5.88392">
        <ele>227.65</ele>
        <time>2020-12-19T13:34:29.000Z</time>
      </trkpt>
      <trkpt lat="45.25528" lon="5.88359">
        <ele>228.84</ele>
        <time>2020-12-19T13:34:34.000Z</time>
      </trkpt>
      <trkpt lat="45.25512" lon="5.88357">
        <ele>227.76</ele>
        <time>2020-12-19T13:34:39.000Z</time>
      </trkpt>
      <trkpt lat="45.25498" lon="5.88373">
        <ele>228.16</ele>
        <time>2020-12-19T13:34:44.000Z</time>
      </trkpt>
      <trkpt lat="45.25485" lon="5.88391">
        <ele>229.55</ele>
        <time>2020-12-19T13:34:49.000Z</time>
      </trkpt>
      <trkpt lat="45.25469" lon="5.88409">
        <ele>229.27</ele>
        <time>2020-12-19T13:34:54.000Z</time>
      </trkpt>
      <trkpt lat="45.25452" lon="5.88429">
        <ele>226.53</ele>
        <time>2020-12-19T13:34:59.000Z</time>
      </trkpt>
      <trkpt lat="45.25434" lon="5.88454">
        <ele>223.78</ele>
        <time>2020-12-19T13:35:04.000Z</time>
      </trkpt>
      <trkpt lat="45.25416" lon="5.88474">
        <ele>228.13</ele>
        <time>2020-12-19T13:35:09.000Z</time>
      </trkpt>
      <trkpt lat="45.25403" lon="5.88494">
        <ele>220.51</ele>
        <time>2020-12-19T13:35:14.000Z</time>
      </trkpt>
      <trkpt lat="45.25384" lon="5.88511">
        <ele>224.9</ele>
        <time>2020-12-19T13:35:19.000Z</time>
      </trkpt>
      <trkpt lat="45.25367" lon="5.88531">
        <ele>227.93</ele>
        <time>2020-12-19T13:35:24.000Z</time>
      </trkpt>
      <trkpt lat="45.25356" lon="5.88544">
        <ele>227.04</ele>
        <time>2020-12-19T13:35:29.000Z</time>
      </trkpt>
      <trkpt lat="45.25349" lon="5.88559">
        <ele>227.32</ele>
        <time>2020-12-19T13:35:34.000Z</time>
      </trkpt>
      <trkpt lat="45.25342" lon="5.88571">
        <ele>228.24</ele>
        <time>2020-12-19T13:35:39.000Z</time>
      </trkpt>
      <trkpt lat="45.25334" lon="5.88586">
        <ele>227.74</ele>
        <time>2020-12-19T13:35:44.000Z</time>
      </trkpt>
      <trkpt lat="45.25324" lon="5.88595">
        <ele>227.21</ele>
        <time>2020-12-19T13:35:49.000Z</time>
      </trkpt>
      <trkpt lat="45.2532" lon="5.88606">
        <ele>227.56</ele>
        <time>2020-12-19T13:35:55.000Z</time>
      </trkpt>
      <trkpt lat="45.25323" lon="5.88619">
        <ele>227.79</ele>
        <time>2020-12-19T13:36:01.000Z</time>
      </trkpt>
      <trkpt lat="45.2533" lon="5.88627">
        <ele>227.89</ele>
        <time>2020-12-19T13:36:06.000Z</time>
      </trkpt>
      <trkpt lat="45.25341" lon="5.88631">
        <ele>226.55</ele>
        <time>2020-12-19T13:36:11.000Z</time>
      </trkpt>
      <trkpt lat="45.25356" lon="5.88643">
        <ele>223.87</ele>
        <time>2020-12-19T13:36:16.000Z</time>
      </trkpt>
      <trkpt lat="45.25373" lon="5.88654">
        <ele>222.99</ele>
        <time>2020-12-19T13:36:21.000Z</time>
      </trkpt>
      <trkpt lat="45.25389" lon="5.88659">
        <ele>222.95</ele>
        <time>2020-12-19T13:36:26.000Z</time>
      </trkpt>
      <trkpt lat="45.25405" lon="5.88671">
        <ele>222.55</ele>
        <time>2020-12-19T13:36:31.000Z</time>
      </trkpt>
      <trkpt lat="45.25419" lon="5.8869">
        <ele>223.39</ele>
        <time>2020-12-19T13:36:36.000Z</time>
      </trkpt>
      <trkpt lat="45.25438" lon="5.88705">
        <ele>225.08</ele>
        <time>2020-12-19T13:36:41.000Z</time>
      </trkpt>
      <trkpt lat="45.25456" lon="5.88712">
        <ele>221.47</ele>
        <time>2020-12-19T13:36:46.000Z</time>
      </trkpt>
      <trkpt lat="45.25476" lon="5.88723">
        <ele>223.09</ele>
        <time>2020-12-19T13:36:51.000Z</time>
      </trkpt>
      <trkpt lat="45.25496" lon="5.88731">
        <ele>221.59</ele>
        <time>2020-12-19T13:36:56.000Z</time>
      </trkpt>
      <trkpt lat="45.25518" lon="5.88742">
        <ele>220.4</ele>
        <time>2020-12-19T13:37:01.000Z</time>
      </trkpt>
      <trkpt lat="45.25537" lon="5.88754">
        <ele>221.17</ele>
        <time>2020-12-19T13:37:06.000Z</time>
      </trkpt>
      <trkpt lat="45.25554" lon="5.88764">
        <ele>220.14</ele>
        <time>2020-12-19T13:37:11.000Z</time>
      </trkpt>
      <trkpt lat="45.25576" lon="5.88789">
        <ele>216.73</ele>
        <time>2020-12-19T13:37:16.000Z</time>
      </trkpt>
      <trkpt lat="45.25602" lon="5.88812">
        <ele>216.05</ele>
        <time>2020-12-19T13:37:21.000Z</time>
      </trkpt>
      <trkpt lat="45.25622" lon="5.8882">
        <ele>218.84</ele>
        <time>2020-12-19T13:37:26.000Z</time>
      </trkpt>
      <trkpt lat="45.25645" lon="5.88837">
        <ele>219.18</ele>
        <time>2020-12-19T13:37:31.000Z</time>
      </trkpt>
      <trkpt lat="45.25668" lon="5.88858">
        <ele>216.4</ele>
        <time>2020-12-19T13:37:36.000Z</time>
      </trkpt>
      <trkpt lat="45.25686" lon="5.88873">
        <ele>216.94</ele>
        <time>2020-12-19T13:37:41.000Z</time>
      </trkpt>
      <trkpt lat="45.25715" lon="5.88891">
        <ele>218.29</ele>
        <time>2020-12-19T13:37:46.000Z</time>
      </trkpt>
      <trkpt lat="45.25738" lon="5.88897">
        <ele>217.48</ele>
        <time>2020-12-19T13:37:51.000Z</time>
      </trkpt>
      <trkpt lat="45.25757" lon="5.88909">
        <ele>216.57</ele>
        <time>2020-12-19T13:37:56.000Z</time>
      </trkpt>
      <trkpt lat="45.25785" lon="5.88927">
        <ele>208.23</ele>
        <time>2020-12-19T13:38:01.000Z</time>
      </trkpt>
      <trkpt lat="45.25806" lon="5.88943">
        <ele>206.3</ele>
        <time>2020-12-19T13:38:06.000Z</time>
      </trkpt>
      <trkpt lat="45.25825" lon="5.8896">
        <ele>208.4</ele>
        <time>2020-12-19T13:38:11.000Z</time>
      </trkpt>
      <trkpt lat="45.25846" lon="5.88977">
        <ele>209.58</ele>
        <time>2020-12-19T13:38:16.000Z</time>
      </trkpt>
      <trkpt lat="45.25873" lon="5.88997">
        <ele>211.2</ele>
        <time>2020-12-19T13:38:21.000Z</time>
      </trkpt>
      <trkpt lat="45.25898" lon="5.89023">
        <ele>215.31</ele>
        <time>2020-12-19T13:38:26.000Z</time>
      </trkpt>
      <trkpt lat="45.25919" lon="5.89051">
        <ele>215.81</ele>
        <time>2020-12-19T13:38:31.000Z</time>
      </trkpt>
      <trkpt lat="45.25942" lon="5.89074">
        <ele>215.35</ele>
        <time>2020-12-19T13:38:36.000Z</time>
      </trkpt>
      <trkpt lat="45.25962" lon="5.89097">
        <ele>217.66</ele>
        <time>2020-12-19T13:38:41.000Z</time>
      </trkpt>
      <trkpt lat="45.25981" lon="5.89118">
        <ele>218.7</ele>
        <time>2020-12-19T13:38:46.000Z</time>
      </trkpt>
      <trkpt lat="45.25998" lon="5.89135">
        <ele>219.99</ele>
        <time>2020-12-19T13:38:51.000Z</time>
      </trkpt>
      <trkpt lat="45.26019" lon="5.8916">
        <ele>219.07</ele>
        <time>2020-12-19T13:38:56.000Z</time>
      </trkpt>
      <trkpt lat="45.2604" lon="5.89182">
        <ele>219.57</ele>
        <time>2020-12-19T13:39:01.000Z</time>
      </trkpt>
      <trkpt lat="45.26064" lon="5.89202">
        <ele>222.01</ele>
        <time>2020-12-19T13:39:06.000Z</time>
      </trkpt>
      <trkpt lat="45.26084" lon="5.89225">
        <ele>220.05</ele>
        <time>2020-12-19T13:39:11.000Z</time>
      </trkpt>
      <trkpt lat="45.26103" lon="5.89242">
        <ele>223.33</ele>
        <time>2020-12-19T13:39:16.000Z</time>
      </trkpt>
      <trkpt lat="45.26123" lon="5.89258">
        <ele>223.24</ele>
        <time>2020-12-19T13:39:21.000Z</time>
      </trkpt>
      <trkpt lat="45.2614" lon="5.89273">
        <ele>223.04</ele>
        <time>2020-12-19T13:39:26.000Z</time>
      </trkpt>
      <trkpt lat="45.26158" lon="5.89298">
        <ele>221.07</ele>
        <time>2020-12-19T13:39:31.000Z</time>
      </trkpt>
      <trkpt lat="45.26177" lon="5.89327">
        <ele>222.28</ele>
        <time>2020-12-19T13:39:36.000Z</time>
      </trkpt>
      <trkpt lat="45.26193" lon="5.89353">
        <ele>221.94</ele>
        <time>2020-12-19T13:39:41.000Z</time>
      </trkpt>
      <trkpt lat="45.26215" lon="5.89382">
        <ele>220.65</ele>
        <time>2020-12-19T13:39:46.000Z</time>
      </trkpt>
      <trkpt lat="45.26233" lon="5.89406">
        <ele>221.61</ele>
        <time>2020-12-19T13:39:51.000Z</time>
      </trkpt>
      <trkpt lat="45.26254" lon="5.89434">
        <ele>224.34</ele>
        <time>2020-12-19T13:39:56.000Z</time>
      </trkpt>
      <trkpt lat="45.26268" lon="5.89457">
        <ele>224.71</ele>
        <time>2020-12-19T13:40:01.000Z</time>
      </trkpt>
      <trkpt lat="45.26283" lon="5.89481">
        <ele>225.97</ele>
        <time>2020-12-19T13:40:06.000Z</time>
      </trkpt>
      <trkpt lat="45.26297" lon="5.89509">
        <ele>225.68</ele>
        <time>2020-12-19T13:40:11.000Z</time>
      </trkpt>
      <trkpt lat="45.26317" lon="5.89541">
        <ele>224.73</ele>
        <time>2020-12-19T13:40:16.000Z</time>
      </trkpt>
      <trkpt lat="45.26334" lon="5.89566">
        <ele>224.84</ele>
        <time>2020-12-19T13:40:21.000Z</time>
      </trkpt>
      <trkpt lat="45.26352" lon="5.89593">
        <ele>225.17</ele>
        <time>2020-12-19T13:40:26.000Z</time>
      </trkpt>
      <trkpt lat="45.26368" lon="5.89622">
        <ele>221.92</ele>
        <time>2020-12-19T13:40:31.000Z</time>
      </trkpt>
      <trkpt lat="45.26388" lon="5.89649">
        <ele>221.42</ele>
        <time>2020-12-19T13:40:36.000Z</time>
      </trkpt>
      <trkpt lat="45.26408" lon="5.89676">
        <ele>222.24</ele>
        <time>2020-12-19T13:40:41.000Z</time>
      </trkpt>
      <trkpt lat="45.26425" lon="5.89706">
        <ele>221.01</ele>
        <time>2020-12-19T13:40:46.000Z</time>
      </trkpt>
      <trkpt lat="45.26443" lon="5.89731">
        <ele>217.85</ele>
        <time>2020-12-19T13:40:51.000Z</time>
      </trkpt>
      <trkpt lat="45.26458" lon="5.89756">
        <ele>217.77</ele>
        <time>2020-12-19T13:40:56.000Z</time>
      </trkpt>
      <trkpt lat="45.26475" lon="5.89776">
        <ele>215.79</ele>
        <time>2020-12-19T13:41:01.000Z</time>
      </trkpt>
      <trkpt lat="45.2649" lon="5.89798">
        <ele>212.47</ele>
        <time>2020-12-19T13:41:06.000Z</time>
      </trkpt>
      <trkpt lat="45.26511" lon="5.89828">
        <ele>213.49</ele>
        <time>2020-12-19T13:41:11.000Z</time>
      </trkpt>
      <trkpt lat="45.26527" lon="5.89854">
        <ele>214.86</ele>
        <time>2020-12-19T13:41:16.000Z</time>
      </trkpt>
      <trkpt lat="45.26536" lon="5.89863">
        <ele>218.03</ele>
        <time>2020-12-19T13:41:21.000Z</time>
      </trkpt>
      <trkpt lat="45.26544" lon="5.89871">
        <ele>222.85</ele>
        <time>2020-12-19T13:41:28.000Z</time>
      </trkpt>
      <trkpt lat="45.26553" lon="5.89872">
        <ele>237.28</ele>
        <time>2020-12-19T13:42:19.000Z</time>
      </trkpt>
      <trkpt lat="45.26546" lon="5.89885">
        <ele>237.22</ele>
        <time>2020-12-19T13:43:53.000Z</time>
      </trkpt>
      <trkpt lat="45.26531" lon="5.89904">
        <ele>235.71</ele>
        <time>2020-12-19T13:43:58.000Z</time>
      </trkpt>
      <trkpt lat="45.26513" lon="5.89933">
        <ele>235.84</ele>
        <time>2020-12-19T13:44:03.000Z</time>
      </trkpt>
      <trkpt lat="45.26497" lon="5.89958">
        <ele>236.17</ele>
        <time>2020-12-19T13:44:08.000Z</time>
      </trkpt>
      <trkpt lat="45.26478" lon="5.89982">
        <ele>239.35</ele>
        <time>2020-12-19T13:44:13.000Z</time>
      </trkpt>
      <trkpt lat="45.26456" lon="5.89993">
        <ele>236.98</ele>
        <time>2020-12-19T13:44:18.000Z</time>
      </trkpt>
      <trkpt lat="45.26432" lon="5.89997">
        <ele>232.83</ele>
        <time>2020-12-19T13:44:23.000Z</time>
      </trkpt>
      <trkpt lat="45.26421" lon="5.90029">
        <ele>231.75</ele>
        <time>2020-12-19T13:44:28.000Z</time>
      </trkpt>
      <trkpt lat="45.26407" lon="5.9006">
        <ele>233.1</ele>
        <time>2020-12-19T13:44:33.000Z</time>
      </trkpt>
      <trkpt lat="45.26389" lon="5.90084">
        <ele>231</ele>
        <time>2020-12-19T13:44:38.000Z</time>
      </trkpt>
      <trkpt lat="45.26369" lon="5.90107">
        <ele>233.67</ele>
        <time>2020-12-19T13:44:43.000Z</time>
      </trkpt>
      <trkpt lat="45.26347" lon="5.90128">
        <ele>232.27</ele>
        <time>2020-12-19T13:44:48.000Z</time>
      </trkpt>
      <trkpt lat="45.26329" lon="5.90148">
        <ele>234.08</ele>
        <time>2020-12-19T13:44:53.000Z</time>
      </trkpt>
      <trkpt lat="45.26308" lon="5.90171">
        <ele>232.8</ele>
        <time>2020-12-19T13:44:58.000Z</time>
      </trkpt>
      <trkpt lat="45.26286" lon="5.90196">
        <ele>230.56</ele>
        <time>2020-12-19T13:45:03.000Z</time>
      </trkpt>
      <trkpt lat="45.26258" lon="5.90223">
        <ele>232.76</ele>
        <time>2020-12-19T13:45:08.000Z</time>
      </trkpt>
      <trkpt lat="45.26249" lon="5.90244">
        <ele>229.02</ele>
        <time>2020-12-19T13:45:13.000Z</time>
      </trkpt>
      <trkpt lat="45.26227" lon="5.90269">
        <ele>228.61</ele>
        <time>2020-12-19T13:45:18.000Z</time>
      </trkpt>
      <trkpt lat="45.26204" lon="5.90291">
        <ele>229.25</ele>
        <time>2020-12-19T13:45:23.000Z</time>
      </trkpt>
      <trkpt lat="45.26184" lon="5.90313">
        <ele>230.46</ele>
        <time>2020-12-19T13:45:28.000Z</time>
      </trkpt>
      <trkpt lat="45.26164" lon="5.90341">
        <ele>234.6</ele>
        <time>2020-12-19T13:45:33.000Z</time>
      </trkpt>
      <trkpt lat="45.26143" lon="5.90364">
        <ele>232.91</ele>
        <time>2020-12-19T13:45:38.000Z</time>
      </trkpt>
      <trkpt lat="45.26128" lon="5.90385">
        <ele>234.93</ele>
        <time>2020-12-19T13:45:43.000Z</time>
      </trkpt>
      <trkpt lat="45.261" lon="5.90408">
        <ele>237.76</ele>
        <time>2020-12-19T13:45:48.000Z</time>
      </trkpt>
      <trkpt lat="45.26088" lon="5.90428">
        <ele>236.3</ele>
        <time>2020-12-19T13:45:53.000Z</time>
      </trkpt>
      <trkpt lat="45.26064" lon="5.90453">
        <ele>234.53</ele>
        <time>2020-12-19T13:45:58.000Z</time>
      </trkpt>
      <trkpt lat="45.26048" lon="5.90464">
        <ele>238.06</ele>
        <time>2020-12-19T13:46:03.000Z</time>
      </trkpt>
      <trkpt lat="45.26031" lon="5.90492">
        <ele>238.91</ele>
        <time>2020-12-19T13:46:08.000Z</time>
      </trkpt>
      <trkpt lat="45.2601" lon="5.90512">
        <ele>240.79</ele>
        <time>2020-12-19T13:46:13.000Z</time>
      </trkpt>
      <trkpt lat="45.25995" lon="5.9053">
        <ele>238.75</ele>
        <time>2020-12-19T13:46:18.000Z</time>
      </trkpt>
      <trkpt lat="45.25971" lon="5.9055">
        <ele>237.55</ele>
        <time>2020-12-19T13:46:23.000Z</time>
      </trkpt>
      <trkpt lat="45.2596" lon="5.90569">
        <ele>239.2</ele>
        <time>2020-12-19T13:46:28.000Z</time>
      </trkpt>
      <trkpt lat="45.25946" lon="5.90587">
        <ele>239.37</ele>
        <time>2020-12-19T13:46:33.000Z</time>
      </trkpt>
      <trkpt lat="45.25926" lon="5.90611">
        <ele>236.47</ele>
        <time>2020-12-19T13:46:38.000Z</time>
      </trkpt>
      <trkpt lat="45.25908" lon="5.90633">
        <ele>237.43</ele>
        <time>2020-12-19T13:46:43.000Z</time>
      </trkpt>
      <trkpt lat="45.25889" lon="5.90653">
        <ele>238.84</ele>
        <time>2020-12-19T13:46:48.000Z</time>
      </trkpt>
      <trkpt lat="45.25873" lon="5.90671">
        <ele>237.5</ele>
        <time>2020-12-19T13:46:53.000Z</time>
      </trkpt>
      <trkpt lat="45.25862" lon="5.90698">
        <ele>242.59</ele>
        <time>2020-12-19T13:46:58.000Z</time>
      </trkpt>
      <trkpt lat="45.25856" lon="5.90727">
        <ele>241.33</ele>
        <time>2020-12-19T13:47:03.000Z</time>
      </trkpt>
      <trkpt lat="45.25852" lon="5.90756">
        <ele>243.11</ele>
        <time>2020-12-19T13:47:08.000Z</time>
      </trkpt>
      <trkpt lat="45.25844" lon="5.90783">
        <ele>246.05</ele>
        <time>2020-12-19T13:47:13.000Z</time>
      </trkpt>
      <trkpt lat="45.2584" lon="5.90815">
        <ele>244.68</ele>
        <time>2020-12-19T13:47:18.000Z</time>
      </trkpt>
      <trkpt lat="45.25841" lon="5.90846">
        <ele>246.86</ele>
        <time>2020-12-19T13:47:23.000Z</time>
      </trkpt>
      <trkpt lat="45.2584" lon="5.9088">
        <ele>250.17</ele>
        <time>2020-12-19T13:47:28.000Z</time>
      </trkpt>
      <trkpt lat="45.25834" lon="5.9091">
        <ele>249.05</ele>
        <time>2020-12-19T13:47:33.000Z</time>
      </trkpt>
      <trkpt lat="45.2583" lon="5.90941">
        <ele>247.55</ele>
        <time>2020-12-19T13:47:38.000Z</time>
      </trkpt>
      <trkpt lat="45.25826" lon="5.90972">
        <ele>248.72</ele>
        <time>2020-12-19T13:47:43.000Z</time>
      </trkpt>
      <trkpt lat="45.25822" lon="5.91">
        <ele>249.81</ele>
        <time>2020-12-19T13:47:48.000Z</time>
      </trkpt>
      <trkpt lat="45.25828" lon="5.9103">
        <ele>248.96</ele>
        <time>2020-12-19T13:47:53.000Z</time>
      </trkpt>
      <trkpt lat="45.25839" lon="5.91053">
        <ele>248.79</ele>
        <time>2020-12-19T13:47:58.000Z</time>
      </trkpt>
      <trkpt lat="45.25847" lon="5.91071">
        <ele>248.69</ele>
        <time>2020-12-19T13:48:03.000Z</time>
      </trkpt>
      <trkpt lat="45.25858" lon="5.91089">
        <ele>251.85</ele>
        <time>2020-12-19T13:48:08.000Z</time>
      </trkpt>
      <trkpt lat="45.25868" lon="5.91108">
        <ele>251.63</ele>
        <time>2020-12-19T13:48:13.000Z</time>
      </trkpt>
      <trkpt lat="45.25877" lon="5.91127">
        <ele>252.49</ele>
        <time>2020-12-19T13:48:18.000Z</time>
      </trkpt>
      <trkpt lat="45.25885" lon="5.91147">
        <ele>251.71</ele>
        <time>2020-12-19T13:48:23.000Z</time>
      </trkpt>
      <trkpt lat="45.25895" lon="5.91167">
        <ele>251.35</ele>
        <time>2020-12-19T13:48:28.000Z</time>
      </trkpt>
      <trkpt lat="45.25905" lon="5.91185">
        <ele>252.65</ele>
        <time>2020-12-19T13:48:33.000Z</time>
      </trkpt>
      <trkpt lat="45.25919" lon="5.91209">
        <ele>250.42</ele>
        <time>2020-12-19T13:48:38.000Z</time>
      </trkpt>
      <trkpt lat="45.2593" lon="5.9122">
        <ele>252.92</ele>
        <time>2020-12-19T13:48:43.000Z</time>
      </trkpt>
      <trkpt lat="45.25946" lon="5.91234">
        <ele>257.24</ele>
        <time>2020-12-19T13:48:48.000Z</time>
      </trkpt>
      <trkpt lat="45.25958" lon="5.91246">
        <ele>260.53</ele>
        <time>2020-12-19T13:48:53.000Z</time>
      </trkpt>
      <trkpt lat="45.25971" lon="5.91259">
        <ele>261.35</ele>
        <time>2020-12-19T13:48:58.000Z</time>
      </trkpt>
      <trkpt lat="45.25983" lon="5.91276">
        <ele>262.2</ele>
        <time>2020-12-19T13:49:03.000Z</time>
      </trkpt>
      <trkpt lat="45.25995" lon="5.91298">
        <ele>261.14</ele>
        <time>2020-12-19T13:49:08.000Z</time>
      </trkpt>
      <trkpt lat="45.26005" lon="5.91322">
        <ele>261.74</ele>
        <time>2020-12-19T13:49:13.000Z</time>
      </trkpt>
      <trkpt lat="45.26018" lon="5.9134">
        <ele>263.67</ele>
        <time>2020-12-19T13:49:18.000Z</time>
      </trkpt>
      <trkpt lat="45.26029" lon="5.91358">
        <ele>262.73</ele>
        <time>2020-12-19T13:49:23.000Z</time>
      </trkpt>
      <trkpt lat="45.26039" lon="5.91376">
        <ele>263.74</ele>
        <time>2020-12-19T13:49:28.000Z</time>
      </trkpt>
      <trkpt lat="45.26048" lon="5.91393">
        <ele>262.88</ele>
        <time>2020-12-19T13:49:33.000Z</time>
      </trkpt>
      <trkpt lat="45.26061" lon="5.91407">
        <ele>261.87</ele>
        <time>2020-12-19T13:49:38.000Z</time>
      </trkpt>
      <trkpt lat="45.26075" lon="5.91421">
        <ele>263.89</ele>
        <time>2020-12-19T13:49:43.000Z</time>
      </trkpt>
      <trkpt lat="45.26087" lon="5.91444">
        <ele>263.78</ele>
        <time>2020-12-19T13:49:48.000Z</time>
      </trkpt>
      <trkpt lat="45.26098" lon="5.91467">
        <ele>268.55</ele>
        <time>2020-12-19T13:49:53.000Z</time>
      </trkpt>
      <trkpt lat="45.26107" lon="5.91484">
        <ele>269.05</ele>
        <time>2020-12-19T13:49:58.000Z</time>
      </trkpt>
      <trkpt lat="45.26122" lon="5.91501">
        <ele>272.76</ele>
        <time>2020-12-19T13:50:03.000Z</time>
      </trkpt>
      <trkpt lat="45.26136" lon="5.91515">
        <ele>274.99</ele>
        <time>2020-12-19T13:50:08.000Z</time>
      </trkpt>
      <trkpt lat="45.26147" lon="5.91532">
        <ele>275.86</ele>
        <time>2020-12-19T13:50:13.000Z</time>
      </trkpt>
      <trkpt lat="45.26159" lon="5.91551">
        <ele>274.79</ele>
        <time>2020-12-19T13:50:18.000Z</time>
      </trkpt>
      <trkpt lat="45.26172" lon="5.91568">
        <ele>278.09</ele>
        <time>2020-12-19T13:50:23.000Z</time>
      </trkpt>
      <trkpt lat="45.26184" lon="5.91583">
        <ele>281.02</ele>
        <time>2020-12-19T13:50:28.000Z</time>
      </trkpt>
      <trkpt lat="45.26196" lon="5.91598">
        <ele>284.34</ele>
        <time>2020-12-19T13:50:33.000Z</time>
      </trkpt>
      <trkpt lat="45.26204" lon="5.91613">
        <ele>285.33</ele>
        <time>2020-12-19T13:50:38.000Z</time>
      </trkpt>
      <trkpt lat="45.26216" lon="5.9163">
        <ele>288.02</ele>
        <time>2020-12-19T13:50:43.000Z</time>
      </trkpt>
      <trkpt lat="45.26227" lon="5.91649">
        <ele>289.2</ele>
        <time>2020-12-19T13:50:48.000Z</time>
      </trkpt>
      <trkpt lat="45.26242" lon="5.91667">
        <ele>291.4</ele>
        <time>2020-12-19T13:50:53.000Z</time>
      </trkpt>
      <trkpt lat="45.26256" lon="5.91681">
        <ele>293.63</ele>
        <time>2020-12-19T13:50:58.000Z</time>
      </trkpt>
      <trkpt lat="45.26271" lon="5.91694">
        <ele>297.24</ele>
        <time>2020-12-19T13:51:03.000Z</time>
      </trkpt>
      <trkpt lat="45.26284" lon="5.91707">
        <ele>298.78</ele>
        <time>2020-12-19T13:51:08.000Z</time>
      </trkpt>
      <trkpt lat="45.26295" lon="5.91722">
        <ele>299.34</ele>
        <time>2020-12-19T13:51:13.000Z</time>
      </trkpt>
      <trkpt lat="45.26307" lon="5.91741">
        <ele>300</ele>
        <time>2020-12-19T13:51:18.000Z</time>
      </trkpt>
      <trkpt lat="45.2632" lon="5.91757">
        <ele>299.36</ele>
        <time>2020-12-19T13:51:23.000Z</time>
      </trkpt>
      <trkpt lat="45.26334" lon="5.9176">
        <ele>300.71</ele>
        <time>2020-12-19T13:51:28.000Z</time>
      </trkpt>
      <trkpt lat="45.2635" lon="5.91769">
        <ele>301.04</ele>
        <time>2020-12-19T13:51:33.000Z</time>
      </trkpt>
      <trkpt lat="45.26358" lon="5.91794">
        <ele>305.13</ele>
        <time>2020-12-19T13:51:38.000Z</time>
      </trkpt>
      <trkpt lat="45.26354" lon="5.91816">
        <ele>309.81</ele>
        <time>2020-12-19T13:51:43.000Z</time>
      </trkpt>
      <trkpt lat="45.26353" lon="5.91839">
        <ele>309.17</ele>
        <time>2020-12-19T13:51:48.000Z</time>
      </trkpt>
      <trkpt lat="45.26361" lon="5.91862">
        <ele>311.52</ele>
        <time>2020-12-19T13:51:53.000Z</time>
      </trkpt>
      <trkpt lat="45.26373" lon="5.91879">
        <ele>312.69</ele>
        <time>2020-12-19T13:51:58.000Z</time>
      </trkpt>
      <trkpt lat="45.26388" lon="5.91894">
        <ele>313.65</ele>
        <time>2020-12-19T13:52:03.000Z</time>
      </trkpt>
      <trkpt lat="45.26402" lon="5.91908">
        <ele>313.4</ele>
        <time>2020-12-19T13:52:08.000Z</time>
      </trkpt>
      <trkpt lat="45.26417" lon="5.91918">
        <ele>316.42</ele>
        <time>2020-12-19T13:52:13.000Z</time>
      </trkpt>
      <trkpt lat="45.26429" lon="5.91933">
        <ele>316.57</ele>
        <time>2020-12-19T13:52:18.000Z</time>
      </trkpt>
      <trkpt lat="45.26442" lon="5.91951">
        <ele>318.83</ele>
        <time>2020-12-19T13:52:23.000Z</time>
      </trkpt>
      <trkpt lat="45.26455" lon="5.91968">
        <ele>320.68</ele>
        <time>2020-12-19T13:52:28.000Z</time>
      </trkpt>
      <trkpt lat="45.26466" lon="5.91986">
        <ele>321.05</ele>
        <time>2020-12-19T13:52:33.000Z</time>
      </trkpt>
      <trkpt lat="45.26478" lon="5.92004">
        <ele>324.38</ele>
        <time>2020-12-19T13:52:38.000Z</time>
      </trkpt>
      <trkpt lat="45.26487" lon="5.92018">
        <ele>326.7</ele>
        <time>2020-12-19T13:52:43.000Z</time>
      </trkpt>
      <trkpt lat="45.26501" lon="5.92035">
        <ele>324.98</ele>
        <time>2020-12-19T13:52:48.000Z</time>
      </trkpt>
      <trkpt lat="45.26513" lon="5.92052">
        <ele>325.26</ele>
        <time>2020-12-19T13:52:53.000Z</time>
      </trkpt>
      <trkpt lat="45.26527" lon="5.92067">
        <ele>327.64</ele>
        <time>2020-12-19T13:52:58.000Z</time>
      </trkpt>
      <trkpt lat="45.26539" lon="5.92081">
        <ele>331.35</ele>
        <time>2020-12-19T13:53:03.000Z</time>
      </trkpt>
      <trkpt lat="45.26549" lon="5.921">
        <ele>326.84</ele>
        <time>2020-12-19T13:53:08.000Z</time>
      </trkpt>
      <trkpt lat="45.26559" lon="5.9212">
        <ele>324.3</ele>
        <time>2020-12-19T13:53:13.000Z</time>
      </trkpt>
      <trkpt lat="45.26569" lon="5.92142">
        <ele>325.54</ele>
        <time>2020-12-19T13:53:18.000Z</time>
      </trkpt>
      <trkpt lat="45.26576" lon="5.92163">
        <ele>326.11</ele>
        <time>2020-12-19T13:53:23.000Z</time>
      </trkpt>
      <trkpt lat="45.26582" lon="5.92186">
        <ele>329.3</ele>
        <time>2020-12-19T13:53:28.000Z</time>
      </trkpt>
      <trkpt lat="45.26588" lon="5.92205">
        <ele>329.88</ele>
        <time>2020-12-19T13:53:33.000Z</time>
      </trkpt>
      <trkpt lat="45.26594" lon="5.92227">
        <ele>329.74</ele>
        <time>2020-12-19T13:53:38.000Z</time>
      </trkpt>
      <trkpt lat="45.26605" lon="5.92245">
        <ele>332.27</ele>
        <time>2020-12-19T13:53:43.000Z</time>
      </trkpt>
      <trkpt lat="45.26621" lon="5.92262">
        <ele>335.93</ele>
        <time>2020-12-19T13:53:48.000Z</time>
      </trkpt>
      <trkpt lat="45.26638" lon="5.92276">
        <ele>340.72</ele>
        <time>2020-12-19T13:53:53.000Z</time>
      </trkpt>
      <trkpt lat="45.26657" lon="5.92288">
        <ele>344.11</ele>
        <time>2020-12-19T13:53:58.000Z</time>
      </trkpt>
      <trkpt lat="45.2667" lon="5.92307">
        <ele>345.57</ele>
        <time>2020-12-19T13:54:03.000Z</time>
      </trkpt>
      <trkpt lat="45.26667" lon="5.92329">
        <ele>347.89</ele>
        <time>2020-12-19T13:54:08.000Z</time>
      </trkpt>
      <trkpt lat="45.26646" lon="5.9232">
        <ele>349.75</ele>
        <time>2020-12-19T13:54:13.000Z</time>
      </trkpt>
      <trkpt lat="45.26635" lon="5.92305">
        <ele>353.67</ele>
        <time>2020-12-19T13:54:18.000Z</time>
      </trkpt>
      <trkpt lat="45.26622" lon="5.92294">
        <ele>355.11</ele>
        <time>2020-12-19T13:54:23.000Z</time>
      </trkpt>
      <trkpt lat="45.26608" lon="5.92279">
        <ele>358.45</ele>
        <time>2020-12-19T13:54:28.000Z</time>
      </trkpt>
      <trkpt lat="45.26596" lon="5.92267">
        <ele>360.53</ele>
        <time>2020-12-19T13:54:33.000Z</time>
      </trkpt>
      <trkpt lat="45.2658" lon="5.92256">
        <ele>359.86</ele>
        <time>2020-12-19T13:54:38.000Z</time>
      </trkpt>
      <trkpt lat="45.26566" lon="5.92245">
        <ele>361.99</ele>
        <time>2020-12-19T13:54:43.000Z</time>
      </trkpt>
      <trkpt lat="45.26552" lon="5.92232">
        <ele>363.31</ele>
        <time>2020-12-19T13:54:48.000Z</time>
      </trkpt>
      <trkpt lat="45.26537" lon="5.92218">
        <ele>366.39</ele>
        <time>2020-12-19T13:54:53.000Z</time>
      </trkpt>
      <trkpt lat="45.26522" lon="5.92203">
        <ele>369.2</ele>
        <time>2020-12-19T13:54:58.000Z</time>
      </trkpt>
      <trkpt lat="45.26505" lon="5.92192">
        <ele>369.39</ele>
        <time>2020-12-19T13:55:03.000Z</time>
      </trkpt>
      <trkpt lat="45.26488" lon="5.92182">
        <ele>371.56</ele>
        <time>2020-12-19T13:55:08.000Z</time>
      </trkpt>
      <trkpt lat="45.26471" lon="5.92173">
        <ele>373.21</ele>
        <time>2020-12-19T13:55:13.000Z</time>
      </trkpt>
      <trkpt lat="45.26454" lon="5.92165">
        <ele>374.02</ele>
        <time>2020-12-19T13:55:18.000Z</time>
      </trkpt>
      <trkpt lat="45.26439" lon="5.92153">
        <ele>375.97</ele>
        <time>2020-12-19T13:55:23.000Z</time>
      </trkpt>
      <trkpt lat="45.26423" lon="5.9214">
        <ele>378.72</ele>
        <time>2020-12-19T13:55:28.000Z</time>
      </trkpt>
      <trkpt lat="45.26408" lon="5.92129">
        <ele>380.66</ele>
        <time>2020-12-19T13:55:33.000Z</time>
      </trkpt>
      <trkpt lat="45.26394" lon="5.92116">
        <ele>383.02</ele>
        <time>2020-12-19T13:55:38.000Z</time>
      </trkpt>
      <trkpt lat="45.26377" lon="5.92104">
        <ele>385</ele>
        <time>2020-12-19T13:55:43.000Z</time>
      </trkpt>
      <trkpt lat="45.26361" lon="5.92093">
        <ele>388.16</ele>
        <time>2020-12-19T13:55:48.000Z</time>
      </trkpt>
      <trkpt lat="45.26343" lon="5.92085">
        <ele>390.3</ele>
        <time>2020-12-19T13:55:53.000Z</time>
      </trkpt>
      <trkpt lat="45.26327" lon="5.92081">
        <ele>388.45</ele>
        <time>2020-12-19T13:55:58.000Z</time>
      </trkpt>
      <trkpt lat="45.26312" lon="5.92079">
        <ele>386.71</ele>
        <time>2020-12-19T13:56:03.000Z</time>
      </trkpt>
      <trkpt lat="45.26301" lon="5.92075">
        <ele>384.46</ele>
        <time>2020-12-19T13:56:08.000Z</time>
      </trkpt>
      <trkpt lat="45.26287" lon="5.92072">
        <ele>385.8</ele>
        <time>2020-12-19T13:56:13.000Z</time>
      </trkpt>
      <trkpt lat="45.26269" lon="5.92066">
        <ele>386.87</ele>
        <time>2020-12-19T13:56:18.000Z</time>
      </trkpt>
      <trkpt lat="45.26252" lon="5.92056">
        <ele>386.29</ele>
        <time>2020-12-19T13:56:23.000Z</time>
      </trkpt>
      <trkpt lat="45.26237" lon="5.9204">
        <ele>387.89</ele>
        <time>2020-12-19T13:56:28.000Z</time>
      </trkpt>
      <trkpt lat="45.26224" lon="5.92018">
        <ele>392.31</ele>
        <time>2020-12-19T13:56:33.000Z</time>
      </trkpt>
      <trkpt lat="45.26211" lon="5.92003">
        <ele>393.08</ele>
        <time>2020-12-19T13:56:38.000Z</time>
      </trkpt>
      <trkpt lat="45.26197" lon="5.91985">
        <ele>392.08</ele>
        <time>2020-12-19T13:56:43.000Z</time>
      </trkpt>
      <trkpt lat="45.26183" lon="5.91969">
        <ele>394.54</ele>
        <time>2020-12-19T13:56:48.000Z</time>
      </trkpt>
      <trkpt lat="45.26166" lon="5.91949">
        <ele>398.26</ele>
        <time>2020-12-19T13:56:53.000Z</time>
      </trkpt>
      <trkpt lat="45.26151" lon="5.9193">
        <ele>398.06</ele>
        <time>2020-12-19T13:56:58.000Z</time>
      </trkpt>
      <trkpt lat="45.26134" lon="5.91914">
        <ele>404.05</ele>
        <time>2020-12-19T13:57:03.000Z</time>
      </trkpt>
      <trkpt lat="45.26116" lon="5.91905">
        <ele>407.72</ele>
        <time>2020-12-19T13:57:08.000Z</time>
      </trkpt>
      <trkpt lat="45.26101" lon="5.91899">
        <ele>407.84</ele>
        <time>2020-12-19T13:57:13.000Z</time>
      </trkpt>
      <trkpt lat="45.26085" lon="5.91893">
        <ele>408.76</ele>
        <time>2020-12-19T13:57:18.000Z</time>
      </trkpt>
      <trkpt lat="45.26067" lon="5.91886">
        <ele>414.47</ele>
        <time>2020-12-19T13:57:23.000Z</time>
      </trkpt>
      <trkpt lat="45.26048" lon="5.9188">
        <ele>413.04</ele>
        <time>2020-12-19T13:57:28.000Z</time>
      </trkpt>
      <trkpt lat="45.26029" lon="5.91876">
        <ele>415.56</ele>
        <time>2020-12-19T13:57:33.000Z</time>
      </trkpt>
      <trkpt lat="45.26015" lon="5.91873">
        <ele>415.36</ele>
        <time>2020-12-19T13:57:38.000Z</time>
      </trkpt>
      <trkpt lat="45.26002" lon="5.91872">
        <ele>413.01</ele>
        <time>2020-12-19T13:57:43.000Z</time>
      </trkpt>
      <trkpt lat="45.25985" lon="5.9187">
        <ele>415.59</ele>
        <time>2020-12-19T13:57:48.000Z</time>
      </trkpt>
      <trkpt lat="45.25969" lon="5.91867">
        <ele>419.54</ele>
        <time>2020-12-19T13:57:53.000Z</time>
      </trkpt>
      <trkpt lat="45.2595" lon="5.9186">
        <ele>418.12</ele>
        <time>2020-12-19T13:57:58.000Z</time>
      </trkpt>
      <trkpt lat="45.25935" lon="5.91852">
        <ele>420.46</ele>
        <time>2020-12-19T13:58:03.000Z</time>
      </trkpt>
      <trkpt lat="45.25923" lon="5.91843">
        <ele>418.58</ele>
        <time>2020-12-19T13:58:08.000Z</time>
      </trkpt>
      <trkpt lat="45.25907" lon="5.91833">
        <ele>419.57</ele>
        <time>2020-12-19T13:58:13.000Z</time>
      </trkpt>
      <trkpt lat="45.25894" lon="5.91824">
        <ele>420.4</ele>
        <time>2020-12-19T13:58:18.000Z</time>
      </trkpt>
      <trkpt lat="45.25879" lon="5.91805">
        <ele>420.61</ele>
        <time>2020-12-19T13:58:23.000Z</time>
      </trkpt>
      <trkpt lat="45.25864" lon="5.91791">
        <ele>421.1</ele>
        <time>2020-12-19T13:58:28.000Z</time>
      </trkpt>
      <trkpt lat="45.25848" lon="5.91778">
        <ele>424.96</ele>
        <time>2020-12-19T13:58:33.000Z</time>
      </trkpt>
      <trkpt lat="45.25835" lon="5.91765">
        <ele>426.82</ele>
        <time>2020-12-19T13:58:38.000Z</time>
      </trkpt>
      <trkpt lat="45.2582" lon="5.9175">
        <ele>430.77</ele>
        <time>2020-12-19T13:58:43.000Z</time>
      </trkpt>
      <trkpt lat="45.25809" lon="5.91735">
        <ele>430.31</ele>
        <time>2020-12-19T13:58:48.000Z</time>
      </trkpt>
      <trkpt lat="45.25794" lon="5.91719">
        <ele>428.81</ele>
        <time>2020-12-19T13:58:53.000Z</time>
      </trkpt>
      <trkpt lat="45.25782" lon="5.91702">
        <ele>434.69</ele>
        <time>2020-12-19T13:58:58.000Z</time>
      </trkpt>
      <trkpt lat="45.25771" lon="5.91687">
        <ele>439.84</ele>
        <time>2020-12-19T13:59:03.000Z</time>
      </trkpt>
      <trkpt lat="45.25758" lon="5.91674">
        <ele>439.88</ele>
        <time>2020-12-19T13:59:08.000Z</time>
      </trkpt>
      <trkpt lat="45.25742" lon="5.91661">
        <ele>437.48</ele>
        <time>2020-12-19T13:59:13.000Z</time>
      </trkpt>
      <trkpt lat="45.25726" lon="5.9165">
        <ele>437.5</ele>
        <time>2020-12-19T13:59:18.000Z</time>
      </trkpt>
      <trkpt lat="45.25712" lon="5.91634">
        <ele>438.41</ele>
        <time>2020-12-19T13:59:23.000Z</time>
      </trkpt>
      <trkpt lat="45.25701" lon="5.9162">
        <ele>441.91</ele>
        <time>2020-12-19T13:59:28.000Z</time>
      </trkpt>
      <trkpt lat="45.25687" lon="5.91605">
        <ele>445.98</ele>
        <time>2020-12-19T13:59:33.000Z</time>
      </trkpt>
      <trkpt lat="45.2567" lon="5.9159">
        <ele>445.29</ele>
        <time>2020-12-19T13:59:38.000Z</time>
      </trkpt>
      <trkpt lat="45.25653" lon="5.91576">
        <ele>444.8</ele>
        <time>2020-12-19T13:59:43.000Z</time>
      </trkpt>
      <trkpt lat="45.25635" lon="5.91569">
        <ele>444.16</ele>
        <time>2020-12-19T13:59:48.000Z</time>
      </trkpt>
      <trkpt lat="45.25617" lon="5.91558">
        <ele>446.79</ele>
        <time>2020-12-19T13:59:53.000Z</time>
      </trkpt>
      <trkpt lat="45.25601" lon="5.91551">
        <ele>446.04</ele>
        <time>2020-12-19T13:59:58.000Z</time>
      </trkpt>
      <trkpt lat="45.25584" lon="5.91547">
        <ele>448.21</ele>
        <time>2020-12-19T14:00:03.000Z</time>
      </trkpt>
      <trkpt lat="45.25567" lon="5.91547">
        <ele>449.78</ele>
        <time>2020-12-19T14:00:08.000Z</time>
      </trkpt>
      <trkpt lat="45.25549" lon="5.91542">
        <ele>452.55</ele>
        <time>2020-12-19T14:00:13.000Z</time>
      </trkpt>
      <trkpt lat="45.25531" lon="5.91537">
        <ele>452.66</ele>
        <time>2020-12-19T14:00:18.000Z</time>
      </trkpt>
      <trkpt lat="45.25512" lon="5.9153">
        <ele>458.52</ele>
        <time>2020-12-19T14:00:23.000Z</time>
      </trkpt>
      <trkpt lat="45.25495" lon="5.91523">
        <ele>460.89</ele>
        <time>2020-12-19T14:00:28.000Z</time>
      </trkpt>
      <trkpt lat="45.25477" lon="5.91517">
        <ele>464.07</ele>
        <time>2020-12-19T14:00:33.000Z</time>
      </trkpt>
      <trkpt lat="45.25461" lon="5.9152">
        <ele>466.39</ele>
        <time>2020-12-19T14:00:38.000Z</time>
      </trkpt>
      <trkpt lat="45.25446" lon="5.91531">
        <ele>467.89</ele>
        <time>2020-12-19T14:00:43.000Z</time>
      </trkpt>
      <trkpt lat="45.25436" lon="5.91546">
        <ele>467.63</ele>
        <time>2020-12-19T14:00:48.000Z</time>
      </trkpt>
      <trkpt lat="45.25429" lon="5.91558">
        <ele>466.43</ele>
        <time>2020-12-19T14:00:53.000Z</time>
      </trkpt>
      <trkpt lat="45.25422" lon="5.91574">
        <ele>471.87</ele>
        <time>2020-12-19T14:03:05.000Z</time>
      </trkpt>
      <trkpt lat="45.25412" lon="5.91599">
        <ele>475.4</ele>
        <time>2020-12-19T14:03:10.000Z</time>
      </trkpt>
      <trkpt lat="45.25402" lon="5.91621">
        <ele>477.49</ele>
        <time>2020-12-19T14:03:15.000Z</time>
      </trkpt>
      <trkpt lat="45.25391" lon="5.91642">
        <ele>476.31</ele>
        <time>2020-12-19T14:03:20.000Z</time>
      </trkpt>
      <trkpt lat="45.25381" lon="5.91663">
        <ele>473.41</ele>
        <time>2020-12-19T14:03:25.000Z</time>
      </trkpt>
      <trkpt lat="45.2537" lon="5.91684">
        <ele>474.78</ele>
        <time>2020-12-19T14:03:30.000Z</time>
      </trkpt>
      <trkpt lat="45.2536" lon="5.91704">
        <ele>476.64</ele>
        <time>2020-12-19T14:03:35.000Z</time>
      </trkpt>
      <trkpt lat="45.25353" lon="5.91725">
        <ele>477.28</ele>
        <time>2020-12-19T14:03:40.000Z</time>
      </trkpt>
      <trkpt lat="45.25347" lon="5.91744">
        <ele>479.47</ele>
        <time>2020-12-19T14:03:45.000Z</time>
      </trkpt>
      <trkpt lat="45.25344" lon="5.91766">
        <ele>479.76</ele>
        <time>2020-12-19T14:03:50.000Z</time>
      </trkpt>
      <trkpt lat="45.25337" lon="5.91789">
        <ele>483.19</ele>
        <time>2020-12-19T14:03:55.000Z</time>
      </trkpt>
      <trkpt lat="45.25326" lon="5.91809">
        <ele>484.7</ele>
        <time>2020-12-19T14:04:00.000Z</time>
      </trkpt>
      <trkpt lat="45.25315" lon="5.91827">
        <ele>487.12</ele>
        <time>2020-12-19T14:04:05.000Z</time>
      </trkpt>
      <trkpt lat="45.25309" lon="5.91847">
        <ele>486.51</ele>
        <time>2020-12-19T14:04:10.000Z</time>
      </trkpt>
      <trkpt lat="45.25304" lon="5.91865">
        <ele>485.25</ele>
        <time>2020-12-19T14:04:15.000Z</time>
      </trkpt>
      <trkpt lat="45.25301" lon="5.91891">
        <ele>486.28</ele>
        <time>2020-12-19T14:04:20.000Z</time>
      </trkpt>
      <trkpt lat="45.25295" lon="5.91915">
        <ele>486.55</ele>
        <time>2020-12-19T14:04:25.000Z</time>
      </trkpt>
      <trkpt lat="45.25285" lon="5.91938">
        <ele>489.06</ele>
        <time>2020-12-19T14:04:30.000Z</time>
      </trkpt>
      <trkpt lat="45.25276" lon="5.91964">
        <ele>491.56</ele>
        <time>2020-12-19T14:04:35.000Z</time>
      </trkpt>
      <trkpt lat="45.25268" lon="5.91988">
        <ele>493.12</ele>
        <time>2020-12-19T14:04:40.000Z</time>
      </trkpt>
      <trkpt lat="45.2526" lon="5.92009">
        <ele>493.73</ele>
        <time>2020-12-19T14:04:45.000Z</time>
      </trkpt>
      <trkpt lat="45.25254" lon="5.92032">
        <ele>493.42</ele>
        <time>2020-12-19T14:04:50.000Z</time>
      </trkpt>
      <trkpt lat="45.25247" lon="5.92057">
        <ele>497.73</ele>
        <time>2020-12-19T14:04:55.000Z</time>
      </trkpt>
      <trkpt lat="45.25243" lon="5.9208">
        <ele>498.33</ele>
        <time>2020-12-19T14:05:00.000Z</time>
      </trkpt>
      <trkpt lat="45.25238" lon="5.92102">
        <ele>503.28</ele>
        <time>2020-12-19T14:05:05.000Z</time>
      </trkpt>
      <trkpt lat="45.25232" lon="5.92125">
        <ele>506.24</ele>
        <time>2020-12-19T14:05:10.000Z</time>
      </trkpt>
      <trkpt lat="45.2523" lon="5.92152">
        <ele>509.92</ele>
        <time>2020-12-19T14:05:15.000Z</time>
      </trkpt>
      <trkpt lat="45.25232" lon="5.92176">
        <ele>511.38</ele>
        <time>2020-12-19T14:05:20.000Z</time>
      </trkpt>
      <trkpt lat="45.25236" lon="5.92199">
        <ele>514.2</ele>
        <time>2020-12-19T14:05:25.000Z</time>
      </trkpt>
      <trkpt lat="45.25241" lon="5.92221">
        <ele>516.96</ele>
        <time>2020-12-19T14:05:30.000Z</time>
      </trkpt>
      <trkpt lat="45.25243" lon="5.92245">
        <ele>514.04</ele>
        <time>2020-12-19T14:05:35.000Z</time>
      </trkpt>
      <trkpt lat="45.25248" lon="5.9227">
        <ele>515.31</ele>
        <time>2020-12-19T14:05:40.000Z</time>
      </trkpt>
      <trkpt lat="45.25251" lon="5.92295">
        <ele>516.79</ele>
        <time>2020-12-19T14:05:45.000Z</time>
      </trkpt>
      <trkpt lat="45.25253" lon="5.92319">
        <ele>516.69</ele>
        <time>2020-12-19T14:05:50.000Z</time>
      </trkpt>
      <trkpt lat="45.25256" lon="5.92343">
        <ele>520.06</ele>
        <time>2020-12-19T14:05:55.000Z</time>
      </trkpt>
      <trkpt lat="45.25259" lon="5.92367">
        <ele>525.48</ele>
        <time>2020-12-19T14:06:00.000Z</time>
      </trkpt>
      <trkpt lat="45.25262" lon="5.92391">
        <ele>526.51</ele>
        <time>2020-12-19T14:06:05.000Z</time>
      </trkpt>
      <trkpt lat="45.25268" lon="5.92414">
        <ele>527.94</ele>
        <time>2020-12-19T14:06:10.000Z</time>
      </trkpt>
      <trkpt lat="45.25271" lon="5.92441">
        <ele>530.37</ele>
        <time>2020-12-19T14:06:15.000Z</time>
      </trkpt>
      <trkpt lat="45.25271" lon="5.92466">
        <ele>529.72</ele>
        <time>2020-12-19T14:06:20.000Z</time>
      </trkpt>
      <trkpt lat="45.25267" lon="5.92487">
        <ele>530.24</ele>
        <time>2020-12-19T14:06:25.000Z</time>
      </trkpt>
      <trkpt lat="45.25258" lon="5.9251">
        <ele>531.65</ele>
        <time>2020-12-19T14:06:30.000Z</time>
      </trkpt>
      <trkpt lat="45.25252" lon="5.9253">
        <ele>530.71</ele>
        <time>2020-12-19T14:06:35.000Z</time>
      </trkpt>
      <trkpt lat="45.25248" lon="5.92554">
        <ele>531.76</ele>
        <time>2020-12-19T14:06:40.000Z</time>
      </trkpt>
      <trkpt lat="45.25244" lon="5.92577">
        <ele>535.95</ele>
        <time>2020-12-19T14:06:45.000Z</time>
      </trkpt>
      <trkpt lat="45.25236" lon="5.92598">
        <ele>538.98</ele>
        <time>2020-12-19T14:06:50.000Z</time>
      </trkpt>
      <trkpt lat="45.25225" lon="5.92617">
        <ele>539.83</ele>
        <time>2020-12-19T14:06:55.000Z</time>
      </trkpt>
      <trkpt lat="45.25211" lon="5.92633">
        <ele>539.65</ele>
        <time>2020-12-19T14:07:00.000Z</time>
      </trkpt>
      <trkpt lat="45.25198" lon="5.92649">
        <ele>539.12</ele>
        <time>2020-12-19T14:07:05.000Z</time>
      </trkpt>
      <trkpt lat="45.25185" lon="5.92656">
        <ele>536.99</ele>
        <time>2020-12-19T14:07:10.000Z</time>
      </trkpt>
      <trkpt lat="45.2517" lon="5.92663">
        <ele>539.67</ele>
        <time>2020-12-19T14:07:15.000Z</time>
      </trkpt>
      <trkpt lat="45.25157" lon="5.92672">
        <ele>542.06</ele>
        <time>2020-12-19T14:07:20.000Z</time>
      </trkpt>
      <trkpt lat="45.25142" lon="5.92686">
        <ele>542.06</ele>
        <time>2020-12-19T14:07:25.000Z</time>
      </trkpt>
      <trkpt lat="45.25128" lon="5.92705">
        <ele>545.78</ele>
        <time>2020-12-19T14:07:30.000Z</time>
      </trkpt>
      <trkpt lat="45.25117" lon="5.92728">
        <ele>546.6</ele>
        <time>2020-12-19T14:07:35.000Z</time>
      </trkpt>
      <trkpt lat="45.2511" lon="5.92753">
        <ele>549.1</ele>
        <time>2020-12-19T14:07:40.000Z</time>
      </trkpt>
      <trkpt lat="45.25106" lon="5.92778">
        <ele>553.37</ele>
        <time>2020-12-19T14:07:45.000Z</time>
      </trkpt>
      <trkpt lat="45.25106" lon="5.92801">
        <ele>557.21</ele>
        <time>2020-12-19T14:07:50.000Z</time>
      </trkpt>
      <trkpt lat="45.25108" lon="5.92824">
        <ele>558.33</ele>
        <time>2020-12-19T14:07:55.000Z</time>
      </trkpt>
      <trkpt lat="45.25111" lon="5.92848">
        <ele>558.58</ele>
        <time>2020-12-19T14:08:00.000Z</time>
      </trkpt>
      <trkpt lat="45.25117" lon="5.92872">
        <ele>563.67</ele>
        <time>2020-12-19T14:08:05.000Z</time>
      </trkpt>
      <trkpt lat="45.25123" lon="5.92895">
        <ele>565.55</ele>
        <time>2020-12-19T14:08:10.000Z</time>
      </trkpt>
      <trkpt lat="45.25131" lon="5.92914">
        <ele>567.8</ele>
        <time>2020-12-19T14:08:15.000Z</time>
      </trkpt>
      <trkpt lat="45.25142" lon="5.92931">
        <ele>570.08</ele>
        <time>2020-12-19T14:08:20.000Z</time>
      </trkpt>
      <trkpt lat="45.25157" lon="5.92946">
        <ele>572.25</ele>
        <time>2020-12-19T14:08:25.000Z</time>
      </trkpt>
      <trkpt lat="45.25169" lon="5.92962">
        <ele>573.19</ele>
        <time>2020-12-19T14:08:30.000Z</time>
      </trkpt>
      <trkpt lat="45.25181" lon="5.92978">
        <ele>578.18</ele>
        <time>2020-12-19T14:08:35.000Z</time>
      </trkpt>
      <trkpt lat="45.25194" lon="5.92994">
        <ele>580.83</ele>
        <time>2020-12-19T14:08:40.000Z</time>
      </trkpt>
      <trkpt lat="45.25208" lon="5.9301">
        <ele>580.17</ele>
        <time>2020-12-19T14:08:45.000Z</time>
      </trkpt>
      <trkpt lat="45.2522" lon="5.93027">
        <ele>581.4</ele>
        <time>2020-12-19T14:08:50.000Z</time>
      </trkpt>
      <trkpt lat="45.25231" lon="5.93046">
        <ele>580.15</ele>
        <time>2020-12-19T14:08:55.000Z</time>
      </trkpt>
      <trkpt lat="45.25239" lon="5.93066">
        <ele>582.4</ele>
        <time>2020-12-19T14:09:00.000Z</time>
      </trkpt>
      <trkpt lat="45.25244" lon="5.93088">
        <ele>581.59</ele>
        <time>2020-12-19T14:09:05.000Z</time>
      </trkpt>
      <trkpt lat="45.25246" lon="5.9311">
        <ele>580.15</ele>
        <time>2020-12-19T14:09:10.000Z</time>
      </trkpt>
      <trkpt lat="45.25248" lon="5.93134">
        <ele>583.47</ele>
        <time>2020-12-19T14:09:15.000Z</time>
      </trkpt>
      <trkpt lat="45.2525" lon="5.93161">
        <ele>585.17</ele>
        <time>2020-12-19T14:09:20.000Z</time>
      </trkpt>
      <trkpt lat="45.2525" lon="5.93186">
        <ele>588.02</ele>
        <time>2020-12-19T14:09:25.000Z</time>
      </trkpt>
      <trkpt lat="45.25249" lon="5.93209">
        <ele>588.64</ele>
        <time>2020-12-19T14:09:30.000Z</time>
      </trkpt>
      <trkpt lat="45.25247" lon="5.93231">
        <ele>589.16</ele>
        <time>2020-12-19T14:09:35.000Z</time>
      </trkpt>
      <trkpt lat="45.25255" lon="5.93253">
        <ele>592.06</ele>
        <time>2020-12-19T14:09:40.000Z</time>
      </trkpt>
      <trkpt lat="45.25257" lon="5.93278">
        <ele>592.65</ele>
        <time>2020-12-19T14:09:45.000Z</time>
      </trkpt>
      <trkpt lat="45.25257" lon="5.93304">
        <ele>594.41</ele>
        <time>2020-12-19T14:09:50.000Z</time>
      </trkpt>
      <trkpt lat="45.25258" lon="5.93329">
        <ele>595.76</ele>
        <time>2020-12-19T14:09:55.000Z</time>
      </trkpt>
      <trkpt lat="45.25258" lon="5.93353">
        <ele>597.69</ele>
        <time>2020-12-19T14:10:00.000Z</time>
      </trkpt>
      <trkpt lat="45.25258" lon="5.93377">
        <ele>602.89</ele>
        <time>2020-12-19T14:10:05.000Z</time>
      </trkpt>
      <trkpt lat="45.25258" lon="5.93401">
        <ele>603.64</ele>
        <time>2020-12-19T14:10:10.000Z</time>
      </trkpt>
      <trkpt lat="45.25259" lon="5.93424">
        <ele>607.33</ele>
        <time>2020-12-19T14:10:15.000Z</time>
      </trkpt>
      <trkpt lat="45.25261" lon="5.93446">
        <ele>610.08</ele>
        <time>2020-12-19T14:10:20.000Z</time>
      </trkpt>
      <trkpt lat="45.25266" lon="5.93465">
        <ele>611.11</ele>
        <time>2020-12-19T14:10:25.000Z</time>
      </trkpt>
      <trkpt lat="45.25266" lon="5.93484">
        <ele>607.55</ele>
        <time>2020-12-19T14:11:13.000Z</time>
      </trkpt>
      <trkpt lat="45.2526" lon="5.93516">
        <ele>607.35</ele>
        <time>2020-12-19T14:11:18.000Z</time>
      </trkpt>
      <trkpt lat="45.2525" lon="5.93554">
        <ele>600.18</ele>
        <time>2020-12-19T14:11:23.000Z</time>
      </trkpt>
      <trkpt lat="45.25236" lon="5.93599">
        <ele>598.26</ele>
        <time>2020-12-19T14:11:28.000Z</time>
      </trkpt>
      <trkpt lat="45.25223" lon="5.93637">
        <ele>593.63</ele>
        <time>2020-12-19T14:11:33.000Z</time>
      </trkpt>
      <trkpt lat="45.2521" lon="5.93673">
        <ele>593.14</ele>
        <time>2020-12-19T14:11:38.000Z</time>
      </trkpt>
      <trkpt lat="45.25175" lon="5.93689">
        <ele>590.07</ele>
        <time>2020-12-19T14:11:43.000Z</time>
      </trkpt>
      <trkpt lat="45.25154" lon="5.93692">
        <ele>589.11</ele>
        <time>2020-12-19T14:11:48.000Z</time>
      </trkpt>
      <trkpt lat="45.25137" lon="5.93691">
        <ele>593.71</ele>
        <time>2020-12-19T14:11:53.000Z</time>
      </trkpt>
      <trkpt lat="45.2512" lon="5.93688">
        <ele>595.53</ele>
        <time>2020-12-19T14:11:58.000Z</time>
      </trkpt>
      <trkpt lat="45.25104" lon="5.93679">
        <ele>594.12</ele>
        <time>2020-12-19T14:12:03.000Z</time>
      </trkpt>
      <trkpt lat="45.25092" lon="5.93661">
        <ele>592.66</ele>
        <time>2020-12-19T14:12:08.000Z</time>
      </trkpt>
      <trkpt lat="45.25087" lon="5.93638">
        <ele>595.07</ele>
        <time>2020-12-19T14:12:13.000Z</time>
      </trkpt>
      <trkpt lat="45.25077" lon="5.93619">
        <ele>598.05</ele>
        <time>2020-12-19T14:12:18.000Z</time>
      </trkpt>
      <trkpt lat="45.25062" lon="5.93606">
        <ele>600.17</ele>
        <time>2020-12-19T14:12:23.000Z</time>
      </trkpt>
      <trkpt lat="45.25048" lon="5.93591">
        <ele>603.62</ele>
        <time>2020-12-19T14:12:28.000Z</time>
      </trkpt>
      <trkpt lat="45.25044" lon="5.93565">
        <ele>609.38</ele>
        <time>2020-12-19T14:12:33.000Z</time>
      </trkpt>
      <trkpt lat="45.25033" lon="5.93546">
        <ele>610.18</ele>
        <time>2020-12-19T14:12:38.000Z</time>
      </trkpt>
      <trkpt lat="45.25019" lon="5.93536">
        <ele>608.33</ele>
        <time>2020-12-19T14:12:43.000Z</time>
      </trkpt>
      <trkpt lat="45.25008" lon="5.93519">
        <ele>609.34</ele>
        <time>2020-12-19T14:12:48.000Z</time>
      </trkpt>
      <trkpt lat="45.24998" lon="5.935">
        <ele>611.47</ele>
        <time>2020-12-19T14:12:53.000Z</time>
      </trkpt>
      <trkpt lat="45.24994" lon="5.93481">
        <ele>615.02</ele>
        <time>2020-12-19T14:12:58.000Z</time>
      </trkpt>
      <trkpt lat="45.24996" lon="5.9346">
        <ele>614.33</ele>
        <time>2020-12-19T14:13:03.000Z</time>
      </trkpt>
      <trkpt lat="45.24997" lon="5.93436">
        <ele>615.15</ele>
        <time>2020-12-19T14:13:08.000Z</time>
      </trkpt>
      <trkpt lat="45.24993" lon="5.93412">
        <ele>615.67</ele>
        <time>2020-12-19T14:13:13.000Z</time>
      </trkpt>
      <trkpt lat="45.24984" lon="5.9339">
        <ele>614.93</ele>
        <time>2020-12-19T14:13:18.000Z</time>
      </trkpt>
      <trkpt lat="45.24972" lon="5.93373">
        <ele>616.61</ele>
        <time>2020-12-19T14:13:23.000Z</time>
      </trkpt>
      <trkpt lat="45.24957" lon="5.93365">
        <ele>621.63</ele>
        <time>2020-12-19T14:13:28.000Z</time>
      </trkpt>
      <trkpt lat="45.24942" lon="5.93374">
        <ele>622.72</ele>
        <time>2020-12-19T14:13:33.000Z</time>
      </trkpt>
      <trkpt lat="45.24926" lon="5.93386">
        <ele>624.98</ele>
        <time>2020-12-19T14:13:38.000Z</time>
      </trkpt>
      <trkpt lat="45.24913" lon="5.93391">
        <ele>622.81</ele>
        <time>2020-12-19T14:13:43.000Z</time>
      </trkpt>
      <trkpt lat="45.24896" lon="5.9339">
        <ele>623.56</ele>
        <time>2020-12-19T14:13:48.000Z</time>
      </trkpt>
      <trkpt lat="45.2488" lon="5.93391">
        <ele>623.93</ele>
        <time>2020-12-19T14:13:53.000Z</time>
      </trkpt>
      <trkpt lat="45.24862" lon="5.93389">
        <ele>622.77</ele>
        <time>2020-12-19T14:13:58.000Z</time>
      </trkpt>
      <trkpt lat="45.2486" lon="5.93372">
        <ele>625.95</ele>
        <time>2020-12-19T14:14:03.000Z</time>
      </trkpt>
      <trkpt lat="45.24861" lon="5.93359">
        <ele>633.1</ele>
        <time>2020-12-19T14:14:55.000Z</time>
      </trkpt>
      <trkpt lat="45.24863" lon="5.93337">
        <ele>634.15</ele>
        <time>2020-12-19T14:15:00.000Z</time>
      </trkpt>
      <trkpt lat="45.24861" lon="5.93314">
        <ele>628.85</ele>
        <time>2020-12-19T14:15:05.000Z</time>
      </trkpt>
      <trkpt lat="45.24861" lon="5.93291">
        <ele>633.61</ele>
        <time>2020-12-19T14:15:10.000Z</time>
      </trkpt>
      <trkpt lat="45.2485" lon="5.93269">
        <ele>632.48</ele>
        <time>2020-12-19T14:15:15.000Z</time>
      </trkpt>
      <trkpt lat="45.24846" lon="5.93243">
        <ele>634.91</ele>
        <time>2020-12-19T14:15:20.000Z</time>
      </trkpt>
      <trkpt lat="45.24842" lon="5.93223">
        <ele>635.45</ele>
        <time>2020-12-19T14:15:25.000Z</time>
      </trkpt>
      <trkpt lat="45.24834" lon="5.93205">
        <ele>638.9</ele>
        <time>2020-12-19T14:15:30.000Z</time>
      </trkpt>
      <trkpt lat="45.24822" lon="5.93186">
        <ele>643.32</ele>
        <time>2020-12-19T14:15:35.000Z</time>
      </trkpt>
      <trkpt lat="45.24811" lon="5.93165">
        <ele>643.22</ele>
        <time>2020-12-19T14:15:40.000Z</time>
      </trkpt>
      <trkpt lat="45.24803" lon="5.93141">
        <ele>643.13</ele>
        <time>2020-12-19T14:15:45.000Z</time>
      </trkpt>
      <trkpt lat="45.24797" lon="5.93117">
        <ele>644.5</ele>
        <time>2020-12-19T14:15:50.000Z</time>
      </trkpt>
      <trkpt lat="45.24787" lon="5.93096">
        <ele>644.16</ele>
        <time>2020-12-19T14:15:55.000Z</time>
      </trkpt>
      <trkpt lat="45.24774" lon="5.93102">
        <ele>645.53</ele>
        <time>2020-12-19T14:16:00.000Z</time>
      </trkpt>
      <trkpt lat="45.24774" lon="5.93124">
        <ele>649.64</ele>
        <time>2020-12-19T14:16:05.000Z</time>
      </trkpt>
      <trkpt lat="45.24781" lon="5.93141">
        <ele>651.7</ele>
        <time>2020-12-19T14:16:10.000Z</time>
      </trkpt>
      <trkpt lat="45.24785" lon="5.93165">
        <ele>653.93</ele>
        <time>2020-12-19T14:16:15.000Z</time>
      </trkpt>
      <trkpt lat="45.24786" lon="5.93199">
        <ele>654.87</ele>
        <time>2020-12-19T14:16:20.000Z</time>
      </trkpt>
      <trkpt lat="45.24785" lon="5.93225">
        <ele>655.7</ele>
        <time>2020-12-19T14:16:25.000Z</time>
      </trkpt>
      <trkpt lat="45.24782" lon="5.93252">
        <ele>653.04</ele>
        <time>2020-12-19T14:16:30.000Z</time>
      </trkpt>
      <trkpt lat="45.24778" lon="5.93274">
        <ele>654.75</ele>
        <time>2020-12-19T14:16:35.000Z</time>
      </trkpt>
      <trkpt lat="45.24774" lon="5.933">
        <ele>653.26</ele>
        <time>2020-12-19T14:16:40.000Z</time>
      </trkpt>
      <trkpt lat="45.24772" lon="5.9333">
        <ele>652.45</ele>
        <time>2020-12-19T14:16:45.000Z</time>
      </trkpt>
      <trkpt lat="45.24764" lon="5.93353">
        <ele>657.58</ele>
        <time>2020-12-19T14:16:50.000Z</time>
      </trkpt>
      <trkpt lat="45.24756" lon="5.93376">
        <ele>656.97</ele>
        <time>2020-12-19T14:16:55.000Z</time>
      </trkpt>
      <trkpt lat="45.24743" lon="5.93394">
        <ele>657.66</ele>
        <time>2020-12-19T14:17:00.000Z</time>
      </trkpt>
      <trkpt lat="45.24734" lon="5.93417">
        <ele>659.39</ele>
        <time>2020-12-19T14:17:05.000Z</time>
      </trkpt>
      <trkpt lat="45.24726" lon="5.93439">
        <ele>665.18</ele>
        <time>2020-12-19T14:17:10.000Z</time>
      </trkpt>
      <trkpt lat="45.24722" lon="5.93459">
        <ele>665.91</ele>
        <time>2020-12-19T14:17:15.000Z</time>
      </trkpt>
      <trkpt lat="45.24732" lon="5.93477">
        <ele>669.54</ele>
        <time>2020-12-19T14:17:20.000Z</time>
      </trkpt>
      <trkpt lat="45.24751" lon="5.93481">
        <ele>679.99</ele>
        <time>2020-12-19T14:17:25.000Z</time>
      </trkpt>
      <trkpt lat="45.24772" lon="5.93486">
        <ele>682.76</ele>
        <time>2020-12-19T14:17:30.000Z</time>
      </trkpt>
      <trkpt lat="45.24783" lon="5.93505">
        <ele>686.14</ele>
        <time>2020-12-19T14:17:35.000Z</time>
      </trkpt>
      <trkpt lat="45.24785" lon="5.9353">
        <ele>686.91</ele>
        <time>2020-12-19T14:17:40.000Z</time>
      </trkpt>
      <trkpt lat="45.24785" lon="5.93548">
        <ele>693.04</ele>
        <time>2020-12-19T14:17:45.000Z</time>
      </trkpt>
      <trkpt lat="45.24785" lon="5.93568">
        <ele>694.27</ele>
        <time>2020-12-19T14:17:50.000Z</time>
      </trkpt>
      <trkpt lat="45.24784" lon="5.9359">
        <ele>694.69</ele>
        <time>2020-12-19T14:17:55.000Z</time>
      </trkpt>
      <trkpt lat="45.24784" lon="5.93608">
        <ele>694.05</ele>
        <time>2020-12-19T14:18:00.000Z</time>
      </trkpt>
      <trkpt lat="45.24788" lon="5.93629">
        <ele>697.97</ele>
        <time>2020-12-19T14:18:05.000Z</time>
      </trkpt>
      <trkpt lat="45.24785" lon="5.93655">
        <ele>697.7</ele>
        <time>2020-12-19T14:18:10.000Z</time>
      </trkpt>
      <trkpt lat="45.24786" lon="5.93679">
        <ele>699.29</ele>
        <time>2020-12-19T14:18:15.000Z</time>
      </trkpt>
      <trkpt lat="45.24789" lon="5.93697">
        <ele>702.18</ele>
        <time>2020-12-19T14:18:20.000Z</time>
      </trkpt>
      <trkpt lat="45.248" lon="5.93725">
        <ele>702.39</ele>
        <time>2020-12-19T14:18:25.000Z</time>
      </trkpt>
      <trkpt lat="45.24812" lon="5.93747">
        <ele>703.87</ele>
        <time>2020-12-19T14:18:30.000Z</time>
      </trkpt>
      <trkpt lat="45.24811" lon="5.93769">
        <ele>706.59</ele>
        <time>2020-12-19T14:18:35.000Z</time>
      </trkpt>
      <trkpt lat="45.24797" lon="5.93763">
        <ele>707.46</ele>
        <time>2020-12-19T14:18:40.000Z</time>
      </trkpt>
      <trkpt lat="45.2479" lon="5.93741">
        <ele>709.26</ele>
        <time>2020-12-19T14:18:45.000Z</time>
      </trkpt>
      <trkpt lat="45.24777" lon="5.93723">
        <ele>704.64</ele>
        <time>2020-12-19T14:18:50.000Z</time>
      </trkpt>
      <trkpt lat="45.24765" lon="5.93708">
        <ele>705.44</ele>
        <time>2020-12-19T14:18:55.000Z</time>
      </trkpt>
      <trkpt lat="45.24757" lon="5.93687">
        <ele>707.12</ele>
        <time>2020-12-19T14:19:00.000Z</time>
      </trkpt>
      <trkpt lat="45.24751" lon="5.93665">
        <ele>707.56</ele>
        <time>2020-12-19T14:19:05.000Z</time>
      </trkpt>
      <trkpt lat="45.24744" lon="5.93645">
        <ele>709.63</ele>
        <time>2020-12-19T14:19:10.000Z</time>
      </trkpt>
      <trkpt lat="45.24736" lon="5.9363">
        <ele>709.32</ele>
        <time>2020-12-19T14:19:15.000Z</time>
      </trkpt>
      <trkpt lat="45.24732" lon="5.93613">
        <ele>712.44</ele>
        <time>2020-12-19T14:19:20.000Z</time>
      </trkpt>
      <trkpt lat="45.24727" lon="5.93593">
        <ele>711.33</ele>
        <time>2020-12-19T14:19:25.000Z</time>
      </trkpt>
      <trkpt lat="45.24719" lon="5.93581">
        <ele>713.89</ele>
        <time>2020-12-19T14:19:30.000Z</time>
      </trkpt>
      <trkpt lat="45.24708" lon="5.93588">
        <ele>714.77</ele>
        <time>2020-12-19T14:19:35.000Z</time>
      </trkpt>
      <trkpt lat="45.2471" lon="5.93602">
        <ele>714.92</ele>
        <time>2020-12-19T14:19:40.000Z</time>
      </trkpt>
      <trkpt lat="45.24711" lon="5.93615">
        <ele>714.33</ele>
        <time>2020-12-19T14:19:45.000Z</time>
      </trkpt>
      <trkpt lat="45.24718" lon="5.93634">
        <ele>712.66</ele>
        <time>2020-12-19T14:19:50.000Z</time>
      </trkpt>
      <trkpt lat="45.24719" lon="5.93661">
        <ele>711.64</ele>
        <time>2020-12-19T14:19:55.000Z</time>
      </trkpt>
      <trkpt lat="45.24723" lon="5.93676">
        <ele>710.89</ele>
        <time>2020-12-19T14:20:00.000Z</time>
      </trkpt>
      <trkpt lat="45.24728" lon="5.93703">
        <ele>710.17</ele>
        <time>2020-12-19T14:20:05.000Z</time>
      </trkpt>
      <trkpt lat="45.24732" lon="5.93723">
        <ele>711.09</ele>
        <time>2020-12-19T14:20:10.000Z</time>
      </trkpt>
      <trkpt lat="45.24737" lon="5.93746">
        <ele>710.82</ele>
        <time>2020-12-19T14:20:15.000Z</time>
      </trkpt>
      <trkpt lat="45.2474" lon="5.93766">
        <ele>709.6</ele>
        <time>2020-12-19T14:20:20.000Z</time>
      </trkpt>
      <trkpt lat="45.24739" lon="5.93784">
        <ele>715.15</ele>
        <time>2020-12-19T14:20:25.000Z</time>
      </trkpt>
      <trkpt lat="45.2474" lon="5.93803">
        <ele>718.12</ele>
        <time>2020-12-19T14:20:30.000Z</time>
      </trkpt>
      <trkpt lat="45.24745" lon="5.93821">
        <ele>717.66</ele>
        <time>2020-12-19T14:20:35.000Z</time>
      </trkpt>
      <trkpt lat="45.24745" lon="5.93841">
        <ele>719.32</ele>
        <time>2020-12-19T14:20:40.000Z</time>
      </trkpt>
      <trkpt lat="45.24742" lon="5.93861">
        <ele>723.65</ele>
        <time>2020-12-19T14:20:45.000Z</time>
      </trkpt>
      <trkpt lat="45.24742" lon="5.93882">
        <ele>724.84</ele>
        <time>2020-12-19T14:20:50.000Z</time>
      </trkpt>
      <trkpt lat="45.24746" lon="5.93903">
        <ele>724.59</ele>
        <time>2020-12-19T14:20:55.000Z</time>
      </trkpt>
      <trkpt lat="45.24751" lon="5.93918">
        <ele>724.82</ele>
        <time>2020-12-19T14:21:00.000Z</time>
      </trkpt>
      <trkpt lat="45.2476" lon="5.93934">
        <ele>725.81</ele>
        <time>2020-12-19T14:21:05.000Z</time>
      </trkpt>
      <trkpt lat="45.24764" lon="5.93953">
        <ele>727.97</ele>
        <time>2020-12-19T14:21:10.000Z</time>
      </trkpt>
      <trkpt lat="45.24769" lon="5.93976">
        <ele>728.12</ele>
        <time>2020-12-19T14:21:15.000Z</time>
      </trkpt>
      <trkpt lat="45.24772" lon="5.94">
        <ele>729.77</ele>
        <time>2020-12-19T14:21:20.000Z</time>
      </trkpt>
      <trkpt lat="45.24777" lon="5.94028">
        <ele>733.41</ele>
        <time>2020-12-19T14:21:25.000Z</time>
      </trkpt>
      <trkpt lat="45.24781" lon="5.94051">
        <ele>735.77</ele>
        <time>2020-12-19T14:21:30.000Z</time>
      </trkpt>
      <trkpt lat="45.24781" lon="5.9407">
        <ele>737.35</ele>
        <time>2020-12-19T14:21:35.000Z</time>
      </trkpt>
      <trkpt lat="45.24787" lon="5.94095">
        <ele>738.91</ele>
        <time>2020-12-19T14:21:40.000Z</time>
      </trkpt>
      <trkpt lat="45.24794" lon="5.94121">
        <ele>741.64</ele>
        <time>2020-12-19T14:21:45.000Z</time>
      </trkpt>
      <trkpt lat="45.24801" lon="5.94144">
        <ele>750.16</ele>
        <time>2020-12-19T14:21:50.000Z</time>
      </trkpt>
      <trkpt lat="45.24808" lon="5.94169">
        <ele>758.43</ele>
        <time>2020-12-19T14:21:55.000Z</time>
      </trkpt>
      <trkpt lat="45.24816" lon="5.94196">
        <ele>758.87</ele>
        <time>2020-12-19T14:22:00.000Z</time>
      </trkpt>
      <trkpt lat="45.24821" lon="5.94219">
        <ele>758.02</ele>
        <time>2020-12-19T14:22:05.000Z</time>
      </trkpt>
      <trkpt lat="45.24822" lon="5.94243">
        <ele>754.21</ele>
        <time>2020-12-19T14:22:10.000Z</time>
      </trkpt>
      <trkpt lat="45.24823" lon="5.94265">
        <ele>756.65</ele>
        <time>2020-12-19T14:22:15.000Z</time>
      </trkpt>
      <trkpt lat="45.24827" lon="5.94287">
        <ele>758.39</ele>
        <time>2020-12-19T14:22:20.000Z</time>
      </trkpt>
      <trkpt lat="45.24832" lon="5.94311">
        <ele>758.16</ele>
        <time>2020-12-19T14:22:25.000Z</time>
      </trkpt>
      <trkpt lat="45.24836" lon="5.94334">
        <ele>760.5</ele>
        <time>2020-12-19T14:22:30.000Z</time>
      </trkpt>
      <trkpt lat="45.24834" lon="5.94354">
        <ele>762.08</ele>
        <time>2020-12-19T14:22:35.000Z</time>
      </trkpt>
      <trkpt lat="45.24833" lon="5.94378">
        <ele>762.6</ele>
        <time>2020-12-19T14:22:40.000Z</time>
      </trkpt>
      <trkpt lat="45.24833" lon="5.944">
        <ele>770.3</ele>
        <time>2020-12-19T14:22:45.000Z</time>
      </trkpt>
      <trkpt lat="45.24835" lon="5.94422">
        <ele>770.15</ele>
        <time>2020-12-19T14:22:50.000Z</time>
      </trkpt>
      <trkpt lat="45.24827" lon="5.94441">
        <ele>768.24</ele>
        <time>2020-12-19T14:22:55.000Z</time>
      </trkpt>
      <trkpt lat="45.24824" lon="5.94465">
        <ele>768.65</ele>
        <time>2020-12-19T14:23:00.000Z</time>
      </trkpt>
      <trkpt lat="45.24826" lon="5.9449">
        <ele>766.84</ele>
        <time>2020-12-19T14:23:05.000Z</time>
      </trkpt>
      <trkpt lat="45.24831" lon="5.9451">
        <ele>765.47</ele>
        <time>2020-12-19T14:23:10.000Z</time>
      </trkpt>
      <trkpt lat="45.24831" lon="5.9453">
        <ele>767.5</ele>
        <time>2020-12-19T14:23:15.000Z</time>
      </trkpt>
      <trkpt lat="45.24836" lon="5.94551">
        <ele>766.56</ele>
        <time>2020-12-19T14:23:20.000Z</time>
      </trkpt>
      <trkpt lat="45.24832" lon="5.94577">
        <ele>767.88</ele>
        <time>2020-12-19T14:23:25.000Z</time>
      </trkpt>
      <trkpt lat="45.24834" lon="5.94602">
        <ele>767.51</ele>
        <time>2020-12-19T14:23:30.000Z</time>
      </trkpt>
      <trkpt lat="45.24834" lon="5.94629">
        <ele>767.69</ele>
        <time>2020-12-19T14:23:35.000Z</time>
      </trkpt>
      <trkpt lat="45.24838" lon="5.94658">
        <ele>768.93</ele>
        <time>2020-12-19T14:23:40.000Z</time>
      </trkpt>
      <trkpt lat="45.24844" lon="5.9468">
        <ele>774.98</ele>
        <time>2020-12-19T14:23:45.000Z</time>
      </trkpt>
      <trkpt lat="45.24848" lon="5.94704">
        <ele>779.32</ele>
        <time>2020-12-19T14:23:50.000Z</time>
      </trkpt>
      <trkpt lat="45.2485" lon="5.94728">
        <ele>779.1</ele>
        <time>2020-12-19T14:23:55.000Z</time>
      </trkpt>
      <trkpt lat="45.2485" lon="5.94749">
        <ele>783.07</ele>
        <time>2020-12-19T14:24:00.000Z</time>
      </trkpt>
      <trkpt lat="45.24848" lon="5.94771">
        <ele>782.48</ele>
        <time>2020-12-19T14:24:05.000Z</time>
      </trkpt>
      <trkpt lat="45.24847" lon="5.94792">
        <ele>782.25</ele>
        <time>2020-12-19T14:24:10.000Z</time>
      </trkpt>
      <trkpt lat="45.24847" lon="5.94814">
        <ele>782.45</ele>
        <time>2020-12-19T14:24:15.000Z</time>
      </trkpt>
      <trkpt lat="45.24843" lon="5.94835">
        <ele>778.75</ele>
        <time>2020-12-19T14:24:20.000Z</time>
      </trkpt>
      <trkpt lat="45.24844" lon="5.94856">
        <ele>783.51</ele>
        <time>2020-12-19T14:24:25.000Z</time>
      </trkpt>
      <trkpt lat="45.24842" lon="5.94879">
        <ele>785.55</ele>
        <time>2020-12-19T14:24:30.000Z</time>
      </trkpt>
      <trkpt lat="45.2484" lon="5.949">
        <ele>785.37</ele>
        <time>2020-12-19T14:24:35.000Z</time>
      </trkpt>
      <trkpt lat="45.24836" lon="5.94923">
        <ele>788.86</ele>
        <time>2020-12-19T14:24:40.000Z</time>
      </trkpt>
      <trkpt lat="45.24834" lon="5.94946">
        <ele>792.88</ele>
        <time>2020-12-19T14:24:45.000Z</time>
      </trkpt>
      <trkpt lat="45.24833" lon="5.94968">
        <ele>794.43</ele>
        <time>2020-12-19T14:24:50.000Z</time>
      </trkpt>
      <trkpt lat="45.24832" lon="5.94991">
        <ele>795.91</ele>
        <time>2020-12-19T14:24:55.000Z</time>
      </trkpt>
      <trkpt lat="45.24832" lon="5.95017">
        <ele>793.61</ele>
        <time>2020-12-19T14:25:00.000Z</time>
      </trkpt>
      <trkpt lat="45.24832" lon="5.95041">
        <ele>794.93</ele>
        <time>2020-12-19T14:25:05.000Z</time>
      </trkpt>
      <trkpt lat="45.24833" lon="5.95056">
        <ele>795.54</ele>
        <time>2020-12-19T14:25:10.000Z</time>
      </trkpt>
      <trkpt lat="45.24832" lon="5.95071">
        <ele>791.7</ele>
        <time>2020-12-19T14:25:15.000Z</time>
      </trkpt>
      <trkpt lat="45.2483" lon="5.95084">
        <ele>793.08</ele>
        <time>2020-12-19T14:25:20.000Z</time>
      </trkpt>
      <trkpt lat="45.24833" lon="5.95104">
        <ele>793.85</ele>
        <time>2020-12-19T14:25:25.000Z</time>
      </trkpt>
      <trkpt lat="45.2484" lon="5.95121">
        <ele>793.21</ele>
        <time>2020-12-19T14:25:30.000Z</time>
      </trkpt>
      <trkpt lat="45.24851" lon="5.95139">
        <ele>795.84</ele>
        <time>2020-12-19T14:25:35.000Z</time>
      </trkpt>
      <trkpt lat="45.24858" lon="5.95159">
        <ele>793.55</ele>
        <time>2020-12-19T14:25:40.000Z</time>
      </trkpt>
      <trkpt lat="45.24863" lon="5.95183">
        <ele>800.33</ele>
        <time>2020-12-19T14:25:45.000Z</time>
      </trkpt>
      <trkpt lat="45.24855" lon="5.95204">
        <ele>798.89</ele>
        <time>2020-12-19T14:25:50.000Z</time>
      </trkpt>
      <trkpt lat="45.24847" lon="5.95226">
        <ele>802.27</ele>
        <time>2020-12-19T14:25:55.000Z</time>
      </trkpt>
      <trkpt lat="45.2484" lon="5.95251">
        <ele>802.66</ele>
        <time>2020-12-19T14:26:00.000Z</time>
      </trkpt>
      <trkpt lat="45.24829" lon="5.95275">
        <ele>802.02</ele>
        <time>2020-12-19T14:26:05.000Z</time>
      </trkpt>
      <trkpt lat="45.24817" lon="5.95302">
        <ele>801.39</ele>
        <time>2020-12-19T14:26:10.000Z</time>
      </trkpt>
      <trkpt lat="45.24811" lon="5.95333">
        <ele>806.41</ele>
        <time>2020-12-19T14:26:15.000Z</time>
      </trkpt>
      <trkpt lat="45.24807" lon="5.95367">
        <ele>808.01</ele>
        <time>2020-12-19T14:26:20.000Z</time>
      </trkpt>
      <trkpt lat="45.248" lon="5.95404">
        <ele>811.98</ele>
        <time>2020-12-19T14:26:25.000Z</time>
      </trkpt>
      <trkpt lat="45.24794" lon="5.95439">
        <ele>813.05</ele>
        <time>2020-12-19T14:26:30.000Z</time>
      </trkpt>
      <trkpt lat="45.24791" lon="5.95468">
        <ele>814.04</ele>
        <time>2020-12-19T14:26:35.000Z</time>
      </trkpt>
      <trkpt lat="45.24782" lon="5.95495">
        <ele>812.69</ele>
        <time>2020-12-19T14:26:40.000Z</time>
      </trkpt>
      <trkpt lat="45.24775" lon="5.95521">
        <ele>810.9</ele>
        <time>2020-12-19T14:26:45.000Z</time>
      </trkpt>
      <trkpt lat="45.2477" lon="5.95548">
        <ele>810.89</ele>
        <time>2020-12-19T14:26:50.000Z</time>
      </trkpt>
      <trkpt lat="45.24769" lon="5.95574">
        <ele>809.62</ele>
        <time>2020-12-19T14:26:55.000Z</time>
      </trkpt>
      <trkpt lat="45.24767" lon="5.956">
        <ele>807.59</ele>
        <time>2020-12-19T14:27:00.000Z</time>
      </trkpt>
      <trkpt lat="45.24764" lon="5.95625">
        <ele>808.88</ele>
        <time>2020-12-19T14:27:05.000Z</time>
      </trkpt>
      <trkpt lat="45.24761" lon="5.95649">
        <ele>810.55</ele>
        <time>2020-12-19T14:27:10.000Z</time>
      </trkpt>
      <trkpt lat="45.24753" lon="5.95672">
        <ele>817.22</ele>
        <time>2020-12-19T14:27:15.000Z</time>
      </trkpt>
      <trkpt lat="45.24742" lon="5.95694">
        <ele>818.77</ele>
        <time>2020-12-19T14:27:20.000Z</time>
      </trkpt>
      <trkpt lat="45.24732" lon="5.95718">
        <ele>819.91</ele>
        <time>2020-12-19T14:27:25.000Z</time>
      </trkpt>
      <trkpt lat="45.24721" lon="5.95739">
        <ele>823.25</ele>
        <time>2020-12-19T14:27:30.000Z</time>
      </trkpt>
      <trkpt lat="45.2471" lon="5.9576">
        <ele>825.96</ele>
        <time>2020-12-19T14:27:35.000Z</time>
      </trkpt>
      <trkpt lat="45.247" lon="5.95786">
        <ele>828.03</ele>
        <time>2020-12-19T14:27:40.000Z</time>
      </trkpt>
      <trkpt lat="45.24691" lon="5.95808">
        <ele>827.75</ele>
        <time>2020-12-19T14:27:45.000Z</time>
      </trkpt>
      <trkpt lat="45.24688" lon="5.95821">
        <ele>820.69</ele>
        <time>2020-12-19T14:29:08.000Z</time>
      </trkpt>
      <trkpt lat="45.24678" lon="5.95841">
        <ele>819.35</ele>
        <time>2020-12-19T14:29:13.000Z</time>
      </trkpt>
      <trkpt lat="45.24673" lon="5.95863">
        <ele>819.07</ele>
        <time>2020-12-19T14:29:18.000Z</time>
      </trkpt>
      <trkpt lat="45.24668" lon="5.95885">
        <ele>823.05</ele>
        <time>2020-12-19T14:29:23.000Z</time>
      </trkpt>
      <trkpt lat="45.24663" lon="5.95904">
        <ele>822.91</ele>
        <time>2020-12-19T14:29:28.000Z</time>
      </trkpt>
      <trkpt lat="45.24655" lon="5.95928">
        <ele>817.69</ele>
        <time>2020-12-19T14:29:33.000Z</time>
      </trkpt>
      <trkpt lat="45.24647" lon="5.95953">
        <ele>820</ele>
        <time>2020-12-19T14:29:38.000Z</time>
      </trkpt>
      <trkpt lat="45.24641" lon="5.95978">
        <ele>824.44</ele>
        <time>2020-12-19T14:29:43.000Z</time>
      </trkpt>
      <trkpt lat="45.24638" lon="5.96">
        <ele>828.63</ele>
        <time>2020-12-19T14:29:48.000Z</time>
      </trkpt>
      <trkpt lat="45.24636" lon="5.96023">
        <ele>831.38</ele>
        <time>2020-12-19T14:29:53.000Z</time>
      </trkpt>
      <trkpt lat="45.24633" lon="5.96043">
        <ele>831.82</ele>
        <time>2020-12-19T14:29:58.000Z</time>
      </trkpt>
      <trkpt lat="45.24626" lon="5.96061">
        <ele>833.09</ele>
        <time>2020-12-19T14:30:03.000Z</time>
      </trkpt>
      <trkpt lat="45.2462" lon="5.96085">
        <ele>838.44</ele>
        <time>2020-12-19T14:30:08.000Z</time>
      </trkpt>
      <trkpt lat="45.24615" lon="5.9611">
        <ele>839.98</ele>
        <time>2020-12-19T14:30:13.000Z</time>
      </trkpt>
      <trkpt lat="45.24611" lon="5.96132">
        <ele>843.07</ele>
        <time>2020-12-19T14:30:18.000Z</time>
      </trkpt>
      <trkpt lat="45.24607" lon="5.96155">
        <ele>841.61</ele>
        <time>2020-12-19T14:30:23.000Z</time>
      </trkpt>
      <trkpt lat="45.24604" lon="5.96178">
        <ele>845.18</ele>
        <time>2020-12-19T14:30:28.000Z</time>
      </trkpt>
      <trkpt lat="45.24598" lon="5.962">
        <ele>844.66</ele>
        <time>2020-12-19T14:30:33.000Z</time>
      </trkpt>
      <trkpt lat="45.24592" lon="5.96221">
        <ele>843.81</ele>
        <time>2020-12-19T14:30:38.000Z</time>
      </trkpt>
      <trkpt lat="45.24587" lon="5.96243">
        <ele>845.17</ele>
        <time>2020-12-19T14:30:43.000Z</time>
      </trkpt>
      <trkpt lat="45.24579" lon="5.96261">
        <ele>847.64</ele>
        <time>2020-12-19T14:30:48.000Z</time>
      </trkpt>
      <trkpt lat="45.2457" lon="5.96274">
        <ele>847.31</ele>
        <time>2020-12-19T14:30:53.000Z</time>
      </trkpt>
      <trkpt lat="45.24554" lon="5.96286">
        <ele>845.76</ele>
        <time>2020-12-19T14:30:58.000Z</time>
      </trkpt>
      <trkpt lat="45.24541" lon="5.96294">
        <ele>845.58</ele>
        <time>2020-12-19T14:31:03.000Z</time>
      </trkpt>
      <trkpt lat="45.24528" lon="5.96302">
        <ele>846.08</ele>
        <time>2020-12-19T14:31:08.000Z</time>
      </trkpt>
      <trkpt lat="45.24516" lon="5.96311">
        <ele>845.99</ele>
        <time>2020-12-19T14:31:13.000Z</time>
      </trkpt>
      <trkpt lat="45.24503" lon="5.96317">
        <ele>845.7</ele>
        <time>2020-12-19T14:31:18.000Z</time>
      </trkpt>
      <trkpt lat="45.24488" lon="5.96319">
        <ele>848.82</ele>
        <time>2020-12-19T14:31:23.000Z</time>
      </trkpt>
      <trkpt lat="45.24472" lon="5.96318">
        <ele>850.56</ele>
        <time>2020-12-19T14:31:28.000Z</time>
      </trkpt>
      <trkpt lat="45.24458" lon="5.96318">
        <ele>848.57</ele>
        <time>2020-12-19T14:31:33.000Z</time>
      </trkpt>
      <trkpt lat="45.24444" lon="5.9632">
        <ele>847.87</ele>
        <time>2020-12-19T14:31:38.000Z</time>
      </trkpt>
      <trkpt lat="45.24431" lon="5.9633">
        <ele>853.81</ele>
        <time>2020-12-19T14:31:43.000Z</time>
      </trkpt>
      <trkpt lat="45.24419" lon="5.96341">
        <ele>855.43</ele>
        <time>2020-12-19T14:31:48.000Z</time>
      </trkpt>
      <trkpt lat="45.24407" lon="5.96352">
        <ele>857.76</ele>
        <time>2020-12-19T14:31:53.000Z</time>
      </trkpt>
      <trkpt lat="45.24397" lon="5.96367">
        <ele>860.61</ele>
        <time>2020-12-19T14:31:58.000Z</time>
      </trkpt>
      <trkpt lat="45.24385" lon="5.96381">
        <ele>862.49</ele>
        <time>2020-12-19T14:32:03.000Z</time>
      </trkpt>
      <trkpt lat="45.24371" lon="5.96393">
        <ele>864.74</ele>
        <time>2020-12-19T14:32:08.000Z</time>
      </trkpt>
      <trkpt lat="45.24358" lon="5.96404">
        <ele>866.49</ele>
        <time>2020-12-19T14:32:13.000Z</time>
      </trkpt>
      <trkpt lat="45.24347" lon="5.96413">
        <ele>866.85</ele>
        <time>2020-12-19T14:32:18.000Z</time>
      </trkpt>
      <trkpt lat="45.24335" lon="5.96423">
        <ele>870.19</ele>
        <time>2020-12-19T14:32:23.000Z</time>
      </trkpt>
      <trkpt lat="45.24323" lon="5.96433">
        <ele>871.35</ele>
        <time>2020-12-19T14:32:28.000Z</time>
      </trkpt>
      <trkpt lat="45.24311" lon="5.96443">
        <ele>873.86</ele>
        <time>2020-12-19T14:32:33.000Z</time>
      </trkpt>
      <trkpt lat="45.24302" lon="5.96459">
        <ele>874.45</ele>
        <time>2020-12-19T14:32:38.000Z</time>
      </trkpt>
      <trkpt lat="45.24291" lon="5.96475">
        <ele>877.01</ele>
        <time>2020-12-19T14:32:43.000Z</time>
      </trkpt>
      <trkpt lat="45.2428" lon="5.96491">
        <ele>880.34</ele>
        <time>2020-12-19T14:32:48.000Z</time>
      </trkpt>
      <trkpt lat="45.24271" lon="5.96504">
        <ele>880.41</ele>
        <time>2020-12-19T14:32:53.000Z</time>
      </trkpt>
      <trkpt lat="45.24262" lon="5.96517">
        <ele>881.06</ele>
        <time>2020-12-19T14:32:58.000Z</time>
      </trkpt>
      <trkpt lat="45.24252" lon="5.96531">
        <ele>884.33</ele>
        <time>2020-12-19T14:33:03.000Z</time>
      </trkpt>
      <trkpt lat="45.24241" lon="5.96544">
        <ele>885.09</ele>
        <time>2020-12-19T14:33:08.000Z</time>
      </trkpt>
      <trkpt lat="45.2423" lon="5.96557">
        <ele>884</ele>
        <time>2020-12-19T14:33:13.000Z</time>
      </trkpt>
      <trkpt lat="45.24218" lon="5.96571">
        <ele>882.6</ele>
        <time>2020-12-19T14:33:18.000Z</time>
      </trkpt>
      <trkpt lat="45.24207" lon="5.96583">
        <ele>884.46</ele>
        <time>2020-12-19T14:33:23.000Z</time>
      </trkpt>
      <trkpt lat="45.24198" lon="5.96597">
        <ele>880.92</ele>
        <time>2020-12-19T14:33:28.000Z</time>
      </trkpt>
      <trkpt lat="45.24187" lon="5.96612">
        <ele>882.58</ele>
        <time>2020-12-19T14:33:33.000Z</time>
      </trkpt>
      <trkpt lat="45.24176" lon="5.96628">
        <ele>885.02</ele>
        <time>2020-12-19T14:33:38.000Z</time>
      </trkpt>
      <trkpt lat="45.24162" lon="5.96641">
        <ele>885.78</ele>
        <time>2020-12-19T14:33:43.000Z</time>
      </trkpt>
      <trkpt lat="45.2415" lon="5.96653">
        <ele>886.34</ele>
        <time>2020-12-19T14:33:48.000Z</time>
      </trkpt>
      <trkpt lat="45.2414" lon="5.96669">
        <ele>885.69</ele>
        <time>2020-12-19T14:33:53.000Z</time>
      </trkpt>
      <trkpt lat="45.24129" lon="5.96684">
        <ele>887.08</ele>
        <time>2020-12-19T14:33:58.000Z</time>
      </trkpt>
      <trkpt lat="45.24117" lon="5.967">
        <ele>890.2</ele>
        <time>2020-12-19T14:34:03.000Z</time>
      </trkpt>
      <trkpt lat="45.24107" lon="5.96713">
        <ele>891.65</ele>
        <time>2020-12-19T14:34:08.000Z</time>
      </trkpt>
      <trkpt lat="45.24097" lon="5.96723">
        <ele>891.58</ele>
        <time>2020-12-19T14:34:13.000Z</time>
      </trkpt>
      <trkpt lat="45.24091" lon="5.96734">
        <ele>895.8</ele>
        <time>2020-12-19T14:35:23.000Z</time>
      </trkpt>
      <trkpt lat="45.24079" lon="5.96748">
        <ele>903.48</ele>
        <time>2020-12-19T14:35:28.000Z</time>
      </trkpt>
      <trkpt lat="45.24065" lon="5.96761">
        <ele>901.35</ele>
        <time>2020-12-19T14:35:33.000Z</time>
      </trkpt>
      <trkpt lat="45.24052" lon="5.96772">
        <ele>902.19</ele>
        <time>2020-12-19T14:35:38.000Z</time>
      </trkpt>
      <trkpt lat="45.24043" lon="5.96782">
        <ele>906.38</ele>
        <time>2020-12-19T14:35:43.000Z</time>
      </trkpt>
      <trkpt lat="45.24033" lon="5.968">
        <ele>904.63</ele>
        <time>2020-12-19T14:35:48.000Z</time>
      </trkpt>
      <trkpt lat="45.24024" lon="5.96819">
        <ele>904.64</ele>
        <time>2020-12-19T14:35:53.000Z</time>
      </trkpt>
      <trkpt lat="45.24013" lon="5.96839">
        <ele>899.76</ele>
        <time>2020-12-19T14:35:58.000Z</time>
      </trkpt>
      <trkpt lat="45.24005" lon="5.96854">
        <ele>900.22</ele>
        <time>2020-12-19T14:36:03.000Z</time>
      </trkpt>
      <trkpt lat="45.23996" lon="5.96871">
        <ele>899.06</ele>
        <time>2020-12-19T14:36:08.000Z</time>
      </trkpt>
      <trkpt lat="45.23987" lon="5.96889">
        <ele>897.69</ele>
        <time>2020-12-19T14:36:13.000Z</time>
      </trkpt>
      <trkpt lat="45.23971" lon="5.96912">
        <ele>893.96</ele>
        <time>2020-12-19T14:36:18.000Z</time>
      </trkpt>
      <trkpt lat="45.23955" lon="5.96934">
        <ele>894.31</ele>
        <time>2020-12-19T14:36:23.000Z</time>
      </trkpt>
      <trkpt lat="45.23947" lon="5.96971">
        <ele>892.96</ele>
        <time>2020-12-19T14:36:28.000Z</time>
      </trkpt>
      <trkpt lat="45.23938" lon="5.96996">
        <ele>895.92</ele>
        <time>2020-12-19T14:36:33.000Z</time>
      </trkpt>
      <trkpt lat="45.23935" lon="5.97031">
        <ele>895.56</ele>
        <time>2020-12-19T14:36:38.000Z</time>
      </trkpt>
      <trkpt lat="45.23931" lon="5.9706">
        <ele>891.77</ele>
        <time>2020-12-19T14:36:43.000Z</time>
      </trkpt>
      <trkpt lat="45.23923" lon="5.97084">
        <ele>888.39</ele>
        <time>2020-12-19T14:36:48.000Z</time>
      </trkpt>
      <trkpt lat="45.23909" lon="5.97111">
        <ele>888.01</ele>
        <time>2020-12-19T14:36:53.000Z</time>
      </trkpt>
      <trkpt lat="45.23891" lon="5.97135">
        <ele>886.41</ele>
        <time>2020-12-19T14:36:58.000Z</time>
      </trkpt>
      <trkpt lat="45.23872" lon="5.97155">
        <ele>891.97</ele>
        <time>2020-12-19T14:37:03.000Z</time>
      </trkpt>
      <trkpt lat="45.23873" lon="5.9719">
        <ele>892.28</ele>
        <time>2020-12-19T14:37:08.000Z</time>
      </trkpt>
      <trkpt lat="45.23873" lon="5.97222">
        <ele>895.77</ele>
        <time>2020-12-19T14:37:13.000Z</time>
      </trkpt>
      <trkpt lat="45.23868" lon="5.97252">
        <ele>898.16</ele>
        <time>2020-12-19T14:37:18.000Z</time>
      </trkpt>
      <trkpt lat="45.23858" lon="5.97286">
        <ele>897.06</ele>
        <time>2020-12-19T14:37:23.000Z</time>
      </trkpt>
      <trkpt lat="45.23851" lon="5.97311">
        <ele>888.09</ele>
        <time>2020-12-19T14:37:28.000Z</time>
      </trkpt>
      <trkpt lat="45.23844" lon="5.97337">
        <ele>888.19</ele>
        <time>2020-12-19T14:37:33.000Z</time>
      </trkpt>
      <trkpt lat="45.23833" lon="5.97355">
        <ele>887.59</ele>
        <time>2020-12-19T14:37:38.000Z</time>
      </trkpt>
      <trkpt lat="45.23819" lon="5.97357">
        <ele>888.43</ele>
        <time>2020-12-19T14:37:43.000Z</time>
      </trkpt>
      <trkpt lat="45.23805" lon="5.97349">
        <ele>895.26</ele>
        <time>2020-12-19T14:37:48.000Z</time>
      </trkpt>
      <trkpt lat="45.2379" lon="5.97343">
        <ele>902.4</ele>
        <time>2020-12-19T14:37:53.000Z</time>
      </trkpt>
      <trkpt lat="45.23777" lon="5.97336">
        <ele>901.69</ele>
        <time>2020-12-19T14:37:58.000Z</time>
      </trkpt>
      <trkpt lat="45.23762" lon="5.97328">
        <ele>902.75</ele>
        <time>2020-12-19T14:38:03.000Z</time>
      </trkpt>
      <trkpt lat="45.23746" lon="5.97319">
        <ele>904.29</ele>
        <time>2020-12-19T14:38:08.000Z</time>
      </trkpt>
      <trkpt lat="45.23733" lon="5.97308">
        <ele>904.67</ele>
        <time>2020-12-19T14:38:13.000Z</time>
      </trkpt>
      <trkpt lat="45.2372" lon="5.97291">
        <ele>906.99</ele>
        <time>2020-12-19T14:38:18.000Z</time>
      </trkpt>
      <trkpt lat="45.23711" lon="5.97267">
        <ele>909.59</ele>
        <time>2020-12-19T14:38:23.000Z</time>
      </trkpt>
      <trkpt lat="45.23706" lon="5.97244">
        <ele>911.25</ele>
        <time>2020-12-19T14:38:28.000Z</time>
      </trkpt>
      <trkpt lat="45.23708" lon="5.97222">
        <ele>915.46</ele>
        <time>2020-12-19T14:38:33.000Z</time>
      </trkpt>
      <trkpt lat="45.23714" lon="5.972">
        <ele>918.05</ele>
        <time>2020-12-19T14:38:38.000Z</time>
      </trkpt>
      <trkpt lat="45.2372" lon="5.97178">
        <ele>920.66</ele>
        <time>2020-12-19T14:38:43.000Z</time>
      </trkpt>
      <trkpt lat="45.23729" lon="5.97157">
        <ele>922.22</ele>
        <time>2020-12-19T14:38:48.000Z</time>
      </trkpt>
      <trkpt lat="45.2374" lon="5.97137">
        <ele>925.37</ele>
        <time>2020-12-19T14:38:53.000Z</time>
      </trkpt>
      <trkpt lat="45.23747" lon="5.97114">
        <ele>927</ele>
        <time>2020-12-19T14:38:58.000Z</time>
      </trkpt>
      <trkpt lat="45.23755" lon="5.97091">
        <ele>929.4</ele>
        <time>2020-12-19T14:39:03.000Z</time>
      </trkpt>
      <trkpt lat="45.23762" lon="5.97071">
        <ele>928.12</ele>
        <time>2020-12-19T14:39:08.000Z</time>
      </trkpt>
      <trkpt lat="45.23771" lon="5.9705">
        <ele>929.41</ele>
        <time>2020-12-19T14:39:13.000Z</time>
      </trkpt>
      <trkpt lat="45.23784" lon="5.97024">
        <ele>929.32</ele>
        <time>2020-12-19T14:39:18.000Z</time>
      </trkpt>
      <trkpt lat="45.23797" lon="5.96999">
        <ele>928.82</ele>
        <time>2020-12-19T14:39:23.000Z</time>
      </trkpt>
      <trkpt lat="45.23811" lon="5.96978">
        <ele>936.17</ele>
        <time>2020-12-19T14:39:28.000Z</time>
      </trkpt>
      <trkpt lat="45.23821" lon="5.96952">
        <ele>936.58</ele>
        <time>2020-12-19T14:39:33.000Z</time>
      </trkpt>
      <trkpt lat="45.23828" lon="5.96924">
        <ele>934.13</ele>
        <time>2020-12-19T14:39:38.000Z</time>
      </trkpt>
      <trkpt lat="45.23834" lon="5.96898">
        <ele>932.86</ele>
        <time>2020-12-19T14:39:43.000Z</time>
      </trkpt>
      <trkpt lat="45.23839" lon="5.96872">
        <ele>935.07</ele>
        <time>2020-12-19T14:39:48.000Z</time>
      </trkpt>
      <trkpt lat="45.2384" lon="5.96843">
        <ele>933.83</ele>
        <time>2020-12-19T14:39:53.000Z</time>
      </trkpt>
      <trkpt lat="45.23843" lon="5.96816">
        <ele>934.63</ele>
        <time>2020-12-19T14:39:58.000Z</time>
      </trkpt>
      <trkpt lat="45.23848" lon="5.96792">
        <ele>935.31</ele>
        <time>2020-12-19T14:40:03.000Z</time>
      </trkpt>
      <trkpt lat="45.23858" lon="5.9677">
        <ele>938.72</ele>
        <time>2020-12-19T14:40:08.000Z</time>
      </trkpt>
      <trkpt lat="45.23872" lon="5.96753">
        <ele>939.44</ele>
        <time>2020-12-19T14:40:13.000Z</time>
      </trkpt>
      <trkpt lat="45.23886" lon="5.96741">
        <ele>941.64</ele>
        <time>2020-12-19T14:40:18.000Z</time>
      </trkpt>
      <trkpt lat="45.23903" lon="5.96729">
        <ele>946.45</ele>
        <time>2020-12-19T14:40:23.000Z</time>
      </trkpt>
      <trkpt lat="45.23915" lon="5.96712">
        <ele>946.44</ele>
        <time>2020-12-19T14:40:28.000Z</time>
      </trkpt>
      <trkpt lat="45.23926" lon="5.96693">
        <ele>949.72</ele>
        <time>2020-12-19T14:40:33.000Z</time>
      </trkpt>
      <trkpt lat="45.23937" lon="5.96671">
        <ele>951.72</ele>
        <time>2020-12-19T14:40:38.000Z</time>
      </trkpt>
      <trkpt lat="45.23941" lon="5.96644">
        <ele>954.97</ele>
        <time>2020-12-19T14:40:43.000Z</time>
      </trkpt>
      <trkpt lat="45.23941" lon="5.96617">
        <ele>956.65</ele>
        <time>2020-12-19T14:40:48.000Z</time>
      </trkpt>
      <trkpt lat="45.23939" lon="5.96593">
        <ele>960</ele>
        <time>2020-12-19T14:40:53.000Z</time>
      </trkpt>
      <trkpt lat="45.2394" lon="5.9657">
        <ele>957.53</ele>
        <time>2020-12-19T14:40:58.000Z</time>
      </trkpt>
      <trkpt lat="45.23944" lon="5.96547">
        <ele>959.75</ele>
        <time>2020-12-19T14:41:03.000Z</time>
      </trkpt>
      <trkpt lat="45.23951" lon="5.96524">
        <ele>960.6</ele>
        <time>2020-12-19T14:41:08.000Z</time>
      </trkpt>
      <trkpt lat="45.2396" lon="5.96502">
        <ele>962.13</ele>
        <time>2020-12-19T14:41:13.000Z</time>
      </trkpt>
      <trkpt lat="45.23972" lon="5.96485">
        <ele>962.45</ele>
        <time>2020-12-19T14:41:18.000Z</time>
      </trkpt>
      <trkpt lat="45.23985" lon="5.9647">
        <ele>966.43</ele>
        <time>2020-12-19T14:41:23.000Z</time>
      </trkpt>
      <trkpt lat="45.23987" lon="5.96443">
        <ele>968.94</ele>
        <time>2020-12-19T14:41:28.000Z</time>
      </trkpt>
      <trkpt lat="45.23987" lon="5.96421">
        <ele>967.82</ele>
        <time>2020-12-19T14:41:33.000Z</time>
      </trkpt>
      <trkpt lat="45.2398" lon="5.96395">
        <ele>967.73</ele>
        <time>2020-12-19T14:41:38.000Z</time>
      </trkpt>
      <trkpt lat="45.23981" lon="5.96372">
        <ele>969.43</ele>
        <time>2020-12-19T14:41:43.000Z</time>
      </trkpt>
      <trkpt lat="45.23984" lon="5.9635">
        <ele>968.58</ele>
        <time>2020-12-19T14:41:48.000Z</time>
      </trkpt>
      <trkpt lat="45.23987" lon="5.9633">
        <ele>971.19</ele>
        <time>2020-12-19T14:41:53.000Z</time>
      </trkpt>
      <trkpt lat="45.23992" lon="5.96309">
        <ele>973.38</ele>
        <time>2020-12-19T14:41:58.000Z</time>
      </trkpt>
      <trkpt lat="45.23998" lon="5.96286">
        <ele>971.35</ele>
        <time>2020-12-19T14:42:03.000Z</time>
      </trkpt>
      <trkpt lat="45.24006" lon="5.96262">
        <ele>976.5</ele>
        <time>2020-12-19T14:42:08.000Z</time>
      </trkpt>
      <trkpt lat="45.24014" lon="5.9624">
        <ele>978.82</ele>
        <time>2020-12-19T14:42:13.000Z</time>
      </trkpt>
      <trkpt lat="45.2402" lon="5.96216">
        <ele>979.43</ele>
        <time>2020-12-19T14:42:18.000Z</time>
      </trkpt>
      <trkpt lat="45.24024" lon="5.96192">
        <ele>979.23</ele>
        <time>2020-12-19T14:42:23.000Z</time>
      </trkpt>
      <trkpt lat="45.24033" lon="5.9617">
        <ele>984.52</ele>
        <time>2020-12-19T14:42:28.000Z</time>
      </trkpt>
      <trkpt lat="45.24045" lon="5.96152">
        <ele>984.98</ele>
        <time>2020-12-19T14:42:33.000Z</time>
      </trkpt>
      <trkpt lat="45.24055" lon="5.96134">
        <ele>989.24</ele>
        <time>2020-12-19T14:42:38.000Z</time>
      </trkpt>
      <trkpt lat="45.24063" lon="5.96112">
        <ele>989.96</ele>
        <time>2020-12-19T14:42:43.000Z</time>
      </trkpt>
      <trkpt lat="45.24065" lon="5.96086">
        <ele>988.94</ele>
        <time>2020-12-19T14:42:48.000Z</time>
      </trkpt>
      <trkpt lat="45.24065" lon="5.96065">
        <ele>986.37</ele>
        <time>2020-12-19T14:42:53.000Z</time>
      </trkpt>
      <trkpt lat="45.24069" lon="5.9604">
        <ele>987.36</ele>
        <time>2020-12-19T14:42:58.000Z</time>
      </trkpt>
      <trkpt lat="45.24077" lon="5.9602">
        <ele>987.71</ele>
        <time>2020-12-19T14:43:03.000Z</time>
      </trkpt>
      <trkpt lat="45.24087" lon="5.96002">
        <ele>993.53</ele>
        <time>2020-12-19T14:43:08.000Z</time>
      </trkpt>
      <trkpt lat="45.241" lon="5.95983">
        <ele>1000.06</ele>
        <time>2020-12-19T14:43:13.000Z</time>
      </trkpt>
      <trkpt lat="45.24108" lon="5.95964">
        <ele>1001.01</ele>
        <time>2020-12-19T14:43:18.000Z</time>
      </trkpt>
      <trkpt lat="45.24115" lon="5.95941">
        <ele>1000.77</ele>
        <time>2020-12-19T14:43:23.000Z</time>
      </trkpt>
      <trkpt lat="45.24119" lon="5.95919">
        <ele>998.99</ele>
        <time>2020-12-19T14:43:28.000Z</time>
      </trkpt>
      <trkpt lat="45.24124" lon="5.95896">
        <ele>998.6</ele>
        <time>2020-12-19T14:43:33.000Z</time>
      </trkpt>
      <trkpt lat="45.2413" lon="5.95873">
        <ele>1001.23</ele>
        <time>2020-12-19T14:43:38.000Z</time>
      </trkpt>
      <trkpt lat="45.24135" lon="5.95852">
        <ele>998.88</ele>
        <time>2020-12-19T14:43:43.000Z</time>
      </trkpt>
      <trkpt lat="45.24136" lon="5.95824">
        <ele>1000.14</ele>
        <time>2020-12-19T14:43:48.000Z</time>
      </trkpt>
      <trkpt lat="45.24138" lon="5.95797">
        <ele>1002.35</ele>
        <time>2020-12-19T14:43:53.000Z</time>
      </trkpt>
      <trkpt lat="45.24143" lon="5.95767">
        <ele>1002.27</ele>
        <time>2020-12-19T14:43:58.000Z</time>
      </trkpt>
      <trkpt lat="45.24152" lon="5.95732">
        <ele>1004.09</ele>
        <time>2020-12-19T14:44:03.000Z</time>
      </trkpt>
      <trkpt lat="45.24157" lon="5.95699">
        <ele>1004.82</ele>
        <time>2020-12-19T14:44:08.000Z</time>
      </trkpt>
      <trkpt lat="45.24157" lon="5.95667">
        <ele>1005.22</ele>
        <time>2020-12-19T14:44:13.000Z</time>
      </trkpt>
      <trkpt lat="45.2416" lon="5.95631">
        <ele>1004.27</ele>
        <time>2020-12-19T14:44:18.000Z</time>
      </trkpt>
      <trkpt lat="45.24157" lon="5.95594">
        <ele>1004.94</ele>
        <time>2020-12-19T14:44:23.000Z</time>
      </trkpt>
      <trkpt lat="45.24144" lon="5.95569">
        <ele>1005.66</ele>
        <time>2020-12-19T14:44:28.000Z</time>
      </trkpt>
      <trkpt lat="45.24131" lon="5.95551">
        <ele>1008.09</ele>
        <time>2020-12-19T14:44:33.000Z</time>
      </trkpt>
      <trkpt lat="45.24117" lon="5.95535">
        <ele>1007.84</ele>
        <time>2020-12-19T14:44:38.000Z</time>
      </trkpt>
      <trkpt lat="45.24105" lon="5.95515">
        <ele>1007.51</ele>
        <time>2020-12-19T14:44:43.000Z</time>
      </trkpt>
      <trkpt lat="45.24092" lon="5.95489">
        <ele>1005.43</ele>
        <time>2020-12-19T14:44:48.000Z</time>
      </trkpt>
      <trkpt lat="45.24086" lon="5.95465">
        <ele>1004.88</ele>
        <time>2020-12-19T14:44:53.000Z</time>
      </trkpt>
      <trkpt lat="45.24074" lon="5.95435">
        <ele>1005.38</ele>
        <time>2020-12-19T14:44:58.000Z</time>
      </trkpt>
      <trkpt lat="45.24068" lon="5.95401">
        <ele>1006.17</ele>
        <time>2020-12-19T14:45:03.000Z</time>
      </trkpt>
      <trkpt lat="45.2406" lon="5.95368">
        <ele>1005.83</ele>
        <time>2020-12-19T14:45:08.000Z</time>
      </trkpt>
      <trkpt lat="45.24053" lon="5.95338">
        <ele>1007.07</ele>
        <time>2020-12-19T14:45:13.000Z</time>
      </trkpt>
      <trkpt lat="45.24044" lon="5.95308">
        <ele>1011.14</ele>
        <time>2020-12-19T14:45:18.000Z</time>
      </trkpt>
      <trkpt lat="45.24033" lon="5.9528">
        <ele>1012.29</ele>
        <time>2020-12-19T14:45:23.000Z</time>
      </trkpt>
      <trkpt lat="45.24019" lon="5.95256">
        <ele>1009.85</ele>
        <time>2020-12-19T14:45:28.000Z</time>
      </trkpt>
      <trkpt lat="45.24002" lon="5.95232">
        <ele>1008.08</ele>
        <time>2020-12-19T14:45:33.000Z</time>
      </trkpt>
      <trkpt lat="45.23986" lon="5.95209">
        <ele>1008.68</ele>
        <time>2020-12-19T14:45:38.000Z</time>
      </trkpt>
      <trkpt lat="45.23975" lon="5.95166">
        <ele>1010.84</ele>
        <time>2020-12-19T14:45:43.000Z</time>
      </trkpt>
      <trkpt lat="45.23965" lon="5.95152">
        <ele>1011.95</ele>
        <time>2020-12-19T14:45:48.000Z</time>
      </trkpt>
      <trkpt lat="45.23956" lon="5.95147">
        <ele>1016.13</ele>
        <time>2020-12-19T14:49:54.000Z</time>
      </trkpt>
      <trkpt lat="45.23952" lon="5.95128">
        <ele>1010.74</ele>
        <time>2020-12-19T14:49:59.000Z</time>
      </trkpt>
      <trkpt lat="45.23944" lon="5.95113">
        <ele>1011.88</ele>
        <time>2020-12-19T14:50:04.000Z</time>
      </trkpt>
      <trkpt lat="45.23925" lon="5.9508">
        <ele>1008.36</ele>
        <time>2020-12-19T14:50:09.000Z</time>
      </trkpt>
      <trkpt lat="45.23905" lon="5.95048">
        <ele>1005.19</ele>
        <time>2020-12-19T14:50:14.000Z</time>
      </trkpt>
      <trkpt lat="45.23883" lon="5.95007">
        <ele>1005.83</ele>
        <time>2020-12-19T14:50:19.000Z</time>
      </trkpt>
      <trkpt lat="45.23867" lon="5.94947">
        <ele>1006.15</ele>
        <time>2020-12-19T14:50:24.000Z</time>
      </trkpt>
      <trkpt lat="45.23858" lon="5.94884">
        <ele>1005.75</ele>
        <time>2020-12-19T14:50:29.000Z</time>
      </trkpt>
      <trkpt lat="45.23852" lon="5.94807">
        <ele>1003.3</ele>
        <time>2020-12-19T14:50:34.000Z</time>
      </trkpt>
      <trkpt lat="45.23833" lon="5.9472">
        <ele>998.49</ele>
        <time>2020-12-19T14:50:39.000Z</time>
      </trkpt>
      <trkpt lat="45.23806" lon="5.94639">
        <ele>992.51</ele>
        <time>2020-12-19T14:50:44.000Z</time>
      </trkpt>
      <trkpt lat="45.23772" lon="5.94557">
        <ele>989.78</ele>
        <time>2020-12-19T14:50:49.000Z</time>
      </trkpt>
      <trkpt lat="45.23744" lon="5.94474">
        <ele>989.28</ele>
        <time>2020-12-19T14:50:54.000Z</time>
      </trkpt>
      <trkpt lat="45.23735" lon="5.94387">
        <ele>986.5</ele>
        <time>2020-12-19T14:50:59.000Z</time>
      </trkpt>
      <trkpt lat="45.23713" lon="5.94299">
        <ele>984.21</ele>
        <time>2020-12-19T14:51:04.000Z</time>
      </trkpt>
      <trkpt lat="45.23695" lon="5.94247">
        <ele>978.5</ele>
        <time>2020-12-19T14:51:09.000Z</time>
      </trkpt>
      <trkpt lat="45.23691" lon="5.9428">
        <ele>975.16</ele>
        <time>2020-12-19T14:51:14.000Z</time>
      </trkpt>
      <trkpt lat="45.23693" lon="5.94342">
        <ele>972.17</ele>
        <time>2020-12-19T14:51:19.000Z</time>
      </trkpt>
      <trkpt lat="45.23677" lon="5.94405">
        <ele>973.1</ele>
        <time>2020-12-19T14:51:24.000Z</time>
      </trkpt>
      <trkpt lat="45.23653" lon="5.94472">
        <ele>972.78</ele>
        <time>2020-12-19T14:51:29.000Z</time>
      </trkpt>
      <trkpt lat="45.23602" lon="5.94498">
        <ele>969.38</ele>
        <time>2020-12-19T14:51:34.000Z</time>
      </trkpt>
      <trkpt lat="45.23552" lon="5.94512">
        <ele>966.18</ele>
        <time>2020-12-19T14:51:39.000Z</time>
      </trkpt>
      <trkpt lat="45.23537" lon="5.94474">
        <ele>961.52</ele>
        <time>2020-12-19T14:51:44.000Z</time>
      </trkpt>
      <trkpt lat="45.23564" lon="5.94438">
        <ele>959.34</ele>
        <time>2020-12-19T14:51:49.000Z</time>
      </trkpt>
      <trkpt lat="45.23598" lon="5.94403">
        <ele>957.47</ele>
        <time>2020-12-19T14:51:54.000Z</time>
      </trkpt>
      <trkpt lat="45.23603" lon="5.94333">
        <ele>954.61</ele>
        <time>2020-12-19T14:51:59.000Z</time>
      </trkpt>
      <trkpt lat="45.23588" lon="5.94266">
        <ele>950.7</ele>
        <time>2020-12-19T14:52:04.000Z</time>
      </trkpt>
      <trkpt lat="45.23574" lon="5.94195">
        <ele>947.14</ele>
        <time>2020-12-19T14:52:09.000Z</time>
      </trkpt>
      <trkpt lat="45.23593" lon="5.9412">
        <ele>942.1</ele>
        <time>2020-12-19T14:52:14.000Z</time>
      </trkpt>
      <trkpt lat="45.23613" lon="5.94042">
        <ele>937.84</ele>
        <time>2020-12-19T14:52:19.000Z</time>
      </trkpt>
      <trkpt lat="45.23618" lon="5.93964">
        <ele>937.15</ele>
        <time>2020-12-19T14:52:24.000Z</time>
      </trkpt>
      <trkpt lat="45.23619" lon="5.9391">
        <ele>931.12</ele>
        <time>2020-12-19T14:52:29.000Z</time>
      </trkpt>
      <trkpt lat="45.23602" lon="5.93939">
        <ele>925.89</ele>
        <time>2020-12-19T14:52:34.000Z</time>
      </trkpt>
      <trkpt lat="45.23595" lon="5.93996">
        <ele>925.31</ele>
        <time>2020-12-19T14:52:39.000Z</time>
      </trkpt>
      <trkpt lat="45.23576" lon="5.94053">
        <ele>922.6</ele>
        <time>2020-12-19T14:52:44.000Z</time>
      </trkpt>
      <trkpt lat="45.23534" lon="5.94096">
        <ele>920.41</ele>
        <time>2020-12-19T14:52:49.000Z</time>
      </trkpt>
      <trkpt lat="45.235" lon="5.94133">
        <ele>916.81</ele>
        <time>2020-12-19T14:52:54.000Z</time>
      </trkpt>
      <trkpt lat="45.23503" lon="5.94085">
        <ele>916.67</ele>
        <time>2020-12-19T14:52:59.000Z</time>
      </trkpt>
      <trkpt lat="45.23531" lon="5.9403">
        <ele>914.35</ele>
        <time>2020-12-19T14:53:04.000Z</time>
      </trkpt>
      <trkpt lat="45.23534" lon="5.93955">
        <ele>910.83</ele>
        <time>2020-12-19T14:53:09.000Z</time>
      </trkpt>
      <trkpt lat="45.23518" lon="5.93883">
        <ele>906.97</ele>
        <time>2020-12-19T14:53:14.000Z</time>
      </trkpt>
      <trkpt lat="45.23508" lon="5.93809">
        <ele>899.98</ele>
        <time>2020-12-19T14:53:19.000Z</time>
      </trkpt>
      <trkpt lat="45.23508" lon="5.93725">
        <ele>892.37</ele>
        <time>2020-12-19T14:53:24.000Z</time>
      </trkpt>
      <trkpt lat="45.23503" lon="5.93644">
        <ele>886.48</ele>
        <time>2020-12-19T14:53:29.000Z</time>
      </trkpt>
      <trkpt lat="45.23511" lon="5.93571">
        <ele>882.39</ele>
        <time>2020-12-19T14:53:34.000Z</time>
      </trkpt>
      <trkpt lat="45.23527" lon="5.93499">
        <ele>876.85</ele>
        <time>2020-12-19T14:53:39.000Z</time>
      </trkpt>
      <trkpt lat="45.23551" lon="5.9343">
        <ele>873.08</ele>
        <time>2020-12-19T14:53:44.000Z</time>
      </trkpt>
      <trkpt lat="45.23567" lon="5.93353">
        <ele>864.55</ele>
        <time>2020-12-19T14:53:49.000Z</time>
      </trkpt>
      <trkpt lat="45.23593" lon="5.93274">
        <ele>859.64</ele>
        <time>2020-12-19T14:53:54.000Z</time>
      </trkpt>
      <trkpt lat="45.23636" lon="5.93206">
        <ele>855.49</ele>
        <time>2020-12-19T14:53:59.000Z</time>
      </trkpt>
      <trkpt lat="45.2368" lon="5.9314">
        <ele>850.47</ele>
        <time>2020-12-19T14:54:04.000Z</time>
      </trkpt>
      <trkpt lat="45.2373" lon="5.93076">
        <ele>848.85</ele>
        <time>2020-12-19T14:54:09.000Z</time>
      </trkpt>
      <trkpt lat="45.23762" lon="5.93009">
        <ele>843.28</ele>
        <time>2020-12-19T14:54:14.000Z</time>
      </trkpt>
      <trkpt lat="45.23784" lon="5.92929">
        <ele>835.8</ele>
        <time>2020-12-19T14:54:19.000Z</time>
      </trkpt>
      <trkpt lat="45.23808" lon="5.9288">
        <ele>834.09</ele>
        <time>2020-12-19T14:54:24.000Z</time>
      </trkpt>
      <trkpt lat="45.2379" lon="5.92885">
        <ele>831.24</ele>
        <time>2020-12-19T14:54:29.000Z</time>
      </trkpt>
      <trkpt lat="45.23777" lon="5.92908">
        <ele>829.64</ele>
        <time>2020-12-19T14:54:34.000Z</time>
      </trkpt>
      <trkpt lat="45.23755" lon="5.92945">
        <ele>827.47</ele>
        <time>2020-12-19T14:54:39.000Z</time>
      </trkpt>
      <trkpt lat="45.23723" lon="5.92987">
        <ele>821.69</ele>
        <time>2020-12-19T14:54:44.000Z</time>
      </trkpt>
      <trkpt lat="45.23674" lon="5.93019">
        <ele>812.72</ele>
        <time>2020-12-19T14:54:49.000Z</time>
      </trkpt>
      <trkpt lat="45.23618" lon="5.93049">
        <ele>809.25</ele>
        <time>2020-12-19T14:54:54.000Z</time>
      </trkpt>
      <trkpt lat="45.23566" lon="5.9306">
        <ele>807.7</ele>
        <time>2020-12-19T14:54:59.000Z</time>
      </trkpt>
      <trkpt lat="45.23515" lon="5.93076">
        <ele>804.77</ele>
        <time>2020-12-19T14:55:04.000Z</time>
      </trkpt>
      <trkpt lat="45.23475" lon="5.93123">
        <ele>801.66</ele>
        <time>2020-12-19T14:55:09.000Z</time>
      </trkpt>
      <trkpt lat="45.23428" lon="5.93177">
        <ele>794.84</ele>
        <time>2020-12-19T14:55:14.000Z</time>
      </trkpt>
      <trkpt lat="45.23376" lon="5.93233">
        <ele>793.05</ele>
        <time>2020-12-19T14:55:19.000Z</time>
      </trkpt>
      <trkpt lat="45.23315" lon="5.93284">
        <ele>787.98</ele>
        <time>2020-12-19T14:55:24.000Z</time>
      </trkpt>
      <trkpt lat="45.23252" lon="5.9334">
        <ele>780.48</ele>
        <time>2020-12-19T14:55:29.000Z</time>
      </trkpt>
      <trkpt lat="45.23205" lon="5.93407">
        <ele>773.21</ele>
        <time>2020-12-19T14:55:34.000Z</time>
      </trkpt>
      <trkpt lat="45.23156" lon="5.9344">
        <ele>769.04</ele>
        <time>2020-12-19T14:55:39.000Z</time>
      </trkpt>
      <trkpt lat="45.23109" lon="5.93415">
        <ele>766.3</ele>
        <time>2020-12-19T14:55:44.000Z</time>
      </trkpt>
      <trkpt lat="45.23058" lon="5.93393">
        <ele>760.22</ele>
        <time>2020-12-19T14:55:49.000Z</time>
      </trkpt>
      <trkpt lat="45.2303" lon="5.9337">
        <ele>759.1</ele>
        <time>2020-12-19T14:55:54.000Z</time>
      </trkpt>
      <trkpt lat="45.23011" lon="5.93352">
        <ele>755.79</ele>
        <time>2020-12-19T14:55:59.000Z</time>
      </trkpt>
      <trkpt lat="45.22997" lon="5.9335">
        <ele>759.15</ele>
        <time>2020-12-19T14:56:04.000Z</time>
      </trkpt>
      <trkpt lat="45.22982" lon="5.93348">
        <ele>756.64</ele>
        <time>2020-12-19T14:56:09.000Z</time>
      </trkpt>
      <trkpt lat="45.22968" lon="5.93345">
        <ele>756.93</ele>
        <time>2020-12-19T14:56:14.000Z</time>
      </trkpt>
      <trkpt lat="45.22952" lon="5.93349">
        <ele>758.99</ele>
        <time>2020-12-19T14:56:19.000Z</time>
      </trkpt>
      <trkpt lat="45.22938" lon="5.93353">
        <ele>758.06</ele>
        <time>2020-12-19T14:56:24.000Z</time>
      </trkpt>
      <trkpt lat="45.22923" lon="5.93359">
        <ele>760.79</ele>
        <time>2020-12-19T14:56:29.000Z</time>
      </trkpt>
      <trkpt lat="45.22907" lon="5.93357">
        <ele>760.77</ele>
        <time>2020-12-19T14:56:34.000Z</time>
      </trkpt>
      <trkpt lat="45.22893" lon="5.93346">
        <ele>763.63</ele>
        <time>2020-12-19T14:56:39.000Z</time>
      </trkpt>
      <trkpt lat="45.22878" lon="5.93334">
        <ele>764.5</ele>
        <time>2020-12-19T14:56:44.000Z</time>
      </trkpt>
      <trkpt lat="45.22861" lon="5.93328">
        <ele>765.32</ele>
        <time>2020-12-19T14:56:49.000Z</time>
      </trkpt>
      <trkpt lat="45.22846" lon="5.93327">
        <ele>765.77</ele>
        <time>2020-12-19T14:56:54.000Z</time>
      </trkpt>
      <trkpt lat="45.22831" lon="5.9333">
        <ele>769.86</ele>
        <time>2020-12-19T14:56:59.000Z</time>
      </trkpt>
      <trkpt lat="45.22815" lon="5.93333">
        <ele>771.71</ele>
        <time>2020-12-19T14:57:04.000Z</time>
      </trkpt>
      <trkpt lat="45.22801" lon="5.93334">
        <ele>771.46</ele>
        <time>2020-12-19T14:57:09.000Z</time>
      </trkpt>
      <trkpt lat="45.22785" lon="5.93341">
        <ele>773.57</ele>
        <time>2020-12-19T14:57:14.000Z</time>
      </trkpt>
      <trkpt lat="45.22769" lon="5.93352">
        <ele>772.47</ele>
        <time>2020-12-19T14:57:19.000Z</time>
      </trkpt>
      <trkpt lat="45.22757" lon="5.93367">
        <ele>775.55</ele>
        <time>2020-12-19T14:57:24.000Z</time>
      </trkpt>
      <trkpt lat="45.22743" lon="5.93383">
        <ele>770.76</ele>
        <time>2020-12-19T14:57:29.000Z</time>
      </trkpt>
      <trkpt lat="45.2273" lon="5.93397">
        <ele>767.7</ele>
        <time>2020-12-19T14:57:34.000Z</time>
      </trkpt>
      <trkpt lat="45.22718" lon="5.93413">
        <ele>770.17</ele>
        <time>2020-12-19T14:57:39.000Z</time>
      </trkpt>
      <trkpt lat="45.22704" lon="5.93428">
        <ele>771.29</ele>
        <time>2020-12-19T14:57:44.000Z</time>
      </trkpt>
      <trkpt lat="45.2269" lon="5.93437">
        <ele>771.89</ele>
        <time>2020-12-19T14:57:49.000Z</time>
      </trkpt>
      <trkpt lat="45.22677" lon="5.93446">
        <ele>774.65</ele>
        <time>2020-12-19T14:57:54.000Z</time>
      </trkpt>
      <trkpt lat="45.22663" lon="5.93456">
        <ele>776.75</ele>
        <time>2020-12-19T14:57:59.000Z</time>
      </trkpt>
      <trkpt lat="45.22655" lon="5.93466">
        <ele>778.88</ele>
        <time>2020-12-19T14:58:04.000Z</time>
      </trkpt>
      <trkpt lat="45.22647" lon="5.9347">
        <ele>780.03</ele>
        <time>2020-12-19T14:58:13.000Z</time>
      </trkpt>
      <trkpt lat="45.22635" lon="5.93469">
        <ele>771.84</ele>
        <time>2020-12-19T14:58:38.000Z</time>
      </trkpt>
      <trkpt lat="45.2262" lon="5.9347">
        <ele>774.76</ele>
        <time>2020-12-19T14:58:43.000Z</time>
      </trkpt>
      <trkpt lat="45.22603" lon="5.93471">
        <ele>776.98</ele>
        <time>2020-12-19T14:58:48.000Z</time>
      </trkpt>
      <trkpt lat="45.22581" lon="5.93469">
        <ele>777.26</ele>
        <time>2020-12-19T14:58:53.000Z</time>
      </trkpt>
      <trkpt lat="45.22554" lon="5.93462">
        <ele>777.68</ele>
        <time>2020-12-19T14:58:58.000Z</time>
      </trkpt>
      <trkpt lat="45.22526" lon="5.93457">
        <ele>778.87</ele>
        <time>2020-12-19T14:59:03.000Z</time>
      </trkpt>
      <trkpt lat="45.22496" lon="5.93443">
        <ele>779.11</ele>
        <time>2020-12-19T14:59:08.000Z</time>
      </trkpt>
      <trkpt lat="45.22459" lon="5.93407">
        <ele>778.15</ele>
        <time>2020-12-19T14:59:13.000Z</time>
      </trkpt>
      <trkpt lat="45.2242" lon="5.93365">
        <ele>772.12</ele>
        <time>2020-12-19T14:59:18.000Z</time>
      </trkpt>
      <trkpt lat="45.22368" lon="5.93338">
        <ele>768.97</ele>
        <time>2020-12-19T14:59:23.000Z</time>
      </trkpt>
      <trkpt lat="45.22315" lon="5.9331">
        <ele>763.38</ele>
        <time>2020-12-19T14:59:28.000Z</time>
      </trkpt>
      <trkpt lat="45.22264" lon="5.93294">
        <ele>764.28</ele>
        <time>2020-12-19T14:59:33.000Z</time>
      </trkpt>
      <trkpt lat="45.22221" lon="5.93329">
        <ele>760.28</ele>
        <time>2020-12-19T14:59:38.000Z</time>
      </trkpt>
      <trkpt lat="45.22181" lon="5.93353">
        <ele>764.16</ele>
        <time>2020-12-19T14:59:43.000Z</time>
      </trkpt>
      <trkpt lat="45.22147" lon="5.9334">
        <ele>763.48</ele>
        <time>2020-12-19T14:59:48.000Z</time>
      </trkpt>
      <trkpt lat="45.22115" lon="5.93324">
        <ele>761.33</ele>
        <time>2020-12-19T14:59:53.000Z</time>
      </trkpt>
      <trkpt lat="45.22096" lon="5.93302">
        <ele>762.88</ele>
        <time>2020-12-19T14:59:58.000Z</time>
      </trkpt>
      <trkpt lat="45.22077" lon="5.93286">
        <ele>764.93</ele>
        <time>2020-12-19T15:00:03.000Z</time>
      </trkpt>
      <trkpt lat="45.22058" lon="5.93268">
        <ele>764.57</ele>
        <time>2020-12-19T15:00:08.000Z</time>
      </trkpt>
      <trkpt lat="45.22033" lon="5.93249">
        <ele>768.46</ele>
        <time>2020-12-19T15:00:13.000Z</time>
      </trkpt>
      <trkpt lat="45.22017" lon="5.93234">
        <ele>770.6</ele>
        <time>2020-12-19T15:00:18.000Z</time>
      </trkpt>
      <trkpt lat="45.21992" lon="5.93227">
        <ele>770.02</ele>
        <time>2020-12-19T15:00:23.000Z</time>
      </trkpt>
      <trkpt lat="45.21966" lon="5.9323">
        <ele>767.84</ele>
        <time>2020-12-19T15:00:28.000Z</time>
      </trkpt>
      <trkpt lat="45.21941" lon="5.93251">
        <ele>765.15</ele>
        <time>2020-12-19T15:00:33.000Z</time>
      </trkpt>
      <trkpt lat="45.21918" lon="5.9328">
        <ele>762.5</ele>
        <time>2020-12-19T15:00:38.000Z</time>
      </trkpt>
      <trkpt lat="45.2189" lon="5.93304">
        <ele>761.95</ele>
        <time>2020-12-19T15:00:43.000Z</time>
      </trkpt>
      <trkpt lat="45.2186" lon="5.93324">
        <ele>758.16</ele>
        <time>2020-12-19T15:00:48.000Z</time>
      </trkpt>
      <trkpt lat="45.21834" lon="5.93346">
        <ele>756.55</ele>
        <time>2020-12-19T15:00:53.000Z</time>
      </trkpt>
      <trkpt lat="45.21806" lon="5.93369">
        <ele>756.28</ele>
        <time>2020-12-19T15:00:58.000Z</time>
      </trkpt>
      <trkpt lat="45.21783" lon="5.93384">
        <ele>753.96</ele>
        <time>2020-12-19T15:01:03.000Z</time>
      </trkpt>
      <trkpt lat="45.2176" lon="5.93393">
        <ele>756.29</ele>
        <time>2020-12-19T15:01:08.000Z</time>
      </trkpt>
      <trkpt lat="45.21738" lon="5.9339">
        <ele>759.56</ele>
        <time>2020-12-19T15:01:13.000Z</time>
      </trkpt>
      <trkpt lat="45.21715" lon="5.93377">
        <ele>761.59</ele>
        <time>2020-12-19T15:01:18.000Z</time>
      </trkpt>
      <trkpt lat="45.21694" lon="5.93367">
        <ele>762.84</ele>
        <time>2020-12-19T15:01:23.000Z</time>
      </trkpt>
      <trkpt lat="45.21672" lon="5.93362">
        <ele>760.87</ele>
        <time>2020-12-19T15:01:28.000Z</time>
      </trkpt>
      <trkpt lat="45.21651" lon="5.93372">
        <ele>760.88</ele>
        <time>2020-12-19T15:01:33.000Z</time>
      </trkpt>
      <trkpt lat="45.21627" lon="5.93394">
        <ele>761.31</ele>
        <time>2020-12-19T15:01:38.000Z</time>
      </trkpt>
      <trkpt lat="45.21601" lon="5.93423">
        <ele>761.79</ele>
        <time>2020-12-19T15:01:43.000Z</time>
      </trkpt>
      <trkpt lat="45.21578" lon="5.93449">
        <ele>764.03</ele>
        <time>2020-12-19T15:01:48.000Z</time>
      </trkpt>
      <trkpt lat="45.21554" lon="5.93478">
        <ele>763.29</ele>
        <time>2020-12-19T15:01:53.000Z</time>
      </trkpt>
      <trkpt lat="45.21531" lon="5.935">
        <ele>762.4</ele>
        <time>2020-12-19T15:01:58.000Z</time>
      </trkpt>
      <trkpt lat="45.21507" lon="5.93513">
        <ele>761.77</ele>
        <time>2020-12-19T15:02:03.000Z</time>
      </trkpt>
      <trkpt lat="45.21477" lon="5.93521">
        <ele>763.23</ele>
        <time>2020-12-19T15:02:08.000Z</time>
      </trkpt>
      <trkpt lat="45.21448" lon="5.93523">
        <ele>764.19</ele>
        <time>2020-12-19T15:02:13.000Z</time>
      </trkpt>
      <trkpt lat="45.21426" lon="5.93504">
        <ele>761.71</ele>
        <time>2020-12-19T15:02:18.000Z</time>
      </trkpt>
      <trkpt lat="45.21412" lon="5.9348">
        <ele>765.28</ele>
        <time>2020-12-19T15:02:23.000Z</time>
      </trkpt>
      <trkpt lat="45.21398" lon="5.93451">
        <ele>767.27</ele>
        <time>2020-12-19T15:02:28.000Z</time>
      </trkpt>
      <trkpt lat="45.21385" lon="5.93419">
        <ele>767.83</ele>
        <time>2020-12-19T15:02:33.000Z</time>
      </trkpt>
      <trkpt lat="45.21378" lon="5.9338">
        <ele>765.74</ele>
        <time>2020-12-19T15:02:38.000Z</time>
      </trkpt>
      <trkpt lat="45.21372" lon="5.93346">
        <ele>767.64</ele>
        <time>2020-12-19T15:02:43.000Z</time>
      </trkpt>
      <trkpt lat="45.21382" lon="5.9331">
        <ele>768.37</ele>
        <time>2020-12-19T15:02:48.000Z</time>
      </trkpt>
      <trkpt lat="45.2141" lon="5.93282">
        <ele>767.97</ele>
        <time>2020-12-19T15:02:53.000Z</time>
      </trkpt>
      <trkpt lat="45.21432" lon="5.93271">
        <ele>768.61</ele>
        <time>2020-12-19T15:02:58.000Z</time>
      </trkpt>
      <trkpt lat="45.21459" lon="5.93262">
        <ele>766.75</ele>
        <time>2020-12-19T15:03:03.000Z</time>
      </trkpt>
      <trkpt lat="45.21487" lon="5.93254">
        <ele>768.84</ele>
        <time>2020-12-19T15:03:08.000Z</time>
      </trkpt>
      <trkpt lat="45.21517" lon="5.9324">
        <ele>765.72</ele>
        <time>2020-12-19T15:03:13.000Z</time>
      </trkpt>
      <trkpt lat="45.21545" lon="5.93223">
        <ele>768.7</ele>
        <time>2020-12-19T15:03:18.000Z</time>
      </trkpt>
      <trkpt lat="45.21567" lon="5.9321">
        <ele>771.01</ele>
        <time>2020-12-19T15:03:23.000Z</time>
      </trkpt>
      <trkpt lat="45.21587" lon="5.93195">
        <ele>768.89</ele>
        <time>2020-12-19T15:03:28.000Z</time>
      </trkpt>
      <trkpt lat="45.21604" lon="5.93181">
        <ele>771.92</ele>
        <time>2020-12-19T15:03:33.000Z</time>
      </trkpt>
      <trkpt lat="45.2163" lon="5.93156">
        <ele>772.26</ele>
        <time>2020-12-19T15:03:38.000Z</time>
      </trkpt>
      <trkpt lat="45.21655" lon="5.93127">
        <ele>772.01</ele>
        <time>2020-12-19T15:03:43.000Z</time>
      </trkpt>
      <trkpt lat="45.21675" lon="5.93097">
        <ele>768.26</ele>
        <time>2020-12-19T15:03:48.000Z</time>
      </trkpt>
      <trkpt lat="45.21701" lon="5.93075">
        <ele>768.38</ele>
        <time>2020-12-19T15:03:53.000Z</time>
      </trkpt>
      <trkpt lat="45.21736" lon="5.93059">
        <ele>766.21</ele>
        <time>2020-12-19T15:03:58.000Z</time>
      </trkpt>
      <trkpt lat="45.21779" lon="5.93033">
        <ele>761.53</ele>
        <time>2020-12-19T15:04:03.000Z</time>
      </trkpt>
      <trkpt lat="45.21813" lon="5.93001">
        <ele>761.97</ele>
        <time>2020-12-19T15:04:08.000Z</time>
      </trkpt>
      <trkpt lat="45.21855" lon="5.92959">
        <ele>758.95</ele>
        <time>2020-12-19T15:04:13.000Z</time>
      </trkpt>
      <trkpt lat="45.21882" lon="5.92931">
        <ele>759.56</ele>
        <time>2020-12-19T15:04:18.000Z</time>
      </trkpt>
      <trkpt lat="45.2191" lon="5.92898">
        <ele>757.8</ele>
        <time>2020-12-19T15:04:23.000Z</time>
      </trkpt>
      <trkpt lat="45.21931" lon="5.92883">
        <ele>757.36</ele>
        <time>2020-12-19T15:04:28.000Z</time>
      </trkpt>
      <trkpt lat="45.21959" lon="5.92868">
        <ele>758.06</ele>
        <time>2020-12-19T15:04:33.000Z</time>
      </trkpt>
      <trkpt lat="45.21986" lon="5.92851">
        <ele>757.91</ele>
        <time>2020-12-19T15:04:38.000Z</time>
      </trkpt>
      <trkpt lat="45.22013" lon="5.92832">
        <ele>755.95</ele>
        <time>2020-12-19T15:04:43.000Z</time>
      </trkpt>
      <trkpt lat="45.2204" lon="5.92817">
        <ele>757.48</ele>
        <time>2020-12-19T15:04:48.000Z</time>
      </trkpt>
      <trkpt lat="45.22068" lon="5.92806">
        <ele>754.66</ele>
        <time>2020-12-19T15:04:53.000Z</time>
      </trkpt>
      <trkpt lat="45.22093" lon="5.92802">
        <ele>754.75</ele>
        <time>2020-12-19T15:04:58.000Z</time>
      </trkpt>
      <trkpt lat="45.22123" lon="5.928">
        <ele>756.1</ele>
        <time>2020-12-19T15:05:03.000Z</time>
      </trkpt>
      <trkpt lat="45.22156" lon="5.92796">
        <ele>758.64</ele>
        <time>2020-12-19T15:05:08.000Z</time>
      </trkpt>
      <trkpt lat="45.22189" lon="5.92787">
        <ele>759.04</ele>
        <time>2020-12-19T15:05:13.000Z</time>
      </trkpt>
      <trkpt lat="45.22221" lon="5.92777">
        <ele>756.88</ele>
        <time>2020-12-19T15:05:18.000Z</time>
      </trkpt>
      <trkpt lat="45.22259" lon="5.92764">
        <ele>756.52</ele>
        <time>2020-12-19T15:05:23.000Z</time>
      </trkpt>
      <trkpt lat="45.22297" lon="5.92761">
        <ele>759.79</ele>
        <time>2020-12-19T15:05:28.000Z</time>
      </trkpt>
      <trkpt lat="45.22329" lon="5.9277">
        <ele>761.1</ele>
        <time>2020-12-19T15:05:33.000Z</time>
      </trkpt>
      <trkpt lat="45.22365" lon="5.92781">
        <ele>760.27</ele>
        <time>2020-12-19T15:05:38.000Z</time>
      </trkpt>
      <trkpt lat="45.22401" lon="5.92784">
        <ele>759.72</ele>
        <time>2020-12-19T15:05:43.000Z</time>
      </trkpt>
      <trkpt lat="45.22439" lon="5.9278">
        <ele>757.35</ele>
        <time>2020-12-19T15:05:48.000Z</time>
      </trkpt>
      <trkpt lat="45.2248" lon="5.92774">
        <ele>753.55</ele>
        <time>2020-12-19T15:05:53.000Z</time>
      </trkpt>
      <trkpt lat="45.22522" lon="5.92763">
        <ele>755.54</ele>
        <time>2020-12-19T15:05:58.000Z</time>
      </trkpt>
      <trkpt lat="45.22555" lon="5.92727">
        <ele>750.92</ele>
        <time>2020-12-19T15:06:03.000Z</time>
      </trkpt>
      <trkpt lat="45.2258" lon="5.92696">
        <ele>749.98</ele>
        <time>2020-12-19T15:06:08.000Z</time>
      </trkpt>
      <trkpt lat="45.22595" lon="5.92668">
        <ele>750.58</ele>
        <time>2020-12-19T15:06:13.000Z</time>
      </trkpt>
      <trkpt lat="45.22597" lon="5.92635">
        <ele>747.97</ele>
        <time>2020-12-19T15:06:18.000Z</time>
      </trkpt>
      <trkpt lat="45.22595" lon="5.92596">
        <ele>745.94</ele>
        <time>2020-12-19T15:06:23.000Z</time>
      </trkpt>
      <trkpt lat="45.2259" lon="5.92559">
        <ele>745.62</ele>
        <time>2020-12-19T15:06:28.000Z</time>
      </trkpt>
      <trkpt lat="45.22594" lon="5.92525">
        <ele>743.61</ele>
        <time>2020-12-19T15:06:33.000Z</time>
      </trkpt>
      <trkpt lat="45.226" lon="5.92491">
        <ele>744.19</ele>
        <time>2020-12-19T15:06:38.000Z</time>
      </trkpt>
      <trkpt lat="45.22606" lon="5.92456">
        <ele>746.1</ele>
        <time>2020-12-19T15:06:43.000Z</time>
      </trkpt>
      <trkpt lat="45.22612" lon="5.92422">
        <ele>749.05</ele>
        <time>2020-12-19T15:06:48.000Z</time>
      </trkpt>
      <trkpt lat="45.22617" lon="5.92386">
        <ele>748.75</ele>
        <time>2020-12-19T15:06:53.000Z</time>
      </trkpt>
      <trkpt lat="45.22626" lon="5.92349">
        <ele>750.11</ele>
        <time>2020-12-19T15:06:58.000Z</time>
      </trkpt>
      <trkpt lat="45.22642" lon="5.92312">
        <ele>752.34</ele>
        <time>2020-12-19T15:07:03.000Z</time>
      </trkpt>
      <trkpt lat="45.2266" lon="5.92277">
        <ele>750.13</ele>
        <time>2020-12-19T15:07:08.000Z</time>
      </trkpt>
      <trkpt lat="45.22682" lon="5.92243">
        <ele>748.42</ele>
        <time>2020-12-19T15:07:13.000Z</time>
      </trkpt>
      <trkpt lat="45.22708" lon="5.92197">
        <ele>747.57</ele>
        <time>2020-12-19T15:07:18.000Z</time>
      </trkpt>
      <trkpt lat="45.22736" lon="5.92145">
        <ele>744.62</ele>
        <time>2020-12-19T15:07:23.000Z</time>
      </trkpt>
      <trkpt lat="45.22762" lon="5.9209">
        <ele>744.54</ele>
        <time>2020-12-19T15:07:28.000Z</time>
      </trkpt>
      <trkpt lat="45.22776" lon="5.92036">
        <ele>745.44</ele>
        <time>2020-12-19T15:07:33.000Z</time>
      </trkpt>
      <trkpt lat="45.22773" lon="5.9199">
        <ele>737.38</ele>
        <time>2020-12-19T15:07:38.000Z</time>
      </trkpt>
      <trkpt lat="45.22794" lon="5.91958">
        <ele>738.6</ele>
        <time>2020-12-19T15:07:43.000Z</time>
      </trkpt>
      <trkpt lat="45.2282" lon="5.91944">
        <ele>738.91</ele>
        <time>2020-12-19T15:07:48.000Z</time>
      </trkpt>
      <trkpt lat="45.22843" lon="5.91932">
        <ele>738.22</ele>
        <time>2020-12-19T15:07:53.000Z</time>
      </trkpt>
      <trkpt lat="45.22861" lon="5.91913">
        <ele>735.66</ele>
        <time>2020-12-19T15:07:58.000Z</time>
      </trkpt>
      <trkpt lat="45.2288" lon="5.9189">
        <ele>737.23</ele>
        <time>2020-12-19T15:08:03.000Z</time>
      </trkpt>
      <trkpt lat="45.22899" lon="5.91867">
        <ele>738.1</ele>
        <time>2020-12-19T15:08:08.000Z</time>
      </trkpt>
      <trkpt lat="45.22915" lon="5.91844">
        <ele>739.97</ele>
        <time>2020-12-19T15:08:13.000Z</time>
      </trkpt>
      <trkpt lat="45.22931" lon="5.91816">
        <ele>739.5</ele>
        <time>2020-12-19T15:08:18.000Z</time>
      </trkpt>
      <trkpt lat="45.22947" lon="5.91787">
        <ele>739.84</ele>
        <time>2020-12-19T15:08:23.000Z</time>
      </trkpt>
      <trkpt lat="45.22965" lon="5.91761">
        <ele>741.61</ele>
        <time>2020-12-19T15:08:28.000Z</time>
      </trkpt>
      <trkpt lat="45.22974" lon="5.9173">
        <ele>742.23</ele>
        <time>2020-12-19T15:08:33.000Z</time>
      </trkpt>
      <trkpt lat="45.22983" lon="5.91695">
        <ele>745.43</ele>
        <time>2020-12-19T15:08:38.000Z</time>
      </trkpt>
      <trkpt lat="45.22986" lon="5.91661">
        <ele>749.63</ele>
        <time>2020-12-19T15:08:43.000Z</time>
      </trkpt>
      <trkpt lat="45.22988" lon="5.91626">
        <ele>747.12</ele>
        <time>2020-12-19T15:08:48.000Z</time>
      </trkpt>
      <trkpt lat="45.22989" lon="5.91591">
        <ele>745.81</ele>
        <time>2020-12-19T15:08:53.000Z</time>
      </trkpt>
      <trkpt lat="45.22979" lon="5.91565">
        <ele>748.27</ele>
        <time>2020-12-19T15:08:58.000Z</time>
      </trkpt>
      <trkpt lat="45.22969" lon="5.91533">
        <ele>751.02</ele>
        <time>2020-12-19T15:09:03.000Z</time>
      </trkpt>
      <trkpt lat="45.22964" lon="5.91492">
        <ele>752.8</ele>
        <time>2020-12-19T15:09:08.000Z</time>
      </trkpt>
      <trkpt lat="45.22972" lon="5.91451">
        <ele>756.19</ele>
        <time>2020-12-19T15:09:13.000Z</time>
      </trkpt>
      <trkpt lat="45.22974" lon="5.91421">
        <ele>756.47</ele>
        <time>2020-12-19T15:09:18.000Z</time>
      </trkpt>
      <trkpt lat="45.22982" lon="5.91402">
        <ele>753.67</ele>
        <time>2020-12-19T15:09:23.000Z</time>
      </trkpt>
      <trkpt lat="45.22987" lon="5.91375">
        <ele>749.58</ele>
        <time>2020-12-19T15:09:28.000Z</time>
      </trkpt>
      <trkpt lat="45.22994" lon="5.91349">
        <ele>749.71</ele>
        <time>2020-12-19T15:09:33.000Z</time>
      </trkpt>
      <trkpt lat="45.23015" lon="5.91319">
        <ele>747.38</ele>
        <time>2020-12-19T15:09:38.000Z</time>
      </trkpt>
      <trkpt lat="45.23044" lon="5.91282">
        <ele>744.64</ele>
        <time>2020-12-19T15:09:43.000Z</time>
      </trkpt>
      <trkpt lat="45.23078" lon="5.91248">
        <ele>747.13</ele>
        <time>2020-12-19T15:09:48.000Z</time>
      </trkpt>
      <trkpt lat="45.23117" lon="5.91211">
        <ele>743.61</ele>
        <time>2020-12-19T15:09:53.000Z</time>
      </trkpt>
      <trkpt lat="45.23171" lon="5.91184">
        <ele>741.75</ele>
        <time>2020-12-19T15:09:58.000Z</time>
      </trkpt>
      <trkpt lat="45.2321" lon="5.91131">
        <ele>742.84</ele>
        <time>2020-12-19T15:10:03.000Z</time>
      </trkpt>
      <trkpt lat="45.23236" lon="5.91065">
        <ele>741.38</ele>
        <time>2020-12-19T15:10:08.000Z</time>
      </trkpt>
      <trkpt lat="45.23283" lon="5.91012">
        <ele>733.93</ele>
        <time>2020-12-19T15:10:13.000Z</time>
      </trkpt>
      <trkpt lat="45.23323" lon="5.90948">
        <ele>729.08</ele>
        <time>2020-12-19T15:10:18.000Z</time>
      </trkpt>
      <trkpt lat="45.23351" lon="5.90867">
        <ele>725.04</ele>
        <time>2020-12-19T15:10:23.000Z</time>
      </trkpt>
      <trkpt lat="45.23382" lon="5.90787">
        <ele>713.34</ele>
        <time>2020-12-19T15:10:28.000Z</time>
      </trkpt>
      <trkpt lat="45.23416" lon="5.90718">
        <ele>714.84</ele>
        <time>2020-12-19T15:10:33.000Z</time>
      </trkpt>
      <trkpt lat="45.2344" lon="5.90651">
        <ele>712.71</ele>
        <time>2020-12-19T15:10:38.000Z</time>
      </trkpt>
      <trkpt lat="45.23465" lon="5.90584">
        <ele>711.53</ele>
        <time>2020-12-19T15:10:43.000Z</time>
      </trkpt>
      <trkpt lat="45.23477" lon="5.90531">
        <ele>709.93</ele>
        <time>2020-12-19T15:10:48.000Z</time>
      </trkpt>
      <trkpt lat="45.23484" lon="5.90486">
        <ele>708.19</ele>
        <time>2020-12-19T15:10:53.000Z</time>
      </trkpt>
      <trkpt lat="45.23493" lon="5.90448">
        <ele>706.36</ele>
        <time>2020-12-19T15:10:58.000Z</time>
      </trkpt>
      <trkpt lat="45.23498" lon="5.90412">
        <ele>707.55</ele>
        <time>2020-12-19T15:11:03.000Z</time>
      </trkpt>
      <trkpt lat="45.23503" lon="5.90375">
        <ele>707.04</ele>
        <time>2020-12-19T15:11:08.000Z</time>
      </trkpt>
      <trkpt lat="45.23503" lon="5.90339">
        <ele>705.9</ele>
        <time>2020-12-19T15:11:13.000Z</time>
      </trkpt>
      <trkpt lat="45.23492" lon="5.90301">
        <ele>703.7</ele>
        <time>2020-12-19T15:11:18.000Z</time>
      </trkpt>
      <trkpt lat="45.23473" lon="5.90266">
        <ele>701.85</ele>
        <time>2020-12-19T15:11:23.000Z</time>
      </trkpt>
      <trkpt lat="45.23459" lon="5.90251">
        <ele>702.32</ele>
        <time>2020-12-19T15:11:28.000Z</time>
      </trkpt>
      <trkpt lat="45.2345" lon="5.90248">
        <ele>699.57</ele>
        <time>2020-12-19T15:11:55.000Z</time>
      </trkpt>
      <trkpt lat="45.2344" lon="5.9025">
        <ele>692.27</ele>
        <time>2020-12-19T15:13:23.000Z</time>
      </trkpt>
      <trkpt lat="45.23423" lon="5.90257">
        <ele>693.93</ele>
        <time>2020-12-19T15:13:28.000Z</time>
      </trkpt>
      <trkpt lat="45.23396" lon="5.9027">
        <ele>691.45</ele>
        <time>2020-12-19T15:13:33.000Z</time>
      </trkpt>
      <trkpt lat="45.23368" lon="5.90285">
        <ele>692.52</ele>
        <time>2020-12-19T15:13:38.000Z</time>
      </trkpt>
      <trkpt lat="45.23329" lon="5.90301">
        <ele>691.91</ele>
        <time>2020-12-19T15:13:43.000Z</time>
      </trkpt>
      <trkpt lat="45.23294" lon="5.90322">
        <ele>693.88</ele>
        <time>2020-12-19T15:13:48.000Z</time>
      </trkpt>
      <trkpt lat="45.23249" lon="5.90326">
        <ele>696.78</ele>
        <time>2020-12-19T15:13:53.000Z</time>
      </trkpt>
      <trkpt lat="45.23209" lon="5.90324">
        <ele>694.45</ele>
        <time>2020-12-19T15:13:58.000Z</time>
      </trkpt>
      <trkpt lat="45.23174" lon="5.90329">
        <ele>693.91</ele>
        <time>2020-12-19T15:14:03.000Z</time>
      </trkpt>
      <trkpt lat="45.23142" lon="5.9032">
        <ele>695.4</ele>
        <time>2020-12-19T15:14:08.000Z</time>
      </trkpt>
      <trkpt lat="45.23109" lon="5.90318">
        <ele>690.52</ele>
        <time>2020-12-19T15:14:13.000Z</time>
      </trkpt>
      <trkpt lat="45.23074" lon="5.90322">
        <ele>688.88</ele>
        <time>2020-12-19T15:14:18.000Z</time>
      </trkpt>
      <trkpt lat="45.23044" lon="5.9033">
        <ele>686.21</ele>
        <time>2020-12-19T15:14:23.000Z</time>
      </trkpt>
      <trkpt lat="45.23011" lon="5.9034">
        <ele>685.57</ele>
        <time>2020-12-19T15:14:28.000Z</time>
      </trkpt>
      <trkpt lat="45.2298" lon="5.90359">
        <ele>683.54</ele>
        <time>2020-12-19T15:14:33.000Z</time>
      </trkpt>
      <trkpt lat="45.22951" lon="5.90357">
        <ele>682.97</ele>
        <time>2020-12-19T15:14:38.000Z</time>
      </trkpt>
      <trkpt lat="45.22942" lon="5.90334">
        <ele>687.28</ele>
        <time>2020-12-19T15:14:43.000Z</time>
      </trkpt>
      <trkpt lat="45.22925" lon="5.90309">
        <ele>685.75</ele>
        <time>2020-12-19T15:14:48.000Z</time>
      </trkpt>
      <trkpt lat="45.2291" lon="5.90295">
        <ele>687.06</ele>
        <time>2020-12-19T15:14:53.000Z</time>
      </trkpt>
      <trkpt lat="45.2289" lon="5.90282">
        <ele>685.96</ele>
        <time>2020-12-19T15:14:58.000Z</time>
      </trkpt>
      <trkpt lat="45.22873" lon="5.90265">
        <ele>688.92</ele>
        <time>2020-12-19T15:15:03.000Z</time>
      </trkpt>
      <trkpt lat="45.22856" lon="5.90248">
        <ele>692.91</ele>
        <time>2020-12-19T15:15:08.000Z</time>
      </trkpt>
      <trkpt lat="45.22837" lon="5.9024">
        <ele>694.78</ele>
        <time>2020-12-19T15:15:13.000Z</time>
      </trkpt>
      <trkpt lat="45.22815" lon="5.90237">
        <ele>696.08</ele>
        <time>2020-12-19T15:15:18.000Z</time>
      </trkpt>
      <trkpt lat="45.22796" lon="5.9024">
        <ele>694.45</ele>
        <time>2020-12-19T15:15:23.000Z</time>
      </trkpt>
      <trkpt lat="45.22776" lon="5.9024">
        <ele>694.12</ele>
        <time>2020-12-19T15:15:28.000Z</time>
      </trkpt>
      <trkpt lat="45.22753" lon="5.90239">
        <ele>692.5</ele>
        <time>2020-12-19T15:15:33.000Z</time>
      </trkpt>
      <trkpt lat="45.2273" lon="5.90239">
        <ele>696.24</ele>
        <time>2020-12-19T15:15:38.000Z</time>
      </trkpt>
      <trkpt lat="45.22707" lon="5.90244">
        <ele>694.9</ele>
        <time>2020-12-19T15:15:43.000Z</time>
      </trkpt>
      <trkpt lat="45.2268" lon="5.90255">
        <ele>695.61</ele>
        <time>2020-12-19T15:15:48.000Z</time>
      </trkpt>
      <trkpt lat="45.2265" lon="5.90269">
        <ele>695.91</ele>
        <time>2020-12-19T15:15:53.000Z</time>
      </trkpt>
      <trkpt lat="45.22632" lon="5.90292">
        <ele>697.39</ele>
        <time>2020-12-19T15:15:58.000Z</time>
      </trkpt>
      <trkpt lat="45.22621" lon="5.90319">
        <ele>694.87</ele>
        <time>2020-12-19T15:16:03.000Z</time>
      </trkpt>
      <trkpt lat="45.2261" lon="5.90349">
        <ele>692.43</ele>
        <time>2020-12-19T15:16:08.000Z</time>
      </trkpt>
      <trkpt lat="45.22604" lon="5.90387">
        <ele>690.94</ele>
        <time>2020-12-19T15:16:13.000Z</time>
      </trkpt>
      <trkpt lat="45.22598" lon="5.90417">
        <ele>688.09</ele>
        <time>2020-12-19T15:16:18.000Z</time>
      </trkpt>
      <trkpt lat="45.2259" lon="5.90445">
        <ele>688.28</ele>
        <time>2020-12-19T15:16:23.000Z</time>
      </trkpt>
      <trkpt lat="45.22585" lon="5.90479">
        <ele>686.97</ele>
        <time>2020-12-19T15:16:28.000Z</time>
      </trkpt>
      <trkpt lat="45.22576" lon="5.90512">
        <ele>684.96</ele>
        <time>2020-12-19T15:16:33.000Z</time>
      </trkpt>
      <trkpt lat="45.2255" lon="5.90513">
        <ele>687.91</ele>
        <time>2020-12-19T15:16:38.000Z</time>
      </trkpt>
      <trkpt lat="45.22537" lon="5.90487">
        <ele>685.51</ele>
        <time>2020-12-19T15:16:43.000Z</time>
      </trkpt>
      <trkpt lat="45.22524" lon="5.90459">
        <ele>686.49</ele>
        <time>2020-12-19T15:16:48.000Z</time>
      </trkpt>
      <trkpt lat="45.22514" lon="5.90433">
        <ele>693.52</ele>
        <time>2020-12-19T15:16:53.000Z</time>
      </trkpt>
      <trkpt lat="45.22501" lon="5.90413">
        <ele>695.25</ele>
        <time>2020-12-19T15:16:58.000Z</time>
      </trkpt>
      <trkpt lat="45.22485" lon="5.90401">
        <ele>694.21</ele>
        <time>2020-12-19T15:17:03.000Z</time>
      </trkpt>
      <trkpt lat="45.22464" lon="5.90382">
        <ele>697.36</ele>
        <time>2020-12-19T15:17:08.000Z</time>
      </trkpt>
      <trkpt lat="45.22445" lon="5.90357">
        <ele>694.97</ele>
        <time>2020-12-19T15:17:13.000Z</time>
      </trkpt>
      <trkpt lat="45.22425" lon="5.90335">
        <ele>699.87</ele>
        <time>2020-12-19T15:17:18.000Z</time>
      </trkpt>
      <trkpt lat="45.22411" lon="5.90307">
        <ele>702.04</ele>
        <time>2020-12-19T15:17:23.000Z</time>
      </trkpt>
      <trkpt lat="45.224" lon="5.90278">
        <ele>706.2</ele>
        <time>2020-12-19T15:17:28.000Z</time>
      </trkpt>
      <trkpt lat="45.22388" lon="5.90252">
        <ele>705.39</ele>
        <time>2020-12-19T15:17:33.000Z</time>
      </trkpt>
      <trkpt lat="45.22378" lon="5.90226">
        <ele>710.13</ele>
        <time>2020-12-19T15:17:38.000Z</time>
      </trkpt>
      <trkpt lat="45.22363" lon="5.90201">
        <ele>709.65</ele>
        <time>2020-12-19T15:17:43.000Z</time>
      </trkpt>
      <trkpt lat="45.22339" lon="5.90178">
        <ele>703.76</ele>
        <time>2020-12-19T15:17:48.000Z</time>
      </trkpt>
      <trkpt lat="45.22323" lon="5.90163">
        <ele>704.6</ele>
        <time>2020-12-19T15:17:53.000Z</time>
      </trkpt>
      <trkpt lat="45.223" lon="5.90147">
        <ele>706.28</ele>
        <time>2020-12-19T15:17:58.000Z</time>
      </trkpt>
      <trkpt lat="45.22275" lon="5.9013">
        <ele>706.67</ele>
        <time>2020-12-19T15:18:03.000Z</time>
      </trkpt>
      <trkpt lat="45.22255" lon="5.90119">
        <ele>708.68</ele>
        <time>2020-12-19T15:18:08.000Z</time>
      </trkpt>
      <trkpt lat="45.2223" lon="5.90121">
        <ele>708.1</ele>
        <time>2020-12-19T15:18:13.000Z</time>
      </trkpt>
      <trkpt lat="45.22211" lon="5.90141">
        <ele>708.72</ele>
        <time>2020-12-19T15:18:18.000Z</time>
      </trkpt>
      <trkpt lat="45.22193" lon="5.90164">
        <ele>705.77</ele>
        <time>2020-12-19T15:18:23.000Z</time>
      </trkpt>
      <trkpt lat="45.22168" lon="5.90185">
        <ele>706.36</ele>
        <time>2020-12-19T15:18:28.000Z</time>
      </trkpt>
      <trkpt lat="45.22143" lon="5.90207">
        <ele>711.32</ele>
        <time>2020-12-19T15:18:33.000Z</time>
      </trkpt>
      <trkpt lat="45.22116" lon="5.90229">
        <ele>716.21</ele>
        <time>2020-12-19T15:18:38.000Z</time>
      </trkpt>
      <trkpt lat="45.22085" lon="5.90244">
        <ele>718.81</ele>
        <time>2020-12-19T15:18:43.000Z</time>
      </trkpt>
      <trkpt lat="45.22053" lon="5.90251">
        <ele>718.15</ele>
        <time>2020-12-19T15:18:48.000Z</time>
      </trkpt>
      <trkpt lat="45.22019" lon="5.90239">
        <ele>715.05</ele>
        <time>2020-12-19T15:18:53.000Z</time>
      </trkpt>
      <trkpt lat="45.21998" lon="5.90224">
        <ele>715.73</ele>
        <time>2020-12-19T15:18:58.000Z</time>
      </trkpt>
      <trkpt lat="45.21982" lon="5.90211">
        <ele>716.49</ele>
        <time>2020-12-19T15:19:03.000Z</time>
      </trkpt>
      <trkpt lat="45.21962" lon="5.90195">
        <ele>715.54</ele>
        <time>2020-12-19T15:19:08.000Z</time>
      </trkpt>
      <trkpt lat="45.2195" lon="5.90176">
        <ele>716.08</ele>
        <time>2020-12-19T15:19:13.000Z</time>
      </trkpt>
      <trkpt lat="45.21937" lon="5.90153">
        <ele>715.61</ele>
        <time>2020-12-19T15:19:18.000Z</time>
      </trkpt>
      <trkpt lat="45.21933" lon="5.90127">
        <ele>718.88</ele>
        <time>2020-12-19T15:19:23.000Z</time>
      </trkpt>
      <trkpt lat="45.2194" lon="5.90098">
        <ele>719.96</ele>
        <time>2020-12-19T15:19:28.000Z</time>
      </trkpt>
      <trkpt lat="45.21941" lon="5.90068">
        <ele>723.47</ele>
        <time>2020-12-19T15:19:33.000Z</time>
      </trkpt>
      <trkpt lat="45.21929" lon="5.90043">
        <ele>727.76</ele>
        <time>2020-12-19T15:19:38.000Z</time>
      </trkpt>
      <trkpt lat="45.21911" lon="5.90027">
        <ele>725.04</ele>
        <time>2020-12-19T15:19:43.000Z</time>
      </trkpt>
      <trkpt lat="45.21889" lon="5.90009">
        <ele>723.93</ele>
        <time>2020-12-19T15:19:48.000Z</time>
      </trkpt>
      <trkpt lat="45.21869" lon="5.89995">
        <ele>724.13</ele>
        <time>2020-12-19T15:19:53.000Z</time>
      </trkpt>
      <trkpt lat="45.21847" lon="5.89983">
        <ele>722.37</ele>
        <time>2020-12-19T15:19:58.000Z</time>
      </trkpt>
      <trkpt lat="45.21823" lon="5.89972">
        <ele>719.49</ele>
        <time>2020-12-19T15:20:03.000Z</time>
      </trkpt>
      <trkpt lat="45.21799" lon="5.89961">
        <ele>718.98</ele>
        <time>2020-12-19T15:20:08.000Z</time>
      </trkpt>
      <trkpt lat="45.21778" lon="5.89954">
        <ele>718.3</ele>
        <time>2020-12-19T15:20:13.000Z</time>
      </trkpt>
      <trkpt lat="45.21756" lon="5.89944">
        <ele>717.03</ele>
        <time>2020-12-19T15:20:18.000Z</time>
      </trkpt>
      <trkpt lat="45.21734" lon="5.89931">
        <ele>716.97</ele>
        <time>2020-12-19T15:20:23.000Z</time>
      </trkpt>
      <trkpt lat="45.2171" lon="5.89917">
        <ele>715.46</ele>
        <time>2020-12-19T15:20:28.000Z</time>
      </trkpt>
      <trkpt lat="45.21686" lon="5.89882">
        <ele>715.33</ele>
        <time>2020-12-19T15:20:33.000Z</time>
      </trkpt>
      <trkpt lat="45.21665" lon="5.89861">
        <ele>720.13</ele>
        <time>2020-12-19T15:20:38.000Z</time>
      </trkpt>
      <trkpt lat="45.21643" lon="5.89847">
        <ele>720.46</ele>
        <time>2020-12-19T15:20:43.000Z</time>
      </trkpt>
      <trkpt lat="45.2162" lon="5.89828">
        <ele>721.49</ele>
        <time>2020-12-19T15:20:48.000Z</time>
      </trkpt>
      <trkpt lat="45.21598" lon="5.89812">
        <ele>724.34</ele>
        <time>2020-12-19T15:20:53.000Z</time>
      </trkpt>
      <trkpt lat="45.21574" lon="5.89795">
        <ele>727.24</ele>
        <time>2020-12-19T15:20:58.000Z</time>
      </trkpt>
      <trkpt lat="45.21549" lon="5.89779">
        <ele>731.06</ele>
        <time>2020-12-19T15:21:03.000Z</time>
      </trkpt>
      <trkpt lat="45.21527" lon="5.89764">
        <ele>728.3</ele>
        <time>2020-12-19T15:21:08.000Z</time>
      </trkpt>
      <trkpt lat="45.21505" lon="5.89751">
        <ele>732.87</ele>
        <time>2020-12-19T15:21:13.000Z</time>
      </trkpt>
      <trkpt lat="45.21482" lon="5.89735">
        <ele>731.07</ele>
        <time>2020-12-19T15:21:18.000Z</time>
      </trkpt>
      <trkpt lat="45.21459" lon="5.89729">
        <ele>736.47</ele>
        <time>2020-12-19T15:21:23.000Z</time>
      </trkpt>
      <trkpt lat="45.21434" lon="5.89728">
        <ele>738.91</ele>
        <time>2020-12-19T15:21:28.000Z</time>
      </trkpt>
      <trkpt lat="45.21409" lon="5.89731">
        <ele>741.1</ele>
        <time>2020-12-19T15:21:33.000Z</time>
      </trkpt>
      <trkpt lat="45.21388" lon="5.89742">
        <ele>740.18</ele>
        <time>2020-12-19T15:21:38.000Z</time>
      </trkpt>
      <trkpt lat="45.21364" lon="5.89755">
        <ele>740.06</ele>
        <time>2020-12-19T15:21:43.000Z</time>
      </trkpt>
      <trkpt lat="45.21339" lon="5.89764">
        <ele>742.66</ele>
        <time>2020-12-19T15:21:48.000Z</time>
      </trkpt>
      <trkpt lat="45.21312" lon="5.8978">
        <ele>747.4</ele>
        <time>2020-12-19T15:21:53.000Z</time>
      </trkpt>
      <trkpt lat="45.21295" lon="5.89787">
        <ele>750.72</ele>
        <time>2020-12-19T15:21:58.000Z</time>
      </trkpt>
      <trkpt lat="45.21271" lon="5.89787">
        <ele>753.35</ele>
        <time>2020-12-19T15:22:03.000Z</time>
      </trkpt>
      <trkpt lat="45.2125" lon="5.89792">
        <ele>755.43</ele>
        <time>2020-12-19T15:22:08.000Z</time>
      </trkpt>
      <trkpt lat="45.21227" lon="5.89789">
        <ele>757.06</ele>
        <time>2020-12-19T15:22:13.000Z</time>
      </trkpt>
      <trkpt lat="45.21205" lon="5.89774">
        <ele>755.31</ele>
        <time>2020-12-19T15:22:18.000Z</time>
      </trkpt>
      <trkpt lat="45.21183" lon="5.8976">
        <ele>756.63</ele>
        <time>2020-12-19T15:22:23.000Z</time>
      </trkpt>
      <trkpt lat="45.2116" lon="5.8976">
        <ele>761.25</ele>
        <time>2020-12-19T15:22:28.000Z</time>
      </trkpt>
      <trkpt lat="45.21137" lon="5.89772">
        <ele>760.16</ele>
        <time>2020-12-19T15:22:33.000Z</time>
      </trkpt>
      <trkpt lat="45.21117" lon="5.89781">
        <ele>761.75</ele>
        <time>2020-12-19T15:22:38.000Z</time>
      </trkpt>
      <trkpt lat="45.21097" lon="5.8978">
        <ele>762.88</ele>
        <time>2020-12-19T15:22:43.000Z</time>
      </trkpt>
      <trkpt lat="45.21078" lon="5.89766">
        <ele>762.48</ele>
        <time>2020-12-19T15:22:48.000Z</time>
      </trkpt>
      <trkpt lat="45.21047" lon="5.89767">
        <ele>759.99</ele>
        <time>2020-12-19T15:22:53.000Z</time>
      </trkpt>
      <trkpt lat="45.21013" lon="5.89776">
        <ele>759.5</ele>
        <time>2020-12-19T15:22:58.000Z</time>
      </trkpt>
      <trkpt lat="45.20985" lon="5.89773">
        <ele>760.01</ele>
        <time>2020-12-19T15:23:03.000Z</time>
      </trkpt>
      <trkpt lat="45.20972" lon="5.89747">
        <ele>761.87</ele>
        <time>2020-12-19T15:23:08.000Z</time>
      </trkpt>
      <trkpt lat="45.20978" lon="5.89717">
        <ele>764.6</ele>
        <time>2020-12-19T15:23:13.000Z</time>
      </trkpt>
      <trkpt lat="45.20993" lon="5.89691">
        <ele>765.83</ele>
        <time>2020-12-19T15:23:18.000Z</time>
      </trkpt>
      <trkpt lat="45.2101" lon="5.89668">
        <ele>766.08</ele>
        <time>2020-12-19T15:23:23.000Z</time>
      </trkpt>
      <trkpt lat="45.21026" lon="5.89638">
        <ele>764.38</ele>
        <time>2020-12-19T15:23:28.000Z</time>
      </trkpt>
      <trkpt lat="45.21031" lon="5.89602">
        <ele>763.02</ele>
        <time>2020-12-19T15:23:33.000Z</time>
      </trkpt>
      <trkpt lat="45.2103" lon="5.89566">
        <ele>759.41</ele>
        <time>2020-12-19T15:23:38.000Z</time>
      </trkpt>
      <trkpt lat="45.21032" lon="5.89528">
        <ele>761.76</ele>
        <time>2020-12-19T15:23:43.000Z</time>
      </trkpt>
      <trkpt lat="45.21034" lon="5.89488">
        <ele>761.7</ele>
        <time>2020-12-19T15:23:48.000Z</time>
      </trkpt>
      <trkpt lat="45.21047" lon="5.89449">
        <ele>760.59</ele>
        <time>2020-12-19T15:23:53.000Z</time>
      </trkpt>
      <trkpt lat="45.21062" lon="5.89422">
        <ele>758.48</ele>
        <time>2020-12-19T15:23:58.000Z</time>
      </trkpt>
      <trkpt lat="45.2108" lon="5.89389">
        <ele>756.18</ele>
        <time>2020-12-19T15:24:03.000Z</time>
      </trkpt>
      <trkpt lat="45.21098" lon="5.89356">
        <ele>752.68</ele>
        <time>2020-12-19T15:24:08.000Z</time>
      </trkpt>
      <trkpt lat="45.21115" lon="5.89325">
        <ele>751.9</ele>
        <time>2020-12-19T15:24:13.000Z</time>
      </trkpt>
      <trkpt lat="45.21138" lon="5.89303">
        <ele>751.31</ele>
        <time>2020-12-19T15:24:18.000Z</time>
      </trkpt>
      <trkpt lat="45.2116" lon="5.89291">
        <ele>748.78</ele>
        <time>2020-12-19T15:24:23.000Z</time>
      </trkpt>
      <trkpt lat="45.21178" lon="5.89273">
        <ele>744.81</ele>
        <time>2020-12-19T15:24:28.000Z</time>
      </trkpt>
      <trkpt lat="45.21192" lon="5.89245">
        <ele>751.55</ele>
        <time>2020-12-19T15:24:33.000Z</time>
      </trkpt>
      <trkpt lat="45.21201" lon="5.89216">
        <ele>752.01</ele>
        <time>2020-12-19T15:24:38.000Z</time>
      </trkpt>
      <trkpt lat="45.21218" lon="5.89193">
        <ele>751.03</ele>
        <time>2020-12-19T15:24:43.000Z</time>
      </trkpt>
      <trkpt lat="45.21241" lon="5.89178">
        <ele>751.02</ele>
        <time>2020-12-19T15:24:48.000Z</time>
      </trkpt>
      <trkpt lat="45.21262" lon="5.8917">
        <ele>754.36</ele>
        <time>2020-12-19T15:24:53.000Z</time>
      </trkpt>
      <trkpt lat="45.21276" lon="5.89157">
        <ele>753.51</ele>
        <time>2020-12-19T15:24:58.000Z</time>
      </trkpt>
      <trkpt lat="45.21289" lon="5.89148">
        <ele>752.55</ele>
        <time>2020-12-19T15:25:03.000Z</time>
      </trkpt>
      <trkpt lat="45.21307" lon="5.89134">
        <ele>754.46</ele>
        <time>2020-12-19T15:25:08.000Z</time>
      </trkpt>
      <trkpt lat="45.21325" lon="5.89119">
        <ele>755.63</ele>
        <time>2020-12-19T15:25:13.000Z</time>
      </trkpt>
      <trkpt lat="45.21343" lon="5.89109">
        <ele>757.63</ele>
        <time>2020-12-19T15:25:18.000Z</time>
      </trkpt>
      <trkpt lat="45.21363" lon="5.891">
        <ele>759.78</ele>
        <time>2020-12-19T15:25:23.000Z</time>
      </trkpt>
      <trkpt lat="45.21383" lon="5.89086">
        <ele>760.14</ele>
        <time>2020-12-19T15:25:28.000Z</time>
      </trkpt>
      <trkpt lat="45.21401" lon="5.89079">
        <ele>763.57</ele>
        <time>2020-12-19T15:25:33.000Z</time>
      </trkpt>
      <trkpt lat="45.2142" lon="5.89067">
        <ele>764.44</ele>
        <time>2020-12-19T15:25:38.000Z</time>
      </trkpt>
      <trkpt lat="45.21436" lon="5.89057">
        <ele>765.29</ele>
        <time>2020-12-19T15:25:43.000Z</time>
      </trkpt>
      <trkpt lat="45.21459" lon="5.89042">
        <ele>765.36</ele>
        <time>2020-12-19T15:25:48.000Z</time>
      </trkpt>
      <trkpt lat="45.21493" lon="5.8903">
        <ele>769.73</ele>
        <time>2020-12-19T15:25:53.000Z</time>
      </trkpt>
      <trkpt lat="45.21511" lon="5.89016">
        <ele>767.12</ele>
        <time>2020-12-19T15:25:58.000Z</time>
      </trkpt>
      <trkpt lat="45.21532" lon="5.89008">
        <ele>765.72</ele>
        <time>2020-12-19T15:26:03.000Z</time>
      </trkpt>
      <trkpt lat="45.21553" lon="5.89004">
        <ele>772.64</ele>
        <time>2020-12-19T15:26:08.000Z</time>
      </trkpt>
      <trkpt lat="45.2157" lon="5.88994">
        <ele>772.34</ele>
        <time>2020-12-19T15:26:13.000Z</time>
      </trkpt>
      <trkpt lat="45.21587" lon="5.88983">
        <ele>779.57</ele>
        <time>2020-12-19T15:26:18.000Z</time>
      </trkpt>
      <trkpt lat="45.21613" lon="5.88971">
        <ele>781.93</ele>
        <time>2020-12-19T15:26:23.000Z</time>
      </trkpt>
      <trkpt lat="45.21635" lon="5.88956">
        <ele>784.41</ele>
        <time>2020-12-19T15:26:28.000Z</time>
      </trkpt>
      <trkpt lat="45.21658" lon="5.88943">
        <ele>788.02</ele>
        <time>2020-12-19T15:26:33.000Z</time>
      </trkpt>
      <trkpt lat="45.21684" lon="5.8893">
        <ele>789.17</ele>
        <time>2020-12-19T15:26:38.000Z</time>
      </trkpt>
      <trkpt lat="45.21702" lon="5.88914">
        <ele>791.19</ele>
        <time>2020-12-19T15:26:43.000Z</time>
      </trkpt>
      <trkpt lat="45.21708" lon="5.88887">
        <ele>790.7</ele>
        <time>2020-12-19T15:26:48.000Z</time>
      </trkpt>
      <trkpt lat="45.21703" lon="5.88867">
        <ele>790.75</ele>
        <time>2020-12-19T15:26:53.000Z</time>
      </trkpt>
      <trkpt lat="45.21693" lon="5.88856">
        <ele>790.79</ele>
        <time>2020-12-19T15:26:58.000Z</time>
      </trkpt>
      <trkpt lat="45.21667" lon="5.88843">
        <ele>791.26</ele>
        <time>2020-12-19T15:27:03.000Z</time>
      </trkpt>
      <trkpt lat="45.21635" lon="5.8883">
        <ele>790.56</ele>
        <time>2020-12-19T15:27:08.000Z</time>
      </trkpt>
      <trkpt lat="45.21595" lon="5.88796">
        <ele>786.22</ele>
        <time>2020-12-19T15:27:13.000Z</time>
      </trkpt>
      <trkpt lat="45.21555" lon="5.88743">
        <ele>784.77</ele>
        <time>2020-12-19T15:27:18.000Z</time>
      </trkpt>
      <trkpt lat="45.21514" lon="5.88694">
        <ele>779.76</ele>
        <time>2020-12-19T15:27:23.000Z</time>
      </trkpt>
      <trkpt lat="45.21487" lon="5.88609">
        <ele>775.13</ele>
        <time>2020-12-19T15:27:28.000Z</time>
      </trkpt>
      <trkpt lat="45.21449" lon="5.88533">
        <ele>767.73</ele>
        <time>2020-12-19T15:27:33.000Z</time>
      </trkpt>
      <trkpt lat="45.21429" lon="5.8844">
        <ele>764.24</ele>
        <time>2020-12-19T15:27:38.000Z</time>
      </trkpt>
      <trkpt lat="45.21426" lon="5.88361">
        <ele>758.53</ele>
        <time>2020-12-19T15:27:43.000Z</time>
      </trkpt>
      <trkpt lat="45.2139" lon="5.8831">
        <ele>755.63</ele>
        <time>2020-12-19T15:27:48.000Z</time>
      </trkpt>
      <trkpt lat="45.2134" lon="5.88335">
        <ele>757.51</ele>
        <time>2020-12-19T15:27:53.000Z</time>
      </trkpt>
      <trkpt lat="45.21292" lon="5.88353">
        <ele>755.55</ele>
        <time>2020-12-19T15:27:58.000Z</time>
      </trkpt>
      <trkpt lat="45.21249" lon="5.88355">
        <ele>755.48</ele>
        <time>2020-12-19T15:28:03.000Z</time>
      </trkpt>
      <trkpt lat="45.21209" lon="5.88356">
        <ele>756.05</ele>
        <time>2020-12-19T15:28:08.000Z</time>
      </trkpt>
      <trkpt lat="45.21173" lon="5.88347">
        <ele>756.1</ele>
        <time>2020-12-19T15:28:13.000Z</time>
      </trkpt>
      <trkpt lat="45.21141" lon="5.88339">
        <ele>756.69</ele>
        <time>2020-12-19T15:28:18.000Z</time>
      </trkpt>
      <trkpt lat="45.21109" lon="5.88331">
        <ele>759.77</ele>
        <time>2020-12-19T15:28:23.000Z</time>
      </trkpt>
      <trkpt lat="45.21083" lon="5.88319">
        <ele>759.46</ele>
        <time>2020-12-19T15:28:28.000Z</time>
      </trkpt>
      <trkpt lat="45.21062" lon="5.88303">
        <ele>760.01</ele>
        <time>2020-12-19T15:28:33.000Z</time>
      </trkpt>
      <trkpt lat="45.21039" lon="5.88289">
        <ele>757.83</ele>
        <time>2020-12-19T15:28:38.000Z</time>
      </trkpt>
      <trkpt lat="45.21014" lon="5.88283">
        <ele>756.29</ele>
        <time>2020-12-19T15:28:43.000Z</time>
      </trkpt>
      <trkpt lat="45.20988" lon="5.8828">
        <ele>756.22</ele>
        <time>2020-12-19T15:28:48.000Z</time>
      </trkpt>
      <trkpt lat="45.20964" lon="5.88274">
        <ele>752.68</ele>
        <time>2020-12-19T15:28:53.000Z</time>
      </trkpt>
      <trkpt lat="45.20944" lon="5.88269">
        <ele>750.68</ele>
        <time>2020-12-19T15:28:58.000Z</time>
      </trkpt>
      <trkpt lat="45.20922" lon="5.88262">
        <ele>754.46</ele>
        <time>2020-12-19T15:29:03.000Z</time>
      </trkpt>
      <trkpt lat="45.20898" lon="5.8826">
        <ele>751.7</ele>
        <time>2020-12-19T15:29:08.000Z</time>
      </trkpt>
      <trkpt lat="45.20875" lon="5.88263">
        <ele>751.99</ele>
        <time>2020-12-19T15:29:13.000Z</time>
      </trkpt>
      <trkpt lat="45.20854" lon="5.88284">
        <ele>752.64</ele>
        <time>2020-12-19T15:29:18.000Z</time>
      </trkpt>
      <trkpt lat="45.2082" lon="5.88309">
        <ele>750.59</ele>
        <time>2020-12-19T15:29:23.000Z</time>
      </trkpt>
      <trkpt lat="45.20779" lon="5.88325">
        <ele>749.67</ele>
        <time>2020-12-19T15:29:28.000Z</time>
      </trkpt>
      <trkpt lat="45.20733" lon="5.88337">
        <ele>745.22</ele>
        <time>2020-12-19T15:29:33.000Z</time>
      </trkpt>
      <trkpt lat="45.20686" lon="5.8833">
        <ele>740.56</ele>
        <time>2020-12-19T15:29:38.000Z</time>
      </trkpt>
      <trkpt lat="45.20657" lon="5.88272">
        <ele>735.36</ele>
        <time>2020-12-19T15:29:43.000Z</time>
      </trkpt>
      <trkpt lat="45.20621" lon="5.88241">
        <ele>730.01</ele>
        <time>2020-12-19T15:29:48.000Z</time>
      </trkpt>
      <trkpt lat="45.20602" lon="5.88187">
        <ele>729.64</ele>
        <time>2020-12-19T15:29:53.000Z</time>
      </trkpt>
      <trkpt lat="45.20583" lon="5.88146">
        <ele>729.88</ele>
        <time>2020-12-19T15:29:58.000Z</time>
      </trkpt>
      <trkpt lat="45.20561" lon="5.88126">
        <ele>730.33</ele>
        <time>2020-12-19T15:30:03.000Z</time>
      </trkpt>
      <trkpt lat="45.20537" lon="5.88127">
        <ele>730.15</ele>
        <time>2020-12-19T15:30:08.000Z</time>
      </trkpt>
      <trkpt lat="45.20514" lon="5.88136">
        <ele>728.89</ele>
        <time>2020-12-19T15:30:13.000Z</time>
      </trkpt>
      <trkpt lat="45.20488" lon="5.8814">
        <ele>726.12</ele>
        <time>2020-12-19T15:30:18.000Z</time>
      </trkpt>
      <trkpt lat="45.20463" lon="5.88139">
        <ele>726.15</ele>
        <time>2020-12-19T15:30:23.000Z</time>
      </trkpt>
      <trkpt lat="45.20438" lon="5.88135">
        <ele>724.8</ele>
        <time>2020-12-19T15:30:28.000Z</time>
      </trkpt>
      <trkpt lat="45.20412" lon="5.88133">
        <ele>722.39</ele>
        <time>2020-12-19T15:30:33.000Z</time>
      </trkpt>
      <trkpt lat="45.20389" lon="5.88135">
        <ele>719.78</ele>
        <time>2020-12-19T15:30:38.000Z</time>
      </trkpt>
      <trkpt lat="45.20363" lon="5.88145">
        <ele>717.51</ele>
        <time>2020-12-19T15:30:43.000Z</time>
      </trkpt>
      <trkpt lat="45.20343" lon="5.88164">
        <ele>715.89</ele>
        <time>2020-12-19T15:30:48.000Z</time>
      </trkpt>
      <trkpt lat="45.20322" lon="5.88183">
        <ele>717.16</ele>
        <time>2020-12-19T15:30:53.000Z</time>
      </trkpt>
      <trkpt lat="45.203" lon="5.88202">
        <ele>719.26</ele>
        <time>2020-12-19T15:30:58.000Z</time>
      </trkpt>
      <trkpt lat="45.20281" lon="5.88211">
        <ele>715.46</ele>
        <time>2020-12-19T15:31:03.000Z</time>
      </trkpt>
      <trkpt lat="45.20257" lon="5.88214">
        <ele>719.95</ele>
        <time>2020-12-19T15:31:08.000Z</time>
      </trkpt>
      <trkpt lat="45.2024" lon="5.88212">
        <ele>722.62</ele>
        <time>2020-12-19T15:31:13.000Z</time>
      </trkpt>
      <trkpt lat="45.20222" lon="5.88207">
        <ele>722.26</ele>
        <time>2020-12-19T15:31:18.000Z</time>
      </trkpt>
      <trkpt lat="45.20207" lon="5.88199">
        <ele>726.2</ele>
        <time>2020-12-19T15:31:23.000Z</time>
      </trkpt>
      <trkpt lat="45.20192" lon="5.88186">
        <ele>729.84</ele>
        <time>2020-12-19T15:31:28.000Z</time>
      </trkpt>
      <trkpt lat="45.20179" lon="5.88165">
        <ele>733.26</ele>
        <time>2020-12-19T15:31:33.000Z</time>
      </trkpt>
      <trkpt lat="45.20167" lon="5.88142">
        <ele>734.48</ele>
        <time>2020-12-19T15:31:38.000Z</time>
      </trkpt>
      <trkpt lat="45.20161" lon="5.88122">
        <ele>735.56</ele>
        <time>2020-12-19T15:31:43.000Z</time>
      </trkpt>
      <trkpt lat="45.20157" lon="5.88096">
        <ele>736.8</ele>
        <time>2020-12-19T15:31:48.000Z</time>
      </trkpt>
      <trkpt lat="45.20153" lon="5.88077">
        <ele>736.88</ele>
        <time>2020-12-19T15:31:53.000Z</time>
      </trkpt>
      <trkpt lat="45.20153" lon="5.88056">
        <ele>740.35</ele>
        <time>2020-12-19T15:31:58.000Z</time>
      </trkpt>
      <trkpt lat="45.20147" lon="5.88035">
        <ele>743.55</ele>
        <time>2020-12-19T15:32:03.000Z</time>
      </trkpt>
      <trkpt lat="45.20144" lon="5.88009">
        <ele>744.79</ele>
        <time>2020-12-19T15:32:08.000Z</time>
      </trkpt>
      <trkpt lat="45.20144" lon="5.87985">
        <ele>746.49</ele>
        <time>2020-12-19T15:32:13.000Z</time>
      </trkpt>
      <trkpt lat="45.20143" lon="5.87962">
        <ele>748.24</ele>
        <time>2020-12-19T15:32:18.000Z</time>
      </trkpt>
      <trkpt lat="45.2014" lon="5.87929">
        <ele>751.37</ele>
        <time>2020-12-19T15:32:23.000Z</time>
      </trkpt>
      <trkpt lat="45.20137" lon="5.87898">
        <ele>750.04</ele>
        <time>2020-12-19T15:32:28.000Z</time>
      </trkpt>
      <trkpt lat="45.20135" lon="5.87875">
        <ele>748.77</ele>
        <time>2020-12-19T15:32:33.000Z</time>
      </trkpt>
      <trkpt lat="45.20134" lon="5.87854">
        <ele>751.18</ele>
        <time>2020-12-19T15:32:38.000Z</time>
      </trkpt>
      <trkpt lat="45.20131" lon="5.87833">
        <ele>752</ele>
        <time>2020-12-19T15:32:43.000Z</time>
      </trkpt>
      <trkpt lat="45.20129" lon="5.87814">
        <ele>751.81</ele>
        <time>2020-12-19T15:32:48.000Z</time>
      </trkpt>
      <trkpt lat="45.20129" lon="5.87797">
        <ele>756.57</ele>
        <time>2020-12-19T15:32:53.000Z</time>
      </trkpt>
      <trkpt lat="45.20132" lon="5.87778">
        <ele>759.4</ele>
        <time>2020-12-19T15:32:58.000Z</time>
      </trkpt>
      <trkpt lat="45.20136" lon="5.87757">
        <ele>761.93</ele>
        <time>2020-12-19T15:33:03.000Z</time>
      </trkpt>
      <trkpt lat="45.20139" lon="5.87733">
        <ele>757.31</ele>
        <time>2020-12-19T15:33:08.000Z</time>
      </trkpt>
      <trkpt lat="45.20142" lon="5.87708">
        <ele>752.31</ele>
        <time>2020-12-19T15:33:13.000Z</time>
      </trkpt>
      <trkpt lat="45.2014" lon="5.87688">
        <ele>754.7</ele>
        <time>2020-12-19T15:33:18.000Z</time>
      </trkpt>
      <trkpt lat="45.20138" lon="5.87668">
        <ele>756.5</ele>
        <time>2020-12-19T15:33:23.000Z</time>
      </trkpt>
      <trkpt lat="45.20138" lon="5.87646">
        <ele>756.48</ele>
        <time>2020-12-19T15:33:28.000Z</time>
      </trkpt>
      <trkpt lat="45.20133" lon="5.87627">
        <ele>758.26</ele>
        <time>2020-12-19T15:33:33.000Z</time>
      </trkpt>
      <trkpt lat="45.20127" lon="5.87608">
        <ele>760.88</ele>
        <time>2020-12-19T15:33:38.000Z</time>
      </trkpt>
      <trkpt lat="45.20118" lon="5.87583">
        <ele>761.07</ele>
        <time>2020-12-19T15:33:43.000Z</time>
      </trkpt>
      <trkpt lat="45.20113" lon="5.87547">
        <ele>766.11</ele>
        <time>2020-12-19T15:33:48.000Z</time>
      </trkpt>
      <trkpt lat="45.20112" lon="5.87521">
        <ele>769.21</ele>
        <time>2020-12-19T15:33:53.000Z</time>
      </trkpt>
      <trkpt lat="45.20115" lon="5.875">
        <ele>773.75</ele>
        <time>2020-12-19T15:33:58.000Z</time>
      </trkpt>
      <trkpt lat="45.20119" lon="5.87482">
        <ele>779.29</ele>
        <time>2020-12-19T15:34:03.000Z</time>
      </trkpt>
      <trkpt lat="45.20125" lon="5.87459">
        <ele>782.83</ele>
        <time>2020-12-19T15:34:08.000Z</time>
      </trkpt>
      <trkpt lat="45.20136" lon="5.87439">
        <ele>784.18</ele>
        <time>2020-12-19T15:34:13.000Z</time>
      </trkpt>
      <trkpt lat="45.20148" lon="5.87422">
        <ele>786.71</ele>
        <time>2020-12-19T15:34:18.000Z</time>
      </trkpt>
      <trkpt lat="45.20155" lon="5.87402">
        <ele>785.17</ele>
        <time>2020-12-19T15:34:23.000Z</time>
      </trkpt>
      <trkpt lat="45.20155" lon="5.87377">
        <ele>785.48</ele>
        <time>2020-12-19T15:34:28.000Z</time>
      </trkpt>
      <trkpt lat="45.20153" lon="5.87356">
        <ele>786.84</ele>
        <time>2020-12-19T15:34:33.000Z</time>
      </trkpt>
      <trkpt lat="45.20152" lon="5.87336">
        <ele>787.46</ele>
        <time>2020-12-19T15:34:38.000Z</time>
      </trkpt>
      <trkpt lat="45.20149" lon="5.87317">
        <ele>786.96</ele>
        <time>2020-12-19T15:34:43.000Z</time>
      </trkpt>
      <trkpt lat="45.20141" lon="5.87296">
        <ele>784.95</ele>
        <time>2020-12-19T15:34:48.000Z</time>
      </trkpt>
      <trkpt lat="45.20134" lon="5.87275">
        <ele>788.21</ele>
        <time>2020-12-19T15:34:53.000Z</time>
      </trkpt>
      <trkpt lat="45.2013" lon="5.87257">
        <ele>790.42</ele>
        <time>2020-12-19T15:34:58.000Z</time>
      </trkpt>
      <trkpt lat="45.20119" lon="5.8724">
        <ele>793.23</ele>
        <time>2020-12-19T15:35:03.000Z</time>
      </trkpt>
      <trkpt lat="45.2011" lon="5.87225">
        <ele>794.85</ele>
        <time>2020-12-19T15:35:08.000Z</time>
      </trkpt>
      <trkpt lat="45.201" lon="5.87207">
        <ele>795.57</ele>
        <time>2020-12-19T15:35:13.000Z</time>
      </trkpt>
      <trkpt lat="45.20091" lon="5.87188">
        <ele>794.39</ele>
        <time>2020-12-19T15:35:18.000Z</time>
      </trkpt>
      <trkpt lat="45.20085" lon="5.87171">
        <ele>794.95</ele>
        <time>2020-12-19T15:35:23.000Z</time>
      </trkpt>
      <trkpt lat="45.20079" lon="5.87153">
        <ele>794.98</ele>
        <time>2020-12-19T15:35:28.000Z</time>
      </trkpt>
      <trkpt lat="45.20073" lon="5.87132">
        <ele>795.26</ele>
        <time>2020-12-19T15:35:33.000Z</time>
      </trkpt>
      <trkpt lat="45.20068" lon="5.87109">
        <ele>793.96</ele>
        <time>2020-12-19T15:35:38.000Z</time>
      </trkpt>
      <trkpt lat="45.20065" lon="5.8709">
        <ele>796.85</ele>
        <time>2020-12-19T15:35:43.000Z</time>
      </trkpt>
      <trkpt lat="45.20068" lon="5.87073">
        <ele>802.04</ele>
        <time>2020-12-19T15:35:48.000Z</time>
      </trkpt>
      <trkpt lat="45.20073" lon="5.87055">
        <ele>803.43</ele>
        <time>2020-12-19T15:35:53.000Z</time>
      </trkpt>
      <trkpt lat="45.20076" lon="5.87034">
        <ele>803.52</ele>
        <time>2020-12-19T15:35:58.000Z</time>
      </trkpt>
      <trkpt lat="45.20081" lon="5.8701">
        <ele>804.54</ele>
        <time>2020-12-19T15:36:03.000Z</time>
      </trkpt>
      <trkpt lat="45.20082" lon="5.86988">
        <ele>806.34</ele>
        <time>2020-12-19T15:36:08.000Z</time>
      </trkpt>
      <trkpt lat="45.20085" lon="5.86962">
        <ele>806.07</ele>
        <time>2020-12-19T15:36:13.000Z</time>
      </trkpt>
      <trkpt lat="45.20086" lon="5.86939">
        <ele>808.79</ele>
        <time>2020-12-19T15:36:18.000Z</time>
      </trkpt>
      <trkpt lat="45.20089" lon="5.86916">
        <ele>809.31</ele>
        <time>2020-12-19T15:36:23.000Z</time>
      </trkpt>
      <trkpt lat="45.20087" lon="5.86889">
        <ele>815.55</ele>
        <time>2020-12-19T15:36:28.000Z</time>
      </trkpt>
      <trkpt lat="45.20082" lon="5.86865">
        <ele>815.45</ele>
        <time>2020-12-19T15:36:33.000Z</time>
      </trkpt>
      <trkpt lat="45.2007" lon="5.86844">
        <ele>813.25</ele>
        <time>2020-12-19T15:36:38.000Z</time>
      </trkpt>
      <trkpt lat="45.20062" lon="5.86824">
        <ele>814.04</ele>
        <time>2020-12-19T15:36:43.000Z</time>
      </trkpt>
      <trkpt lat="45.20054" lon="5.86807">
        <ele>816.7</ele>
        <time>2020-12-19T15:36:48.000Z</time>
      </trkpt>
      <trkpt lat="45.20044" lon="5.8679">
        <ele>816.8</ele>
        <time>2020-12-19T15:36:53.000Z</time>
      </trkpt>
      <trkpt lat="45.20034" lon="5.86771">
        <ele>820.14</ele>
        <time>2020-12-19T15:36:58.000Z</time>
      </trkpt>
      <trkpt lat="45.20023" lon="5.86754">
        <ele>823.68</ele>
        <time>2020-12-19T15:37:03.000Z</time>
      </trkpt>
      <trkpt lat="45.20013" lon="5.86738">
        <ele>824.74</ele>
        <time>2020-12-19T15:37:08.000Z</time>
      </trkpt>
      <trkpt lat="45.2" lon="5.86725">
        <ele>823.55</ele>
        <time>2020-12-19T15:37:13.000Z</time>
      </trkpt>
      <trkpt lat="45.19986" lon="5.86722">
        <ele>821.96</ele>
        <time>2020-12-19T15:37:18.000Z</time>
      </trkpt>
      <trkpt lat="45.19973" lon="5.86719">
        <ele>823.24</ele>
        <time>2020-12-19T15:37:23.000Z</time>
      </trkpt>
      <trkpt lat="45.1996" lon="5.86717">
        <ele>822.95</ele>
        <time>2020-12-19T15:37:28.000Z</time>
      </trkpt>
      <trkpt lat="45.19948" lon="5.86718">
        <ele>826.42</ele>
        <time>2020-12-19T15:37:33.000Z</time>
      </trkpt>
      <trkpt lat="45.19937" lon="5.86717">
        <ele>830.66</ele>
        <time>2020-12-19T15:37:38.000Z</time>
      </trkpt>
      <trkpt lat="45.19923" lon="5.86718">
        <ele>830.33</ele>
        <time>2020-12-19T15:37:43.000Z</time>
      </trkpt>
      <trkpt lat="45.19911" lon="5.86722">
        <ele>831.84</ele>
        <time>2020-12-19T15:37:48.000Z</time>
      </trkpt>
      <trkpt lat="45.19899" lon="5.86724">
        <ele>834.23</ele>
        <time>2020-12-19T15:37:53.000Z</time>
      </trkpt>
      <trkpt lat="45.19885" lon="5.86725">
        <ele>834.55</ele>
        <time>2020-12-19T15:37:58.000Z</time>
      </trkpt>
      <trkpt lat="45.19873" lon="5.86723">
        <ele>835.07</ele>
        <time>2020-12-19T15:38:03.000Z</time>
      </trkpt>
      <trkpt lat="45.19857" lon="5.86725">
        <ele>837.75</ele>
        <time>2020-12-19T15:38:08.000Z</time>
      </trkpt>
      <trkpt lat="45.19842" lon="5.86726">
        <ele>841.57</ele>
        <time>2020-12-19T15:38:13.000Z</time>
      </trkpt>
      <trkpt lat="45.19827" lon="5.86724">
        <ele>841.37</ele>
        <time>2020-12-19T15:38:18.000Z</time>
      </trkpt>
      <trkpt lat="45.19812" lon="5.86721">
        <ele>842.67</ele>
        <time>2020-12-19T15:38:23.000Z</time>
      </trkpt>
      <trkpt lat="45.19799" lon="5.86719">
        <ele>843.4</ele>
        <time>2020-12-19T15:38:28.000Z</time>
      </trkpt>
      <trkpt lat="45.19785" lon="5.86716">
        <ele>842.82</ele>
        <time>2020-12-19T15:38:33.000Z</time>
      </trkpt>
      <trkpt lat="45.19772" lon="5.86713">
        <ele>846.24</ele>
        <time>2020-12-19T15:38:38.000Z</time>
      </trkpt>
      <trkpt lat="45.19758" lon="5.86711">
        <ele>848.73</ele>
        <time>2020-12-19T15:38:43.000Z</time>
      </trkpt>
      <trkpt lat="45.19746" lon="5.86714">
        <ele>849.21</ele>
        <time>2020-12-19T15:38:48.000Z</time>
      </trkpt>
      <trkpt lat="45.19734" lon="5.86721">
        <ele>850.28</ele>
        <time>2020-12-19T15:38:53.000Z</time>
      </trkpt>
      <trkpt lat="45.19726" lon="5.86735">
        <ele>850.02</ele>
        <time>2020-12-19T15:38:58.000Z</time>
      </trkpt>
      <trkpt lat="45.19721" lon="5.86752">
        <ele>850.32</ele>
        <time>2020-12-19T15:39:03.000Z</time>
      </trkpt>
      <trkpt lat="45.1972" lon="5.86772">
        <ele>854.65</ele>
        <time>2020-12-19T15:39:08.000Z</time>
      </trkpt>
      <trkpt lat="45.19722" lon="5.8679">
        <ele>856.54</ele>
        <time>2020-12-19T15:39:13.000Z</time>
      </trkpt>
      <trkpt lat="45.1972" lon="5.86808">
        <ele>857.21</ele>
        <time>2020-12-19T15:39:18.000Z</time>
      </trkpt>
      <trkpt lat="45.19716" lon="5.86826">
        <ele>855.99</ele>
        <time>2020-12-19T15:39:23.000Z</time>
      </trkpt>
      <trkpt lat="45.19707" lon="5.86842">
        <ele>857.31</ele>
        <time>2020-12-19T15:39:28.000Z</time>
      </trkpt>
      <trkpt lat="45.19695" lon="5.86849">
        <ele>858.57</ele>
        <time>2020-12-19T15:39:33.000Z</time>
      </trkpt>
      <trkpt lat="45.19683" lon="5.8685">
        <ele>860.27</ele>
        <time>2020-12-19T15:39:38.000Z</time>
      </trkpt>
      <trkpt lat="45.19669" lon="5.86852">
        <ele>861.03</ele>
        <time>2020-12-19T15:39:43.000Z</time>
      </trkpt>
      <trkpt lat="45.19657" lon="5.86853">
        <ele>858.88</ele>
        <time>2020-12-19T15:39:48.000Z</time>
      </trkpt>
      <trkpt lat="45.19643" lon="5.86852">
        <ele>860.12</ele>
        <time>2020-12-19T15:39:53.000Z</time>
      </trkpt>
      <trkpt lat="45.19627" lon="5.86853">
        <ele>860.17</ele>
        <time>2020-12-19T15:39:58.000Z</time>
      </trkpt>
      <trkpt lat="45.19613" lon="5.86855">
        <ele>862.1</ele>
        <time>2020-12-19T15:40:03.000Z</time>
      </trkpt>
      <trkpt lat="45.19598" lon="5.86855">
        <ele>863.74</ele>
        <time>2020-12-19T15:40:08.000Z</time>
      </trkpt>
      <trkpt lat="45.19583" lon="5.86855">
        <ele>864.91</ele>
        <time>2020-12-19T15:40:13.000Z</time>
      </trkpt>
      <trkpt lat="45.19569" lon="5.8686">
        <ele>865.58</ele>
        <time>2020-12-19T15:40:18.000Z</time>
      </trkpt>
      <trkpt lat="45.19556" lon="5.86866">
        <ele>864.87</ele>
        <time>2020-12-19T15:40:23.000Z</time>
      </trkpt>
      <trkpt lat="45.19544" lon="5.86878">
        <ele>864.13</ele>
        <time>2020-12-19T15:40:28.000Z</time>
      </trkpt>
      <trkpt lat="45.19536" lon="5.8689">
        <ele>862.76</ele>
        <time>2020-12-19T15:40:33.000Z</time>
      </trkpt>
      <trkpt lat="45.19532" lon="5.86907">
        <ele>865.29</ele>
        <time>2020-12-19T15:40:38.000Z</time>
      </trkpt>
      <trkpt lat="45.19532" lon="5.86924">
        <ele>867.06</ele>
        <time>2020-12-19T15:40:43.000Z</time>
      </trkpt>
      <trkpt lat="45.19534" lon="5.86942">
        <ele>871.23</ele>
        <time>2020-12-19T15:40:48.000Z</time>
      </trkpt>
      <trkpt lat="45.19537" lon="5.86963">
        <ele>874.02</ele>
        <time>2020-12-19T15:40:53.000Z</time>
      </trkpt>
      <trkpt lat="45.1954" lon="5.86984">
        <ele>877.14</ele>
        <time>2020-12-19T15:40:58.000Z</time>
      </trkpt>
      <trkpt lat="45.19545" lon="5.87003">
        <ele>878.11</ele>
        <time>2020-12-19T15:41:03.000Z</time>
      </trkpt>
      <trkpt lat="45.19551" lon="5.87022">
        <ele>877.65</ele>
        <time>2020-12-19T15:41:08.000Z</time>
      </trkpt>
      <trkpt lat="45.19558" lon="5.87038">
        <ele>875.19</ele>
        <time>2020-12-19T15:41:13.000Z</time>
      </trkpt>
      <trkpt lat="45.19566" lon="5.87052">
        <ele>876.72</ele>
        <time>2020-12-19T15:41:18.000Z</time>
      </trkpt>
      <trkpt lat="45.19577" lon="5.8707">
        <ele>879.74</ele>
        <time>2020-12-19T15:41:23.000Z</time>
      </trkpt>
      <trkpt lat="45.19594" lon="5.87093">
        <ele>879.58</ele>
        <time>2020-12-19T15:41:28.000Z</time>
      </trkpt>
      <trkpt lat="45.1961" lon="5.8712">
        <ele>878.11</ele>
        <time>2020-12-19T15:41:33.000Z</time>
      </trkpt>
      <trkpt lat="45.19627" lon="5.87143">
        <ele>878.31</ele>
        <time>2020-12-19T15:41:38.000Z</time>
      </trkpt>
      <trkpt lat="45.19642" lon="5.87167">
        <ele>878.07</ele>
        <time>2020-12-19T15:41:43.000Z</time>
      </trkpt>
      <trkpt lat="45.1966" lon="5.87196">
        <ele>874.87</ele>
        <time>2020-12-19T15:41:48.000Z</time>
      </trkpt>
      <trkpt lat="45.19674" lon="5.87233">
        <ele>874.03</ele>
        <time>2020-12-19T15:41:53.000Z</time>
      </trkpt>
      <trkpt lat="45.19682" lon="5.87275">
        <ele>878.26</ele>
        <time>2020-12-19T15:41:58.000Z</time>
      </trkpt>
      <trkpt lat="45.19684" lon="5.8732">
        <ele>878.53</ele>
        <time>2020-12-19T15:42:03.000Z</time>
      </trkpt>
      <trkpt lat="45.19689" lon="5.87364">
        <ele>875.29</ele>
        <time>2020-12-19T15:42:08.000Z</time>
      </trkpt>
      <trkpt lat="45.19692" lon="5.87401">
        <ele>876.19</ele>
        <time>2020-12-19T15:42:13.000Z</time>
      </trkpt>
      <trkpt lat="45.19692" lon="5.87432">
        <ele>876.56</ele>
        <time>2020-12-19T15:42:18.000Z</time>
      </trkpt>
      <trkpt lat="45.19692" lon="5.87464">
        <ele>877.01</ele>
        <time>2020-12-19T15:42:23.000Z</time>
      </trkpt>
      <trkpt lat="45.19684" lon="5.87493">
        <ele>878.56</ele>
        <time>2020-12-19T15:42:28.000Z</time>
      </trkpt>
      <trkpt lat="45.19671" lon="5.87519">
        <ele>877.51</ele>
        <time>2020-12-19T15:42:33.000Z</time>
      </trkpt>
      <trkpt lat="45.19653" lon="5.8754">
        <ele>875.05</ele>
        <time>2020-12-19T15:42:38.000Z</time>
      </trkpt>
      <trkpt lat="45.19638" lon="5.87556">
        <ele>874.74</ele>
        <time>2020-12-19T15:42:43.000Z</time>
      </trkpt>
      <trkpt lat="45.19624" lon="5.87572">
        <ele>875.6</ele>
        <time>2020-12-19T15:42:48.000Z</time>
      </trkpt>
      <trkpt lat="45.1961" lon="5.8759">
        <ele>875.99</ele>
        <time>2020-12-19T15:42:53.000Z</time>
      </trkpt>
      <trkpt lat="45.19596" lon="5.87608">
        <ele>873.95</ele>
        <time>2020-12-19T15:42:58.000Z</time>
      </trkpt>
      <trkpt lat="45.19582" lon="5.87624">
        <ele>872.56</ele>
        <time>2020-12-19T15:43:03.000Z</time>
      </trkpt>
      <trkpt lat="45.19571" lon="5.87637">
        <ele>876.22</ele>
        <time>2020-12-19T15:43:08.000Z</time>
      </trkpt>
      <trkpt lat="45.19559" lon="5.87649">
        <ele>876.96</ele>
        <time>2020-12-19T15:43:13.000Z</time>
      </trkpt>
      <trkpt lat="45.19543" lon="5.87658">
        <ele>877.55</ele>
        <time>2020-12-19T15:43:18.000Z</time>
      </trkpt>
      <trkpt lat="45.19528" lon="5.87663">
        <ele>877.23</ele>
        <time>2020-12-19T15:43:23.000Z</time>
      </trkpt>
      <trkpt lat="45.19513" lon="5.87666">
        <ele>877.37</ele>
        <time>2020-12-19T15:43:28.000Z</time>
      </trkpt>
      <trkpt lat="45.19497" lon="5.87665">
        <ele>877.5</ele>
        <time>2020-12-19T15:43:33.000Z</time>
      </trkpt>
      <trkpt lat="45.19481" lon="5.87665">
        <ele>877.8</ele>
        <time>2020-12-19T15:43:38.000Z</time>
      </trkpt>
      <trkpt lat="45.19469" lon="5.87663">
        <ele>877.11</ele>
        <time>2020-12-19T15:43:43.000Z</time>
      </trkpt>
      <trkpt lat="45.19455" lon="5.87662">
        <ele>878.95</ele>
        <time>2020-12-19T15:43:48.000Z</time>
      </trkpt>
      <trkpt lat="45.19442" lon="5.87662">
        <ele>878.21</ele>
        <time>2020-12-19T15:43:53.000Z</time>
      </trkpt>
      <trkpt lat="45.19428" lon="5.8766">
        <ele>879.61</ele>
        <time>2020-12-19T15:43:58.000Z</time>
      </trkpt>
      <trkpt lat="45.19414" lon="5.87658">
        <ele>879.79</ele>
        <time>2020-12-19T15:44:03.000Z</time>
      </trkpt>
      <trkpt lat="45.19396" lon="5.87662">
        <ele>879.46</ele>
        <time>2020-12-19T15:44:08.000Z</time>
      </trkpt>
      <trkpt lat="45.19379" lon="5.87677">
        <ele>883.81</ele>
        <time>2020-12-19T15:44:13.000Z</time>
      </trkpt>
      <trkpt lat="45.19364" lon="5.87695">
        <ele>881.14</ele>
        <time>2020-12-19T15:44:18.000Z</time>
      </trkpt>
      <trkpt lat="45.19356" lon="5.87717">
        <ele>881.22</ele>
        <time>2020-12-19T15:44:23.000Z</time>
      </trkpt>
      <trkpt lat="45.19353" lon="5.87739">
        <ele>879.35</ele>
        <time>2020-12-19T15:44:28.000Z</time>
      </trkpt>
      <trkpt lat="45.19353" lon="5.87765">
        <ele>881.76</ele>
        <time>2020-12-19T15:44:33.000Z</time>
      </trkpt>
      <trkpt lat="45.19353" lon="5.87795">
        <ele>885.46</ele>
        <time>2020-12-19T15:44:38.000Z</time>
      </trkpt>
      <trkpt lat="45.19351" lon="5.87831">
        <ele>885.57</ele>
        <time>2020-12-19T15:44:43.000Z</time>
      </trkpt>
      <trkpt lat="45.1935" lon="5.87871">
        <ele>886.34</ele>
        <time>2020-12-19T15:44:48.000Z</time>
      </trkpt>
      <trkpt lat="45.19359" lon="5.87914">
        <ele>887.96</ele>
        <time>2020-12-19T15:44:53.000Z</time>
      </trkpt>
      <trkpt lat="45.1938" lon="5.87956">
        <ele>885.29</ele>
        <time>2020-12-19T15:44:58.000Z</time>
      </trkpt>
      <trkpt lat="45.19406" lon="5.87995">
        <ele>884.39</ele>
        <time>2020-12-19T15:45:03.000Z</time>
      </trkpt>
      <trkpt lat="45.1943" lon="5.88045">
        <ele>884.33</ele>
        <time>2020-12-19T15:45:08.000Z</time>
      </trkpt>
      <trkpt lat="45.19436" lon="5.88109">
        <ele>886.31</ele>
        <time>2020-12-19T15:45:13.000Z</time>
      </trkpt>
      <trkpt lat="45.19427" lon="5.88175">
        <ele>883.65</ele>
        <time>2020-12-19T15:45:18.000Z</time>
      </trkpt>
      <trkpt lat="45.19399" lon="5.88226">
        <ele>882.75</ele>
        <time>2020-12-19T15:45:23.000Z</time>
      </trkpt>
      <trkpt lat="45.19397" lon="5.88293">
        <ele>879.08</ele>
        <time>2020-12-19T15:45:28.000Z</time>
      </trkpt>
      <trkpt lat="45.19383" lon="5.88362">
        <ele>877.96</ele>
        <time>2020-12-19T15:45:33.000Z</time>
      </trkpt>
      <trkpt lat="45.19348" lon="5.88423">
        <ele>869.7</ele>
        <time>2020-12-19T15:45:38.000Z</time>
      </trkpt>
      <trkpt lat="45.19285" lon="5.88441">
        <ele>862.89</ele>
        <time>2020-12-19T15:45:43.000Z</time>
      </trkpt>
      <trkpt lat="45.19218" lon="5.88462">
        <ele>856.97</ele>
        <time>2020-12-19T15:45:48.000Z</time>
      </trkpt>
      <trkpt lat="45.19145" lon="5.88453">
        <ele>852.98</ele>
        <time>2020-12-19T15:45:53.000Z</time>
      </trkpt>
      <trkpt lat="45.19074" lon="5.88446">
        <ele>846.68</ele>
        <time>2020-12-19T15:45:58.000Z</time>
      </trkpt>
      <trkpt lat="45.19" lon="5.88452">
        <ele>846.51</ele>
        <time>2020-12-19T15:46:03.000Z</time>
      </trkpt>
      <trkpt lat="45.18932" lon="5.88465">
        <ele>845</ele>
        <time>2020-12-19T15:46:08.000Z</time>
      </trkpt>
      <trkpt lat="45.18874" lon="5.88473">
        <ele>841.7</ele>
        <time>2020-12-19T15:46:13.000Z</time>
      </trkpt>
      <trkpt lat="45.18826" lon="5.88449">
        <ele>839.63</ele>
        <time>2020-12-19T15:46:18.000Z</time>
      </trkpt>
      <trkpt lat="45.18797" lon="5.88402">
        <ele>836.51</ele>
        <time>2020-12-19T15:46:23.000Z</time>
      </trkpt>
      <trkpt lat="45.18769" lon="5.8836">
        <ele>836.57</ele>
        <time>2020-12-19T15:46:28.000Z</time>
      </trkpt>
      <trkpt lat="45.18745" lon="5.8832">
        <ele>832.73</ele>
        <time>2020-12-19T15:46:33.000Z</time>
      </trkpt>
      <trkpt lat="45.18726" lon="5.88278">
        <ele>829.81</ele>
        <time>2020-12-19T15:46:38.000Z</time>
      </trkpt>
      <trkpt lat="45.18715" lon="5.88227">
        <ele>829.04</ele>
        <time>2020-12-19T15:46:43.000Z</time>
      </trkpt>
      <trkpt lat="45.18718" lon="5.88169">
        <ele>825.95</ele>
        <time>2020-12-19T15:46:48.000Z</time>
      </trkpt>
      <trkpt lat="45.18725" lon="5.88105">
        <ele>821.55</ele>
        <time>2020-12-19T15:46:53.000Z</time>
      </trkpt>
      <trkpt lat="45.18714" lon="5.88028">
        <ele>816.27</ele>
        <time>2020-12-19T15:46:58.000Z</time>
      </trkpt>
      <trkpt lat="45.18685" lon="5.87947">
        <ele>807.89</ele>
        <time>2020-12-19T15:47:03.000Z</time>
      </trkpt>
      <trkpt lat="45.18635" lon="5.8788">
        <ele>799.53</ele>
        <time>2020-12-19T15:47:08.000Z</time>
      </trkpt>
      <trkpt lat="45.1857" lon="5.87834">
        <ele>791.29</ele>
        <time>2020-12-19T15:47:13.000Z</time>
      </trkpt>
      <trkpt lat="45.18508" lon="5.878">
        <ele>785.03</ele>
        <time>2020-12-19T15:47:18.000Z</time>
      </trkpt>
      <trkpt lat="45.18452" lon="5.87794">
        <ele>782.84</ele>
        <time>2020-12-19T15:47:23.000Z</time>
      </trkpt>
      <trkpt lat="45.18395" lon="5.87836">
        <ele>776.54</ele>
        <time>2020-12-19T15:47:28.000Z</time>
      </trkpt>
      <trkpt lat="45.18338" lon="5.87897">
        <ele>769.4</ele>
        <time>2020-12-19T15:47:33.000Z</time>
      </trkpt>
      <trkpt lat="45.18291" lon="5.87966">
        <ele>761.89</ele>
        <time>2020-12-19T15:47:38.000Z</time>
      </trkpt>
      <trkpt lat="45.18262" lon="5.88012">
        <ele>755.73</ele>
        <time>2020-12-19T15:47:43.000Z</time>
      </trkpt>
      <trkpt lat="45.18254" lon="5.88006">
        <ele>753.21</ele>
        <time>2020-12-19T15:47:48.000Z</time>
      </trkpt>
      <trkpt lat="45.18257" lon="5.87993">
        <ele>749.81</ele>
        <time>2020-12-19T15:47:54.000Z</time>
      </trkpt>
      <trkpt lat="45.18268" lon="5.87959">
        <ele>748.49</ele>
        <time>2020-12-19T15:47:59.000Z</time>
      </trkpt>
      <trkpt lat="45.18264" lon="5.87901">
        <ele>745.96</ele>
        <time>2020-12-19T15:48:04.000Z</time>
      </trkpt>
      <trkpt lat="45.18278" lon="5.8783">
        <ele>740.43</ele>
        <time>2020-12-19T15:48:09.000Z</time>
      </trkpt>
      <trkpt lat="45.18293" lon="5.87757">
        <ele>733.89</ele>
        <time>2020-12-19T15:48:14.000Z</time>
      </trkpt>
      <trkpt lat="45.18304" lon="5.87712">
        <ele>730.49</ele>
        <time>2020-12-19T15:48:19.000Z</time>
      </trkpt>
      <trkpt lat="45.18303" lon="5.87693">
        <ele>726.68</ele>
        <time>2020-12-19T15:48:24.000Z</time>
      </trkpt>
      <trkpt lat="45.18305" lon="5.87671">
        <ele>722.76</ele>
        <time>2020-12-19T15:48:29.000Z</time>
      </trkpt>
      <trkpt lat="45.18312" lon="5.87635">
        <ele>717.24</ele>
        <time>2020-12-19T15:48:34.000Z</time>
      </trkpt>
      <trkpt lat="45.18325" lon="5.87596">
        <ele>714.36</ele>
        <time>2020-12-19T15:48:39.000Z</time>
      </trkpt>
      <trkpt lat="45.18335" lon="5.87562">
        <ele>711.18</ele>
        <time>2020-12-19T15:48:44.000Z</time>
      </trkpt>
      <trkpt lat="45.18345" lon="5.87523">
        <ele>707.03</ele>
        <time>2020-12-19T15:48:49.000Z</time>
      </trkpt>
      <trkpt lat="45.18359" lon="5.87484">
        <ele>702.17</ele>
        <time>2020-12-19T15:48:54.000Z</time>
      </trkpt>
      <trkpt lat="45.18374" lon="5.87443">
        <ele>699.16</ele>
        <time>2020-12-19T15:48:59.000Z</time>
      </trkpt>
      <trkpt lat="45.18384" lon="5.87412">
        <ele>695.5</ele>
        <time>2020-12-19T15:49:04.000Z</time>
      </trkpt>
      <trkpt lat="45.18388" lon="5.87392">
        <ele>693.68</ele>
        <time>2020-12-19T15:49:09.000Z</time>
      </trkpt>
      <trkpt lat="45.18388" lon="5.87383">
        <ele>693.06</ele>
        <time>2020-12-19T15:57:31.000Z</time>
      </trkpt>
    </trkseg>
  </trk>
</gpx>